[[{"header":{"parameterUnit":"m.s-1","parameterCategory":1,"la1":31.0,"la2":29.5877,"lo1":-88.7671,"lo2":-86.6584,"dy":0.0162,"dx":0.0185,"nx":115,"ny":88,"refTime":"2023-05-08T12:00:00:Z","depth":0,"parameterNumber":2,"parameterNumberName":"U-component_of_WINDS"},"data":[0.0,0.0,0.0,0.0,0.0,0.0,0.0,0.0,0.0,0.0,0.0,0.0,0.0,0.0,0.0,0.0,0.0,0.0,0.0,0.0,0.0,0.0,0.0,0.0,0.0,0.0,0.0,0.0,0.0,0.0,0.0,0.0,0.0,0.0,0.0,0.0,0.0,0.0,0.0,0.0,0.0,0.0,0.0,0.0,0.0,0.0,0.0,0.0,0.0,0.0,0.0,0.0,0.0,0.0,0.0,0.0,0.0,0.0,0.0,0.0,0.0,0.0,0.0,0.0,0.0,0.0,0.0,0.0,0.0,0.0,0.0,0.0,0.0,0.0,0.0,0.0,0.0,0.0,0.0,0.0,0.0,0.0,0.0,0.0,0.0,0.0,0.0,0.0,0.0,0.0,0.0,0.0,0.0,0.0,0.0,0.0,0.0,0.0,0.0,0.0,0.0,0.0,0.0,0.0,0.0,0.0,0.0,0.0,0.0,0.0,0.0,0.0,0.0,0.0,0.0,0.0,0.0,0.0,0.0,0.0,0.0,0.0,0.0,0.0,0.0,0.0,0.0,0.0,0.0,0.0,0.0,0.0,0.0,0.0,0.0,0.0,0.0,0.0,0.0,0.0,0.0,0.0,0.0,0.0,0.0,0.0,0.0,0.0,0.0,0.0,0.0,0.0,0.0,0.0,0.0,0.0,0.0,0.0,0.0,0.0,0.0,0.0,0.0,0.0,0.0,0.0,0.0,0.0,0.0,0.0,0.0,0.0,0.0,0.0,0.0,0.0,0.0,0.0,0.0,0.0,0.0,0.0,0.0,0.0,0.0,0.0,0.0,0.0,0.0,0.0,0.0,0.0,0.0,0.0,0.0,0.0,0.0,0.0,0.0,0.0,0.0,0.0,0.0,0.0,0.0,0.0,0.0,0.0,0.0,0.0,0.0,0.0,0.0,0.0,0.0,0.0,0.0,0.0,0.0,0.0,0.0,0.0,0.0,0.0,0.0,0.0,0.0,0.0,0.0,0.0,0.0,0.0,0.0,0.0,0.0,0.0,0.0,0.0,0.0,0.0,0.0,0.0,0.0,0.0,0.0,0.0,0.0,0.0,0.0,0.0,0.0,0.0,0.0,0.0,0.0,0.0,0.0,0.0,0.0,0.0,0.0,0.0,0.0,0.0,0.0,0.0,0.0,0.0,0.0,0.0,0.0,0.0,0.0,0.0,0.0,0.0,0.0,0.0,0.0,0.0,0.0,0.0,0.0,0.0,0.0,0.0,0.0,0.0,0.0,0.0,0.0,0.0,0.0,0.0,0.0,0.0,0.0,0.0,0.0,0.0,0.0,0.0,0.0,0.0,0.0,0.0,0.0,0.0,0.0,0.0,0.0,0.0,0.0,0.0,0.0,0.0,0.0,0.0,0.0,0.0,0.0,0.0,0.0,0.0,0.0,0.0,0.0,0.0,0.0,0.0,0.0,0.0,0.0,0.0,0.0,0.0,0.0,0.0,0.0,0.0,0.0,0.0,0.0,0.0,0.0,0.0,0.0,0.0,0.0,0.0,0.0,0.0,0.0,0.0,0.0,0.0,0.0,0.0,0.0,0.0,0.0,0.0,0.0,0.0,0.0,0.0,0.0,0.0,0.0,0.0,0.0,0.0,0.0,0.0,0.0,0.0,0.0,0.0,0.0,0.0,0.0,0.0,0.0,0.0,0.0,0.0,0.0,0.0,0.0,0.0,0.0,0.0,0.0,0.0,0.0,0.0,0.0,0.0,0.0,0.0,0.0,0.0,0.0,0.0,0.0,0.0,0.0,0.0,0.0,0.0,0.0,0.0,0.0,0.0,0.0,0.0,0.0,0.0,0.0,0.0,0.0,0.0,0.0,0.0,0.0,0.0,0.0,0.0,0.0,0.0,0.0,0.0,0.0,0.0,0.0,0.0,0.0,0.0,0.0,0.0,0.0,0.0,0.0,0.0,0.0,0.0,0.0,0.0,0.0,0.0,0.0,0.0,0.0,0.0,0.0,0.0,0.0,0.0,0.0,0.0,0.0,0.0,0.0,0.0,0.0,0.0,0.0,0.0,0.0,0.0,0.0,0.0,0.0,0.0,0.0,0.0,0.0,0.0,0.0,0.0,0.0,0.0,0.0,0.0,0.0,0.0,0.0,0.0,0.0,0.0,0.0,0.0,0.0,0.0,0.0,0.0,0.0,0.0,0.0,0.0,0.0,0.0,0.0,0.0,0.0,0.0,0.0,0.0,0.0,0.0,0.0,0.0,0.0,0.0,0.0,0.0,0.0,0.0,0.0,0.0,0.0,0.0,0.0,0.0,0.0,0.0,0.0,0.0,0.0,0.0,0.0,0.0,0.0,0.0,0.0,0.0,0.0,0.0,0.0,0.0,0.0,0.0,0.0,0.0,0.0,0.0,0.0,0.0,0.0,0.0,0.0,0.0,0.0,0.0,0.0,0.0,0.0,0.0,0.0,0.0,0.0,0.0,0.0,0.0,0.0,0.0,0.0,0.0,0.0,0.0,0.0,0.0,0.0,0.0,0.0,0.0,0.0,0.0,0.0,0.0,0.0,0.0,0.0,0.0,0.0,0.0,0.0,0.0,0.0,0.0,0.0,0.0,0.0,0.0,0.0,0.0,0.0,0.0,0.0,0.0,0.0,0.0,0.0,0.0,0.0,0.0,0.0,0.0,0.0,0.0,0.0,0.0,0.0,0.0,0.0,0.0,0.0,0.0,0.0,0.0,0.0,0.0,0.0,0.0,0.0,0.0,0.0,0.0,0.0,0.0,0.0,0.0,0.0,0.0,0.0,0.0,0.0,0.0,0.0,0.0,0.0,0.0,0.0,0.0,0.0,0.0,0.0,0.0,0.0,0.0,0.0,0.0,0.0,0.0,0.0,0.0,0.0,0.0,0.0,0.0,0.0,0.0,0.0,0.0,0.0,0.0,0.0,0.0,0.0,0.0,0.0,0.0,0.0,0.0,0.0,0.0,0.0,0.0,0.0,0.0,0.0,0.0,0.0,0.0,0.0,0.0,0.0,0.0,0.0,0.0,0.0,0.0,0.0,0.0,0.0,0.0,0.0,0.0,0.0,0.0,0.0,0.0,0.0,0.0,0.0,0.0,0.0,0.0,0.0,0.0,0.0,0.0,0.0,0.0,0.0,0.0,0.0,0.0,0.0,0.0,0.0,0.0,0.0,0.0,0.0,0.0,0.0,0.0,0.0,0.0,0.0,0.0,0.0,0.0,0.0,0.0,0.0,0.0,0.0,0.0,0.0,0.0,0.0,0.0,0.0,0.0,0.0,0.0,0.0,0.0,0.0,0.0,0.0,0.0,0.0,0.0,0.0,0.0,0.0,0.0,0.0,0.0,0.0,0.0,0.0,0.0,0.0,0.0,0.0,0.0,0.0,0.0,0.0,0.0,0.0,0.0,0.0,0.0,0.0,0.0,0.0,0.0,0.0,0.0,0.0,0.0,0.0,0.0,0.0,0.0,0.0,0.0,0.0,0.0,0.0,0.0,0.0,0.0,0.0,0.0,0.0,0.0,0.0,0.0,0.0,0.0,0.0,0.0,0.0,0.0,0.0,0.0,0.0,0.0,0.0,0.0,0.0,0.0,0.0,0.0,0.0,0.0,0.0,0.0,0.0,0.0,0.0,0.0,0.0,0.0,0.0,0.0,0.0,0.0,0.0,0.0,0.0,0.0,0.0,0.0,0.0,0.0,0.0,0.0,0.0,0.0,0.0,0.0,0.0,0.0,0.0,0.0,0.0,0.0,0.0,0.0,0.0,0.0,0.0,0.0,0.0,0.0,0.0,0.0,0.0,0.0,0.0,0.0,0.0,0.0,0.0,0.0,0.0,0.0,0.0,0.0,0.0,0.0,0.0,0.0,0.0,0.0,0.0,0.0,0.0,0.0,0.0,0.0,0.0,0.0,0.0,0.0,0.0,0.0,0.0,0.0,0.0,0.0,0.0,0.0,0.0,0.0,0.0,0.0,0.0,0.0,0.0,0.0,0.0,0.0,0.0,0.0,0.0,0.0,0.0,0.0,0.0,0.0,0.0,0.0,0.0,0.0,0.0,0.0,0.0,0.0,0.0,0.0,0.0,0.0,0.0,0.0,0.0,0.0,0.0,0.0,0.0,0.0,0.0,0.0,0.0,0.0,0.0,0.0,0.0,0.0,0.0,0.0,0.0,0.0,0.0,0.0,0.0,0.0,0.0,0.0,0.0,0.0,0.0,0.0,0.0,0.0,0.0,0.0,0.0,0.0,-0.4998,0.0,0.0,0.0,0.0,0.0,0.0,0.0,0.0,0.0,0.0,0.0,0.0,0.0,0.0,0.0,0.0,0.0,0.0,0.0,0.0,0.0,0.0,0.0,0.0,0.0,0.0,0.0,0.0,0.0,0.0,0.0,0.0,0.0,0.0,0.0,0.0,0.0,0.0,0.0,0.0,0.0,0.0,0.0,0.0,0.0,0.0,0.0,0.0,0.0,0.0,0.0,0.0,0.0,0.0,0.0,0.0,0.0,0.0,0.0,0.0,0.0,0.0,0.0,0.0,0.0,0.0,0.0,0.0,0.0,0.0,0.0,0.0,0.0,0.0,0.0,0.0,0.0,0.0,0.0,0.0,0.0,0.0,0.0,0.0,0.0,0.0,0.0,0.0,0.0,0.0,0.0,0.0,0.0,0.0,0.0,0.0,0.0,0.0,0.0,0.0,0.0,0.0,0.0,0.0,0.0,0.0,0.0,0.0,0.0,0.0,-0.5089,-0.5099,-0.507,-0.504,-0.4998,0.0,0.0,0.0,0.0,0.0,0.0,0.0,0.0,0.0,0.0,0.0,0.0,0.0,0.0,0.0,0.0,0.0,0.0,0.0,0.0,0.0,0.0,0.0,0.0,0.0,0.0,0.0,0.0,0.0,0.0,0.0,0.0,0.0,0.0,0.0,0.0,0.0,0.0,0.0,0.0,0.0,0.0,0.0,0.0,0.0,0.0,0.0,0.0,0.0,0.0,0.0,0.0,0.0,0.0,0.0,0.0,0.0,0.0,0.0,0.0,0.0,0.0,0.0,0.0,0.0,0.0,0.0,0.0,0.0,0.0,0.0,0.0,0.0,0.0,0.0,0.0,0.0,0.0,0.0,0.0,0.0,0.0,0.0,0.0,0.0,0.0,0.0,0.0,0.0,0.0,0.0,0.0,0.0,0.0,0.0,0.0,0.0,0.0,0.0,0.0,0.0,0.0,0.0,0.0,0.0,0.0,0.0,0.0,0.0,0.0,0.0,0.0,-0.5099,-0.5066,-0.4993,0.0,0.0,0.0,0.0,0.0,0.0,0.0,0.0,0.0,0.0,0.0,0.0,0.0,0.0,0.0,0.0,0.0,0.0,0.0,0.0,0.0,0.0,0.0,0.0,0.0,0.0,0.0,0.0,0.0,0.0,0.0,0.0,0.0,0.0,0.0,0.0,0.0,0.0,0.0,0.0,0.0,0.0,0.0,0.0,0.0,0.0,0.0,0.0,0.0,0.0,0.0,0.0,0.0,0.0,0.0,0.0,0.0,0.0,0.0,0.0,0.0,0.0,0.0,0.0,0.0,0.0,0.0,0.0,0.0,0.0,0.0,0.0,0.0,0.0,0.0,0.0,0.0,0.0,0.0,0.0,0.0,0.0,0.0,0.0,0.0,0.0,0.0,0.0,0.0,0.0,0.0,0.0,0.0,0.0,0.0,0.0,0.0,0.0,0.0,0.0,0.0,0.0,0.0,0.0,0.0,0.0,0.0,0.0,0.0,0.0,-0.5103,-0.5095,-0.5101,0.0,-0.4945,0.0,0.0,0.0,0.0,0.0,0.0,0.0,0.0,0.0,0.0,0.0,0.0,0.0,0.0,0.0,0.0,0.0,0.0,0.0,0.0,0.0,0.0,0.0,0.0,0.0,0.0,0.0,0.0,0.0,0.0,0.0,0.0,0.0,0.0,0.0,0.0,0.0,0.0,0.0,0.0,0.0,0.0,0.0,0.0,0.0,0.0,0.0,0.0,0.0,0.0,0.0,0.0,0.0,0.0,0.0,0.0,0.0,0.0,0.0,0.0,0.0,0.0,0.0,0.0,0.0,0.0,0.0,0.0,0.0,0.0,0.0,0.0,0.0,0.0,0.0,0.0,0.0,0.0,0.0,0.0,0.0,0.0,0.0,0.0,0.0,0.0,0.0,0.0,0.0,0.0,0.0,0.0,0.0,0.0,0.0,0.0,0.0,0.0,0.0,0.0,0.0,0.0,0.0,0.0,0.0,0.0,0.0,0.0,0.0,0.0,-0.5104,-0.5095,-0.5565,-0.5549,0.0,0.0,0.0,0.0,0.0,0.0,0.0,0.0,0.0,0.0,0.0,0.0,0.0,0.0,0.0,0.0,0.0,0.0,0.0,0.0,0.0,0.0,0.0,0.0,0.0,0.0,0.0,0.0,0.0,0.0,0.0,0.0,0.0,0.0,0.0,0.0,0.0,0.0,0.0,0.0,0.0,0.0,0.0,0.0,0.0,0.0,0.0,0.0,0.0,0.0,0.0,0.0,0.0,0.0,0.0,0.0,0.0,0.0,0.0,0.0,0.0,0.0,0.0,0.0,0.0,0.0,0.0,0.0,0.0,0.0,0.0,0.0,0.0,0.0,0.0,0.0,0.0,0.0,0.0,0.0,0.0,0.0,0.0,0.0,0.0,0.0,0.0,0.0,0.0,0.0,0.0,0.0,0.0,0.0,0.0,0.0,0.0,0.0,0.0,0.0,0.0,0.0,0.0,0.0,0.0,0.0,0.0,0.0,0.0,0.0,-0.5433,-0.554,-0.5794,-0.6329,-0.6407,-0.5931,0.0,0.0,0.0,0.0,0.0,0.0,0.0,0.0,0.0,0.0,0.0,0.0,0.0,0.0,0.0,0.0,0.0,0.0,0.0,0.0,0.0,0.0,0.0,0.0,0.0,0.0,0.0,0.0,0.0,0.0,0.0,0.0,0.0,0.0,0.0,0.0,0.0,0.0,0.0,0.0,0.0,0.0,0.0,0.0,0.0,0.0,0.0,0.0,0.0,0.0,0.0,0.0,0.0,0.0,0.0,0.0,0.0,0.0,0.0,0.0,0.0,0.0,0.0,0.0,0.0,0.0,0.0,0.0,0.0,0.0,0.0,0.0,0.0,0.0,0.0,0.0,0.0,0.0,0.0,0.0,0.0,0.0,0.0,0.0,0.0,0.0,0.0,0.0,0.0,0.0,0.0,0.0,0.0,0.0,0.0,0.0,0.0,0.0,0.0,0.0,0.0,0.0,0.0,0.0,0.0,0.0,0.0,0.0,-0.6305,-0.6274,-0.6641,-0.7397,-0.7444,-0.7669,0.0,0.0,0.0,0.0,0.0,0.0,0.0,0.0,0.0,0.0,0.0,0.0,0.0,0.0,0.0,0.0,0.0,0.0,0.0,0.0,0.0,0.0,0.0,0.0,0.0,0.0,0.0,0.0,0.0,0.0,0.0,0.0,0.0,0.0,0.0,0.0,0.0,0.0,0.0,0.0,0.0,0.0,0.0,0.0,0.0,0.0,0.0,0.0,0.0,0.0,0.0,0.0,0.0,0.0,0.0,0.0,0.0,0.0,0.0,0.0,0.0,0.0,0.0,0.0,0.0,0.0,0.0,0.0,0.0,0.0,0.0,0.0,0.0,0.0,0.0,0.0,0.0,0.0,0.0,0.0,0.0,0.0,0.0,0.0,0.0,0.0,0.0,0.0,0.0,0.0,0.0,0.0,0.0,0.0,0.0,0.0,0.0,0.0,0.0,0.0,0.0,0.0,0.0,0.0,0.0,0.0,0.0,0.0,0.0,-0.6276,-0.6316,-0.6447,-0.6747,-0.6702,-0.6757,0.0,0.0,0.0,0.0,0.0,0.0,0.0,0.0,0.0,0.0,0.0,0.0,0.0,0.0,0.0,0.0,0.0,0.0,0.0,0.0,0.0,0.0,0.0,0.0,0.0,0.0,0.0,0.0,0.0,0.0,0.0,0.0,0.0,0.0,0.0,0.0,0.0,0.0,0.0,0.0,0.0,0.0,0.0,0.0,0.0,0.0,0.0,0.0,0.0,0.0,0.0,0.0,0.0,0.0,0.0,0.0,0.0,0.0,0.0,0.0,0.0,0.0,0.0,0.0,0.0,0.0,0.0,0.0,0.0,0.0,0.0,0.0,0.0,0.0,0.0,0.0,0.0,0.0,0.0,0.0,0.0,0.0,0.0,0.0,0.0,0.0,0.0,0.0,0.0,0.0,0.0,0.0,0.0,0.0,0.0,0.0,0.0,0.0,0.0,0.0,0.0,0.0,0.0,0.0,0.0,0.0,0.0,0.0,0.0,-0.6273,0.0,-0.6973,0.0,-0.664,-0.6622,0.0,0.0,0.0,0.0,0.0,0.0,0.0,0.0,0.0,0.0,0.0,0.0,0.0,0.0,0.0,0.0,0.0,0.0,0.0,0.0,0.0,0.0,0.0,0.0,0.0,0.0,0.0,0.0,0.0,0.0,0.0,0.0,0.0,0.0,0.0,0.0,0.0,0.0,0.0,0.0,0.0,0.0,0.0,0.0,0.0,0.0,0.0,0.0,0.0,0.0,0.0,0.0,0.0,0.0,0.0,0.0,0.0,0.0,0.0,0.0,0.0,0.0,0.0,0.0,0.0,0.0,0.0,0.0,0.0,0.0,0.0,0.0,0.0,0.0,0.0,0.0,0.0,0.0,0.0,0.0,0.0,0.0,0.0,0.0,0.0,0.0,0.0,0.0,0.0,0.0,0.0,0.0,0.0,0.0,0.0,0.0,0.0,0.0,0.0,0.0,0.0,0.0,0.0,0.0,0.0,0.0,0.0,0.0,-0.554,-0.6332,-0.7913,-0.8297,-0.7521,-0.7412,-0.7442,0.0,0.0,0.0,0.0,0.0,0.0,0.0,0.0,0.0,0.0,0.0,0.0,0.0,0.0,0.0,0.0,0.0,0.0,0.0,0.0,0.0,0.0,0.0,0.0,0.0,0.0,0.0,0.0,0.0,0.0,0.0,0.0,0.0,0.0,0.0,0.0,0.0,0.0,0.0,0.0,0.0,0.0,0.0,0.0,0.0,0.0,0.0,0.0,0.0,0.0,0.0,0.0,0.0,0.0,0.0,0.0,0.0,0.0,0.0,0.0,0.0,0.0,0.0,0.0,0.0,0.0,0.0,0.0,0.0,0.0,0.0,0.0,0.0,0.0,0.0,0.0,0.0,0.0,0.0,0.0,0.0,0.0,0.0,0.0,0.0,0.0,0.0,0.0,0.0,0.0,0.0,0.0,0.0,0.0,0.0,0.0,0.0,0.0,0.0,0.0,0.0,0.0,0.0,0.0,0.0,0.0,0.0,0.0,0.0,-0.7141,-0.8168,-0.8315,-0.7467,-0.6854,-0.6569,0.0,0.0,0.0,0.0,0.0,0.0,0.0,0.0,0.0,0.0,0.0,0.0,0.0,0.0,0.0,0.0,0.0,0.0,0.0,0.0,0.0,0.0,0.0,0.0,0.0,0.0,0.0,0.0,0.0,0.0,0.0,0.0,0.0,0.0,0.0,0.0,0.0,0.0,0.0,0.0,0.0,0.0,0.0,0.0,0.0,0.0,0.0,0.0,0.0,0.0,0.0,0.0,0.0,0.0,0.0,0.0,0.0,0.0,0.0,0.0,0.0,0.0,0.0,0.0,0.0,0.0,0.0,0.0,0.0,0.0,0.0,0.0,0.0,0.0,0.0,0.0,0.0,0.0,0.0,0.0,0.0,0.0,0.0,0.0,0.0,0.0,0.0,0.0,0.0,0.0,0.0,0.0,0.0,0.0,0.0,0.0,0.0,0.0,0.0,0.0,0.0,0.0,0.0,0.0,0.0,0.0,0.0,0.0,0.0,-0.8312,-0.8529,-0.8395,-0.7813,-0.6668,-0.6112,-0.6157,0.0,0.0,0.0,0.0,0.0,0.0,0.0,0.0,0.0,0.0,0.0,0.0,0.0,0.0,0.0,0.0,0.0,0.0,0.0,0.0,0.0,0.0,0.0,0.0,0.0,0.0,0.0,0.0,0.0,0.0,0.0,0.0,0.0,0.0,0.0,0.0,0.0,0.0,0.0,0.0,0.0,0.0,0.0,0.0,0.0,0.0,0.0,0.0,0.0,0.0,0.0,0.0,0.0,0.0,0.0,0.0,0.0,0.0,0.0,0.0,0.0,0.0,0.0,0.0,0.0,0.0,0.0,0.0,0.0,0.0,0.0,0.0,0.0,0.0,0.0,0.0,0.0,0.0,0.0,0.0,0.0,0.0,0.0,0.0,0.0,0.0,0.0,0.0,0.0,0.0,0.0,0.0,0.0,0.0,0.0,0.0,0.0,0.0,0.0,0.0,0.0,0.0,0.0,0.0,0.0,0.0,0.0,0.0,-0.9684,-0.9082,-0.8761,-0.8635,-0.709,-0.6172,0.0,0.0,0.0,0.0,0.0,0.0,0.0,0.0,0.0,0.0,0.0,0.0,0.0,0.0,0.0,0.0,0.0,0.0,0.0,0.0,0.0,0.0,0.0,0.0,0.0,0.0,0.0,0.0,0.0,0.0,0.0,0.0,0.0,0.0,0.0,0.0,0.0,0.0,0.0,0.0,0.0,0.0,0.0,0.0,0.0,0.0,0.0,0.0,0.0,0.0,0.0,0.0,0.0,0.0,0.0,0.0,0.0,0.0,0.0,0.0,0.0,0.0,0.0,0.0,0.0,0.0,0.0,0.0,0.0,0.0,0.0,0.0,0.0,0.0,0.0,0.0,0.0,0.0,0.0,0.0,0.0,0.0,0.0,0.0,0.0,0.0,0.0,0.0,0.0,0.0,0.0,0.0,0.0,0.0,0.0,0.0,0.0,0.0,0.0,0.0,0.0,0.0,0.0,0.0,0.0,0.0,0.0,0.0,0.0,-0.9586,-1.0448,-1.0675,-1.0206,-0.921,-0.7849,0.0,0.0,0.0,0.0,0.0,0.0,0.0,0.0,0.0,0.0,0.0,0.0,0.0,0.0,0.0,0.0,0.0,0.0,0.0,0.0,0.0,0.0,0.0,0.0,0.0,0.0,0.0,0.0,0.0,0.0,0.0,0.0,0.0,0.0,0.0,0.0,0.0,0.0,0.0,0.0,0.0,0.0,0.0,0.0,0.0,0.0,0.0,0.0,0.0,0.0,0.0,0.0,0.0,0.0,0.0,0.0,0.0,0.0,0.0,0.0,0.0,0.0,0.0,0.0,0.0,0.0,0.0,0.0,0.0,0.0,0.0,0.0,0.0,0.0,0.0,0.0,0.0,0.0,0.0,0.0,0.0,0.0,0.0,0.0,0.0,0.0,0.0,0.0,0.0,0.0,0.0,0.0,0.0,0.0,0.0,0.0,0.0,0.0,0.0,0.0,0.0,0.0,0.0,0.0,0.0,0.0,0.0,0.0,-0.8832,-1.0005,-1.1665,-1.2398,-1.2118,-1.0412,-0.8577,0.0,0.0,0.0,0.0,0.0,0.0,0.0,0.0,0.0,0.0,0.0,0.0,0.0,0.0,0.0,0.0,0.0,0.0,0.0,0.0,0.0,0.0,0.0,0.0,0.0,0.0,0.0,0.0,0.0,0.0,0.0,0.0,0.0,0.0,0.0,0.0,0.0,0.0,0.0,0.0,0.0,0.0,0.0,0.0,0.0,0.0,0.0,0.0,0.0,0.0,0.0,0.0,0.0,0.0,0.0,0.0,0.0,0.0,0.0,0.0,0.0,0.0,0.0,0.0,0.0,0.0,0.0,0.0,0.0,0.0,0.0,0.0,0.0,0.0,0.0,0.0,0.0,0.0,0.0,0.0,0.0,0.0,0.0,0.0,0.0,0.0,0.0,0.0,0.0,0.0,0.0,0.0,0.0,0.0,0.0,0.0,0.0,0.0,0.0,0.0,0.0,0.0,0.0,0.0,0.0,0.0,0.0,0.0,-0.911,-1.0693,-1.2647,-1.3711,-1.3693,-1.1157,-0.8982,0.0,0.0,0.0,0.0,0.0,0.0,0.0,0.0,0.0,0.0,0.0,0.0,0.0,0.0,0.0,0.0,0.0,0.0,0.0,0.0,0.0,0.0,0.0,0.0,0.0,0.0,0.0,0.0,0.0,0.0,0.0,0.0,0.0,0.0,0.0,0.0,0.0,0.0,0.0,0.0,0.0,0.0,0.0,0.0,0.0,0.0,0.0,0.0,0.0,0.0,0.0,0.0,0.0,0.0,0.0,0.0,0.0,0.0,0.0,0.0,0.0,0.0,0.0,0.0,0.0,0.0,0.0,0.0,0.0,0.0,0.0,0.0,0.0,0.0,0.0,0.0,0.0,0.0,0.0,0.0,0.0,0.0,0.0,0.0,0.0,0.0,0.0,0.0,0.0,0.0,0.0,0.0,0.0,0.0,0.0,0.0,0.0,0.0,0.0,0.0,0.0,0.0,0.0,0.0,0.0,0.0,0.0,0.0,-0.9951,-1.1433,-1.2774,-1.3254,-1.2805,-1.2336,-1.1072,0.0,0.0,0.0,0.0,0.0,0.0,0.0,0.0,0.0,0.0,0.0,0.0,0.0,0.0,0.0,0.0,0.0,0.0,0.0,0.0,0.0,0.0,0.0,0.0,0.0,0.0,0.0,0.0,0.0,0.0,0.0,0.0,0.0,0.0,0.0,0.0,0.0,0.0,0.0,0.0,0.0,0.0,0.0,0.0,0.0,0.0,0.0,0.0,-0.2471,0.0,0.0,0.0,0.0,0.0,0.0,0.0,0.0,0.0,0.0,0.0,0.0,0.0,0.0,0.0,0.0,0.0,0.0,0.0,0.0,0.0,0.0,0.0,0.0,0.0,0.0,0.0,0.0,0.0,0.0,0.0,0.0,0.0,0.0,0.0,0.0,0.0,0.0,0.0,0.0,0.0,0.0,0.0,0.0,0.0,0.0,0.0,0.0,0.0,0.0,0.0,0.0,0.0,0.0,0.0,0.0,0.0,0.0,0.0,-1.0276,-0.9293,-1.0252,-1.0689,-1.0491,-1.0524,-0.9988,0.0,0.0,0.0,0.0,0.0,0.0,0.0,0.0,0.0,0.0,0.0,0.0,0.0,0.0,0.0,0.0,0.0,0.0,0.0,0.0,0.0,0.0,0.0,0.0,0.0,0.0,0.0,0.0,0.0,0.0,0.0,0.0,0.0,0.0,0.0,0.0,0.0,0.0,0.0,0.0,0.0,0.0,0.0,0.0,0.0,0.0,0.0,0.0,0.0,0.0,0.0,0.0,0.0,0.0,0.0,0.0,0.0,0.0,0.0,0.0,0.0,0.0,0.0,0.0,0.0,0.0,0.0,0.0,0.0,0.0,0.0,0.0,0.0,0.0,0.0,0.0,0.0,0.0,0.0,0.0,0.0,0.0,0.0,0.0,0.0,0.0,0.0,0.0,0.0,0.0,0.0,0.0,0.0,0.0,0.0,0.0,0.0,0.0,0.0,0.0,0.0,0.0,0.0,0.0,0.0,0.0,0.0,-0.9759,-0.9966,-0.7147,-0.7158,-0.7574,-0.823,-0.7981,-0.7856,-0.7907,0.0,0.0,0.0,0.0,0.0,0.0,0.0,0.0,0.0,0.0,0.0,0.0,0.0,0.0,0.0,0.0,0.0,0.0,0.0,0.0,0.0,0.0,0.0,0.0,0.0,0.0,0.0,0.0,0.0,0.0,0.0,0.0,0.0,0.0,0.0,0.0,0.0,0.0,-0.2807,-0.3079,0.0,0.0,0.0,0.0,0.0,0.0,0.0,0.0,-0.2379,0.0,0.0,0.0,0.0,0.0,0.0,0.0,0.0,0.0,0.0,0.0,0.0,0.0,0.0,0.0,0.0,0.0,0.0,0.0,0.0,0.0,0.0,0.0,0.0,0.0,0.0,0.0,0.0,0.0,0.0,0.0,0.0,0.0,0.0,0.0,0.0,0.0,0.0,0.0,0.0,0.0,0.0,0.0,0.0,0.0,0.0,0.0,0.0,0.0,0.0,0.0,0.0,0.0,0.0,0.0,0.0,-0.9056,-0.8222,-0.831,-0.9422,-0.6145,-0.5728,-0.8373,-0.7636,-0.7127,-0.6981,0.0,0.0,0.0,0.0,0.0,0.0,0.0,0.0,0.0,0.0,0.0,0.0,0.0,0.0,0.0,0.0,0.0,0.0,0.0,0.0,0.0,0.0,0.0,0.0,0.0,0.0,0.0,0.0,0.0,0.0,0.0,0.0,0.0,0.0,0.0,0.0,0.0,0.0,0.0,-0.335,-0.3926,0.0,0.0,0.0,0.0,0.0,0.0,0.0,0.0,-0.2243,0.0,0.0,0.0,0.0,0.0,0.0,0.0,0.0,0.0,0.0,0.0,0.0,0.0,0.0,0.0,0.0,0.0,0.0,0.0,0.0,0.0,0.0,0.0,0.0,0.0,0.0,0.0,0.0,0.0,0.0,0.0,0.0,0.0,0.0,0.0,0.0,0.0,0.0,0.0,0.0,0.0,0.0,0.0,0.0,0.0,0.0,0.0,0.0,0.0,0.0,0.0,0.0,0.0,0.0,0.0,-0.885,-0.7638,-0.7057,-0.7238,-0.4975,-0.4482,-0.592,-0.5236,-0.5097,0.0,0.0,0.0,0.0,0.0,0.0,0.0,0.0,0.0,0.0,0.0,0.0,0.0,0.0,0.0,0.0,0.0,0.0,0.0,0.0,0.0,0.0,0.0,0.0,0.0,0.0,0.0,0.0,0.0,0.0,0.0,0.0,0.0,0.0,0.0,0.0,0.0,0.0,0.0,0.0,-0.3555,-0.4193,-0.4284,0.0,0.0,0.0,0.0,0.0,0.0,-0.3439,-0.346,0.0,0.0,0.0,0.0,0.0,0.0,0.0,0.0,0.0,0.0,0.0,0.0,0.0,0.0,0.0,0.0,0.0,0.0,0.0,0.0,0.0,0.0,0.0,0.0,0.0,0.0,0.0,0.0,0.0,0.0,0.0,0.0,0.0,0.0,0.0,0.0,0.0,0.0,0.0,0.0,0.0,0.0,0.0,0.0,0.0,0.0,0.0,0.0,0.0,0.0,0.0,0.0,0.0,0.0,0.0,-0.812,-0.7402,-0.6359,-0.5021,-0.4244,-0.3861,-0.3842,-0.3271,-0.3505,0.0,0.0,0.0,0.0,0.0,0.0,0.0,0.0,0.0,0.0,0.0,0.0,0.0,0.0,0.0,0.0,0.0,0.0,0.0,0.0,0.0,0.0,0.0,0.0,0.0,0.0,0.0,0.0,0.0,0.0,0.0,0.0,0.0,0.0,0.0,0.0,0.0,0.0,0.0,0.0,0.0,-0.4565,-0.4741,-0.4899,0.0,0.0,0.0,0.0,-0.441,-0.4573,0.0,0.0,0.0,0.0,0.0,0.0,0.0,0.0,0.0,0.0,0.0,0.0,0.0,0.0,0.0,0.0,0.0,0.0,0.0,0.0,0.0,0.0,0.0,0.0,0.0,0.0,0.0,0.0,0.0,0.0,0.0,0.0,0.0,0.0,0.0,0.0,0.0,0.0,0.0,0.0,0.0,0.0,0.0,0.0,0.0,0.0,0.0,0.0,0.0,0.0,0.0,0.0,0.0,0.0,0.0,0.0,-0.7577,-0.7192,-0.667,-0.5916,-0.4715,-0.4259,-0.4626,-0.3917,-0.3958,0.0,0.0,0.0,0.0,0.0,0.0,0.0,0.0,0.0,0.0,0.0,0.0,0.0,0.0,0.0,0.0,0.0,0.0,0.0,0.0,0.0,0.0,0.0,0.0,0.0,0.0,0.0,0.0,0.0,0.0,0.0,0.0,0.0,0.0,0.0,0.0,0.0,0.0,0.0,0.0,0.0,-0.537,-0.7715,-0.6097,-0.4768,0.0,0.0,-0.5553,-0.6094,-0.6237,0.0,0.0,0.0,0.0,0.0,0.0,0.0,0.0,0.0,0.0,0.0,0.0,0.0,0.0,0.0,0.0,0.0,0.0,0.0,0.0,0.0,0.0,0.0,0.0,0.0,0.0,0.0,0.0,0.0,0.0,0.0,0.0,0.0,0.0,0.0,0.0,0.0,0.0,0.0,0.0,0.0,0.0,0.0,0.0,0.0,0.0,0.0,0.0,0.0,0.0,0.0,0.0,0.0,0.0,0.0,-0.9002,-0.878,-0.9358,-0.8849,-0.718,-0.6588,-0.5774,-0.4658,-0.4134,-0.4446,0.0,0.0,0.0,0.0,0.0,0.0,0.0,0.0,0.0,0.0,0.0,0.0,0.0,0.0,0.0,0.0,0.0,0.0,0.0,0.0,0.0,0.0,0.0,0.0,0.0,0.0,0.0,0.0,0.0,0.0,0.0,0.0,0.0,0.0,0.0,0.0,0.0,0.0,0.0,0.0,0.0,0.0,-0.8279,-0.6827,0.0,0.0,0.0,-0.616,-0.6717,0.0,0.0,0.0,0.0,0.0,0.0,0.0,0.0,0.0,0.0,0.0,0.0,0.0,0.0,0.0,0.0,0.0,0.0,0.0,0.0,0.0,0.0,0.0,0.0,0.0,0.0,0.0,0.0,0.0,0.0,0.0,0.0,0.0,0.0,0.0,0.0,0.0,0.0,0.0,0.0,0.0,0.0,0.0,0.0,0.0,0.0,0.0,0.0,0.0,0.0,0.0,0.0,0.0,0.0,0.0,0.0,0.0,-0.892,-1.096,-1.0606,-0.7711,-0.7606,-0.6672,-0.4777,-0.4382,0.0,0.0,0.0,0.0,0.0,0.0,0.0,0.0,0.0,0.0,0.0,0.0,0.0,0.0,0.0,0.0,0.0,0.0,0.0,0.0,0.0,0.0,0.0,0.0,0.0,0.0,0.0,-0.062,0.0,0.0,0.0,0.0,0.0,0.0,0.0,0.0,0.0,0.0,0.0,0.0,0.0,0.0,-0.6191,-0.8312,-0.7381,-0.6254,0.0,0.0,-0.6586,-0.6782,-0.6914,-0.6649,0.0,0.0,0.0,0.0,0.0,0.0,0.0,0.0,0.0,0.0,0.0,0.0,0.0,0.0,0.0,0.0,0.0,0.0,0.0,0.0,0.0,0.0,0.0,0.0,0.0,0.0,0.0,0.0,0.0,0.0,0.0,0.0,0.0,0.0,0.0,0.0,0.0,0.0,0.0,0.0,0.0,0.0,0.0,0.0,0.0,0.0,0.0,0.0,0.0,0.0,0.0,0.0,0.0,0.0,0.0,-0.6852,-1.0835,-1.0968,-0.6962,-0.6597,-0.61,-0.528,-0.4814,-0.5094,0.0,0.0,0.0,0.0,0.0,0.0,0.0,0.0,0.0,0.0,0.0,0.0,0.0,0.0,0.0,0.0,0.0,0.0,0.0,0.0,0.0,0.0,0.0,0.0,0.0,0.0,0.0,0.0,0.0,0.0,0.0,0.0,0.0,0.0,0.0,0.0,0.0,0.0,0.0,0.0,0.0,-0.6244,-0.8301,-0.7801,-0.7125,0.0,0.0,-0.6728,-0.6308,-0.7282,-0.7224,-0.4731,0.0,0.0,0.0,0.0,0.0,0.0,0.0,0.0,0.0,0.0,0.0,0.0,0.0,0.0,0.0,0.0,0.0,0.0,0.0,0.0,0.0,0.0,0.0,0.0,0.0,0.0,0.0,0.0,0.0,0.0,0.0,0.0,0.0,0.0,0.0,0.0,0.0,0.0,0.0,0.0,0.0,0.0,0.0,0.0,0.0,0.0,0.0,0.0,0.0,0.0,0.0,0.0,0.0,-0.9151,-0.6926,-1.0605,-1.0698,-0.708,-0.6967,-0.6362,-0.5009,-0.4837,-0.5479,0.0,0.0,0.0,0.0,0.0,0.0,0.0,0.0,0.0,0.0,0.0,0.0,0.0,0.0,0.0,0.0,0.0,0.0,0.0,0.0,0.0,0.0,0.0,0.0,0.0,0.0,0.0,0.0,-0.2559,-0.246,-0.212,0.0,0.0,0.0,0.0,0.0,0.0,0.0,0.0,0.0,0.0,-0.6495,-0.8344,-0.7773,0.0,0.0,-0.7451,-0.6808,-0.6373,-0.6763,-0.6469,-0.4621,-0.4751,0.0,0.0,0.0,0.0,0.0,0.0,0.0,0.0,0.0,0.0,0.0,0.0,0.0,0.0,0.0,0.0,0.0,0.0,0.0,0.0,0.0,0.0,0.0,0.0,0.0,0.0,0.0,0.0,0.0,0.0,0.0,0.0,0.0,0.0,0.0,0.0,0.0,0.0,0.0,0.0,0.0,0.0,0.0,0.0,0.0,0.0,0.0,0.0,0.0,0.0,0.0,0.0,-0.8851,-0.6788,-0.9961,-1.0028,-0.6826,-0.6952,-0.6361,-0.4999,-0.4998,-0.5664,0.0,0.0,0.0,0.0,0.0,0.0,0.0,0.0,0.0,0.0,0.0,0.0,0.0,0.0,0.0,0.0,0.0,0.0,0.0,0.0,0.0,0.0,0.0,0.0,0.0,0.0,0.0,0.0,-0.306,-0.244,-0.2177,0.0,0.0,0.0,0.0,0.0,0.0,0.0,0.0,0.0,0.0,-0.691,-0.8289,-0.8106,-0.8094,-0.8826,-0.8166,-0.7414,-0.6996,-0.671,-0.6191,-0.5208,0.0,0.0,0.0,0.0,0.0,0.0,0.0,0.0,0.0,0.0,0.0,0.0,0.0,0.0,0.0,0.0,0.0,0.0,0.0,0.0,0.0,0.0,0.0,0.0,0.0,0.0,0.0,0.0,0.0,0.0,-0.5018,0.0,0.0,0.0,0.0,0.0,0.0,0.0,0.0,0.0,0.0,0.0,0.0,0.0,0.0,0.0,0.0,0.0,0.0,0.0,0.0,0.0,0.0,-0.7958,-0.6014,-0.8791,-0.8941,-0.6315,-0.6196,-0.5916,-0.5295,-0.529,-0.5515,-0.5971,0.0,0.0,0.0,0.0,0.0,0.0,0.0,0.0,0.0,0.0,0.0,0.0,0.0,0.0,0.0,0.0,0.0,0.0,0.0,0.0,0.0,0.0,0.0,0.0,0.0,0.0,-0.6666,-0.4264,-0.2362,0.0,0.0,0.0,0.0,0.0,0.0,0.0,0.0,0.0,0.0,-0.5738,-0.7564,-0.8156,-0.8901,-0.9282,-0.9279,-0.9023,-0.8682,-0.8186,-0.7439,-0.6824,0.0,0.0,0.0,0.0,0.0,0.0,0.0,0.0,0.0,0.0,0.0,0.0,0.0,0.0,0.0,0.0,0.0,0.0,0.0,0.0,0.0,0.0,0.0,0.0,0.0,0.0,0.0,-0.6999,-0.765,0.0,0.0,0.0,0.0,0.0,0.0,0.0,0.0,0.0,0.0,0.0,-1.264,-1.3048,0.0,0.0,0.0,0.0,0.0,0.0,0.0,0.0,0.0,0.0,0.0,0.0,-0.8276,-0.5525,-0.8435,-0.8497,-0.5398,-0.5477,-0.5388,-0.4975,-0.518,-0.56,-0.622,0.0,0.0,0.0,0.0,0.0,0.0,0.0,0.0,0.0,0.0,0.0,0.0,0.0,0.0,0.0,0.0,0.0,0.0,0.0,0.0,0.0,0.0,0.0,0.0,0.0,-0.3947,0.0,0.0,0.0,0.0,0.0,0.0,0.0,0.0,0.0,0.0,0.0,-0.4365,-0.4547,-0.5701,-0.7379,-0.9654,-0.8805,-0.8242,0.0,0.0,0.0,0.0,0.0,0.0,0.0,0.0,0.0,0.0,0.0,0.0,0.0,0.0,-0.614,-0.3876,-0.4645,-0.6251,-0.818,0.0,0.0,0.0,0.0,0.0,0.0,0.0,0.0,0.0,0.0,0.0,0.0,0.0,0.0,-0.8708,0.0,-0.9129,0.0,0.0,0.0,0.0,0.0,0.0,0.0,0.0,-1.3122,-1.436,-1.5236,-1.5628,-1.5554,0.0,-1.4974,-1.327,0.0,0.0,0.0,0.0,0.0,0.0,0.0,0.0,-0.8738,-0.6361,-0.9199,-0.9171,-0.5941,-0.6082,-0.5891,-0.5179,-0.5352,-0.5995,-0.7128,-0.7881,-0.8494,0.0,0.0,0.0,0.0,0.0,0.0,0.0,0.0,0.0,0.0,0.0,0.0,0.0,0.0,0.0,0.0,0.0,0.0,0.0,0.0,0.0,0.0,0.0,-0.3481,0.0,0.0,0.0,0.0,0.0,0.0,0.0,0.0,0.0,-0.4769,-0.4934,-0.5049,-0.5156,-0.6128,-0.74,-0.891,0.0,0.0,0.0,0.0,0.0,0.0,0.0,-0.9328,-0.8482,-0.7899,-0.8241,-1.0277,-1.0278,-0.9812,-0.9323,0.0,0.0,-0.5594,-0.649,-0.8615,-1.132,-1.1458,-1.0602,-0.8685,-0.802,-0.763,0.0,0.0,0.0,0.0,0.0,0.0,0.0,0.0,-1.0584,-1.0252,0.0,-1.0428,0.0,0.0,0.0,0.0,0.0,-1.0146,0.0,0.0,-1.5506,-1.6823,-1.7619,-1.7658,-1.7619,-1.7396,-1.5896,-1.5024,-1.4719,-1.3971,0.0,0.0,0.0,0.0,0.0,0.0,-0.9322,-0.8582,-1.0966,-1.0757,-0.7715,-0.7854,-0.733,-0.5899,-0.58,-0.66,-0.8365,-0.7968,-0.8061,-0.8906,-1.2623,0.0,0.0,0.0,0.0,0.0,0.0,0.0,0.0,0.0,0.0,0.0,0.0,0.0,0.0,0.0,0.0,0.0,0.0,0.0,0.0,-0.2486,0.0,0.0,0.0,0.0,0.0,0.0,0.0,0.0,0.0,0.0,-0.5123,-0.5513,-0.5738,-0.5442,0.0,0.0,0.0,0.0,-0.9308,-0.84,-0.8701,-0.9153,-0.9407,-1.0179,-1.0721,-1.0681,0.0,0.0,-1.4118,-1.2799,-1.1178,-1.0931,-1.1273,-1.0706,-0.8282,-0.8696,-1.0469,-1.3506,-1.4105,-1.3218,-1.0644,-0.9554,-0.9107,-1.1095,0.0,0.0,0.0,0.0,-1.0406,-1.1603,-1.3509,-1.3003,-1.3095,-1.3566,-1.3094,0.0,0.0,0.0,0.0,0.0,0.0,-1.4031,-1.3804,-1.6662,-1.7849,-1.76,-1.8774,-1.8688,-1.751,-1.7529,-1.6901,-1.571,-1.5836,-1.4148,-1.0733,0.0,0.0,0.0,0.0,-1.048,-1.0405,-1.1594,-1.1265,-0.9338,-0.887,-0.8063,-0.6835,-0.5827,-0.5913,-0.7201,-0.7391,-0.7947,-0.895,-1.0103,0.0,0.0,0.0,0.0,0.0,0.0,0.0,0.0,0.0,0.0,0.0,0.0,0.0,0.0,0.0,0.0,0.0,0.0,0.0,-0.3636,-0.386,-0.3911,0.0,0.0,0.0,0.0,0.0,0.0,0.0,0.0,0.0,-0.6405,-0.647,-0.6686,0.0,0.0,-0.7507,-0.7751,-0.8456,-0.9324,-1.0423,-0.9341,0.0,0.0,-1.1134,-1.1642,-1.1255,-1.1802,-1.2802,-1.42,-1.4068,-1.3557,-1.3025,-1.3417,-1.3629,-1.3147,-1.1835,-1.1793,-1.3731,-1.43,-1.3812,-1.2275,-1.1719,-1.1369,-1.2415,-1.2067,-1.1815,-1.1765,-1.1854,-1.2131,-1.3238,-1.4744,-1.3983,-1.4362,-1.5454,-1.4251,-1.3392,-1.2809,-1.1913,0.0,0.0,0.0,-1.5372,-1.544,-1.6952,-1.7614,-1.7619,-1.8563,-1.8535,-1.7574,-1.7643,-1.7291,-1.653,-1.6532,-1.5169,-1.2536,0.0,0.0,-0.995,-1.1114,-1.1951,-1.2436,-1.3474,-1.3194,-1.1512,-1.0465,-0.9438,-0.8461,-0.7609,-0.7304,-0.758,-0.7319,-0.7565,-0.843,-0.8001,-0.8179,0.0,0.0,0.0,0.0,0.0,0.0,0.0,0.0,0.0,0.0,0.0,-0.336,0.0,0.0,0.0,0.0,-0.323,-0.3805,-0.4148,-0.4395,0.0,0.0,0.0,0.0,0.0,0.0,0.0,-0.6358,-0.6809,-0.7373,-0.7842,-0.7832,-0.7958,-0.8399,-0.8191,-0.8218,-0.8712,0.0,-1.0193,-1.1977,-1.0678,-0.9879,-1.0966,-1.2032,-1.2629,-1.242,-1.3168,-1.3874,-1.4095,-1.4415,-1.4481,-1.4204,-1.4449,-1.4839,-1.4902,-1.3728,-1.3048,-1.4069,-1.43,-1.4028,-1.3274,-1.2977,-1.2693,-1.3565,-1.3446,-1.2913,-1.2648,-1.2655,-1.3311,-1.4054,-1.4727,-1.4019,-1.452,-1.5761,-1.4417,-1.3825,-1.3868,-1.3449,0.0,-1.6348,-1.5296,-1.5925,-1.7863,-1.6779,-1.6743,-1.7565,-1.7581,-1.7562,-1.7461,-1.667,-1.6569,-1.7014,-1.637,-1.556,-1.4698,-1.375,-1.2902,-1.2174,-1.2708,-1.3485,-1.4496,-1.5864,-1.5648,-1.3695,-1.2237,-1.1167,-1.0515,-1.039,-0.9929,-0.9096,-0.7727,-0.7172,-0.7598,-0.6582,-0.6483,-0.7691,0.0,0.0,0.0,0.0,0.0,0.0,0.0,0.0,0.0,0.0,0.0,0.0,0.0,0.0,0.0,-0.3874,0.0,-0.4455,-0.438,0.0,0.0,0.0,-0.551,-0.6726,-0.7483,-0.7978,-0.8182,0.0,0.0,-0.9184,-0.9278,-0.9361,-0.9414,-0.9409,-0.9344,-0.9237,-1.0226,-1.1535,-1.2871,-1.2321,-1.1774,-1.1916,-1.2756,-1.3465,-1.3585,-1.404,-1.4098,-1.3967,-1.4157,-1.4332,-1.4259,-1.4511,-1.4683,-1.4351,-1.4477,-1.4669,-1.4324,-1.43,-1.4203,-1.3875,-1.3504,-1.3324,-1.4896,-1.4418,-1.483,-1.4349,-1.3352,-1.352,-1.4054,-1.4779,-1.4606,-1.5038,-1.5883,-1.5556,-1.5471,-1.5557,-1.6146,-1.6068,-1.5582,-1.7395,-1.7495,-1.6386,-1.7431,-1.7721,-1.7396,-1.7453,-1.7166,-1.6548,-1.6322,-1.5929,-1.5452,-1.5865,-1.5589,-1.4672,-1.4917,-1.4405,-1.3119,-1.3121,-1.3901,-1.538,-1.5123,-1.4496,-1.3459,-1.1986,-1.1584,-1.2338,-1.1149,-1.0311,-0.9849,-0.8899,-0.8045,-0.7281,-0.7242,-0.7377,-0.7666,-0.7696,0.0,0.0,0.0,0.0,0.0,0.0,0.0,0.0,0.0,-0.3483,-0.2568,0.0,-0.3393,0.0,-0.4038,-0.4838,-0.5866,-0.5002,0.0,0.0,-0.6681,-0.7117,-0.7387,-0.8742,-0.9053,-0.7402,-0.8286,-0.8974,-0.8953,-0.9233,-0.9736,-1.0365,-0.9885,-0.9608,-1.016,-1.068,-1.1503,-1.2548,-1.279,-1.281,-1.2818,-1.3167,-1.3446,-1.3547,-1.3682,-1.3795,-1.3808,-1.3908,-1.404,-1.4078,-1.4144,-1.4208,-1.43,-1.4397,-1.4383,-1.4332,-1.43,-1.43,-1.4189,-1.4068,-1.406,-1.5548,-1.5207,-1.5618,-1.5345,-1.4624,-1.4658,-1.4727,-1.4796,-1.4813,-1.521,-1.5933,-1.6666,-1.69,-1.6765,-1.7241,-1.7239,-1.6976,-1.7851,-1.7509,-1.6294,-1.6634,-1.6584,-1.6213,-1.6262,-1.6261,-1.6172,-1.5805,-1.5561,-1.5466,-1.5545,-1.5283,-1.4764,-1.5123,-1.4868,-1.3994,-1.382,-1.4398,-1.5661,-1.568,-1.5314,-1.46,-1.4092,-1.3682,-1.3263,-1.2247,-1.1287,-1.0404,-0.943,-0.8591,-0.7934,-0.7755,-0.752,-0.7119,-0.6272,-0.7045,0.0,0.0,0.0,0.0,0.0,0.0,0.0,0.0,0.0,0.0,0.0,-0.5017,-0.5418,-0.5582,-0.6053,-0.6989,-0.6187,-0.6064,-0.7146,-0.8211,-0.8678,-0.8267,-0.9463,-0.9687,-0.8224,-0.8859,-0.9507,-0.9607,-0.9736,-1.0077,-1.0795,-1.0355,-1.0077,-1.051,-1.1158,-1.1924,-1.2601,-1.285,-1.3002,-1.299,-1.3116,-1.3242,-1.3357,-1.348,-1.3581,-1.3674,-1.3728,-1.3795,-1.3927,-1.3947,-1.3993,-1.4144,-1.4241,-1.43,-1.43,-1.4222,-1.4208,-1.43,-1.43,-1.43,-1.6123,-1.6003,-1.5934,-1.5868,-1.5834,-1.5992,-1.5627,-1.4917,-1.4951,-1.5349,-1.6159,-1.77,-1.81,-1.7648,-1.7631,-1.8072,-1.8777,-1.7683,-1.7133,-1.7022,-1.5755,-1.5202,-1.5243,-1.514,-1.5527,-1.627,-1.5572,-1.558,-1.6227,-1.5543,-1.5112,-1.4897,-1.4935,-1.4868,-1.4697,-1.453,-1.4811,-1.5564,-1.6469,-1.6556,-1.5884,-1.6603,-1.5968,-1.3883,-1.3375,-1.2431,-1.0831,-0.9653,-0.8953,-0.8795,-0.8069,-0.7338,-0.6538,-0.6001,-0.7222,0.0,-1.032,0.0,0.0,0.0,0.0,0.0,0.0,0.0,0.0,-0.6296,-0.7625,-0.828,-0.7739,-0.7563,-0.797,-0.7579,-0.7599,-0.8249,-0.9326,-0.9713,-0.9052,-0.9544,-0.9814,-0.9443,-0.9564,-0.988,-1.0294,-1.0241,-1.0236,-1.0629,-1.0531,-1.042,-1.0631,-1.1411,-1.2166,-1.2496,-1.2591,-1.2639,-1.2745,-1.2873,-1.3035,-1.3198,-1.3335,-1.3446,-1.3493,-1.3547,-1.3628,-1.3808,-1.3841,-1.3894,-1.398,-1.4124,-1.4235,-1.4189,-1.4078,-1.4046,-1.4222,-1.4268,-1.4254,-1.7807,-1.7188,-1.655,-1.5946,-1.5447,-1.6132,-1.6131,-1.5692,-1.5693,-1.6126,-1.6962,-1.8217,-1.8663,-1.8428,-1.8714,-1.8608,-1.8213,-1.8808,-1.8707,-1.8022,-1.7733,-1.7628,-1.7603,-1.7037,-1.6806,-1.6922,-1.6876,-1.6578,-1.607,-1.6638,-1.6195,-1.4869,-1.546,-1.5431,-1.4744,0.0,0.0,0.0,-1.5175,-1.5168,-1.5047,-1.5217,-1.5123,-1.4644,-1.3961,0.0,-1.1184,-1.0256,-0.9347,-0.8384,-0.7819,0.0,0.0,0.0,0.0,0.0,0.0,0.0,0.0,0.0,0.0,0.0,-0.7372,-0.6539,-0.4428,-0.6572,-0.8679,-0.9991,-0.9359,-0.8901,-0.912,-0.8751,-0.8479,-0.8487,-0.8457,-0.8495,-0.8565,-0.8383,-0.8454,-0.9316,-0.9089,-0.8975,-0.9214,-0.9275,-0.9516,-1.0066,-1.0069,-1.0212,-1.0724,-1.1169,-1.1503,-1.1721,-1.2016,-1.2341,-1.2639,-1.2803,-1.2965,-1.3163,-1.3232,-1.3288,-1.3391,-1.3438,-1.3459,-1.3594,-1.3628,-1.3695,-1.3808,-1.3888,-1.3908,-1.3921,-1.3888,-1.3941,-1.4235,-1.4189,-1.4111,-1.8539,0.0,-1.7771,-1.736,0.0,-1.7876,-1.7879,-1.7274,-1.6448,-1.6308,-1.6764,-1.827,-1.8713,-1.8338,-1.8937,-1.8791,-1.8172,-1.8693,-1.8716,-1.8289,-1.79,-1.7714,-1.7714,-1.7714,-1.7938,-1.8385,-1.8385,-1.8192,-1.7847,-1.7911,-1.7082,-1.5428,-1.6196,-1.5961,-1.4744,-1.5112,-1.5328,-1.5351,-1.5793,-1.5814,-1.5431,-1.5846,-1.5508,-1.4333,-1.3869,0.0,0.0,0.0,0.0,0.0,0.0,0.0,0.0,0.0,0.0,-1.6395,-1.3746,-1.2041,-1.2032,-1.0815,-0.9767,-0.9215,-0.8508,-0.7846,-0.7193,-0.8848,-1.0578,-1.2221,-1.0965,-1.0086,-1.0334,-0.9632,-0.9018,-0.8814,-0.8608,-0.8431,-0.8157,-0.7351,-0.7169,-0.8052,-0.8163,-0.813,-0.8197,-0.8365,-0.8885,-0.9732,-0.9947,-0.9994,-1.0245,-1.1036,-1.1651,-1.1542,-1.1833,-1.2089,-1.2125,-1.252,-1.2908,-1.3129,-1.3163,-1.321,-1.3301,-1.3288,-1.3323,-1.3425,-1.3493,-1.356,-1.3741,-1.3775,-1.3775,-1.3775,-1.3775,-1.3854,-1.4007,-1.4013,-1.4,-1.9004,-1.8896,-1.8896,-1.8878,-1.895,-1.9614,-1.9488,-1.8771,0.0,0.0,0.0,-1.8386,-1.8752,-1.827,-1.9086,-1.921,-1.8744,-1.8883,-1.8957,-1.8925,-1.8128,-1.7831,-1.7985,-1.8439,-1.9161,-2.006,-1.9978,-1.9917,-1.9838,-1.9077,-1.7924,-1.6612,-1.6937,-1.6496,-1.5256,-1.593,-1.6265,-1.6168,-1.6746,-1.6712,-1.6057,-1.6715,-1.6034,-1.3881,-1.3823,-1.3451,-1.2669,-1.2826,-1.2825,-1.2618,-1.1806,-1.0992,-1.0467,-1.2857,-1.556,-1.8048,-1.5564,-1.3809,-1.3569,-1.2282,-1.1452,-1.128,-0.9872,-0.9492,-1.0718,-1.1767,-1.2974,-1.4421,-1.2541,-1.1353,-1.1491,-1.0316,-0.9362,-0.9021,-0.8979,-0.8632,-0.7698,-0.6577,-0.6191,-0.682,-0.7172,-0.7284,-0.7329,-0.7455,-0.7972,-0.9009,-0.9318,-0.9649,-0.9699,-1.0816,-1.1741,-1.1689,-1.1833,-1.187,-1.1734,-1.2233,-1.2815,-1.3129,-1.3176,-1.3163,-1.3232,-1.3267,-1.3288,-1.3425,-1.3361,-1.339,-1.3602,-1.3487,-1.3422,-1.3226,-1.3572,-1.3808,-1.3888,-1.3947,-1.398,-1.9855,-1.9235,-1.923,-1.9227,-1.9246,-1.9337,-1.9255,-1.903,-1.8796,-1.8639,-1.8572,-1.9172,-1.9289,-1.9073,-2.0049,-2.0433,-2.0426,-2.1161,-2.1495,-2.1458,-2.0641,-2.0645,-2.1279,-2.0719,-2.0834,-2.1544,-2.1628,-2.1275,-2.0556,-1.982,-1.8973,-1.8087,-1.7448,-1.6996,-1.6848,-1.756,-1.7634,-1.6941,-1.6362,-1.6071,-1.602,-1.6113,-1.5722,-1.4794,-1.4737,-1.4348,-1.3569,-1.422,-1.4254,-1.3607,-1.486,-1.4522,-1.2213,-1.3555,-1.5187,-1.6697,-1.4306,-1.3731,-1.595,-1.405,-1.2903,-1.3261,-1.236,-1.1884,-1.2224,-1.444,-1.5782,-1.5678,-1.4069,-1.2943,-1.2487,-1.0923,-0.9518,-0.8567,-0.876,-0.8352,-0.6796,-0.6129,-0.5998,-0.6452,-0.6462,-0.6519,-0.6582,-0.6643,-0.6867,-0.7308,-0.7703,-0.8048,-0.9125,-1.0348,-1.1228,-1.1784,-1.1771,-1.1586,-1.166,-1.2294,-1.2943,-1.3163,-1.3323,-1.3391,-1.3493,-1.3493,-1.3514,-1.348,-1.3271,-1.3122,-1.3226,-1.2704,-1.2134,-1.1527,-1.2476,-1.3875,-1.4203,-1.4176,-1.4019,-2.0704,-2.0046,-2.0464,-2.0131,-1.9286,-1.9286,-2.0044,-2.1037,-1.9842,-1.8958,-1.8499,-1.9169,-1.8966,-1.8213,-1.9456,-1.98,-1.9462,-2.0738,-2.1588,-2.1962,-2.1628,-2.1646,-2.1983,-2.2041,-2.2247,-2.2619,-2.3044,-2.2821,-2.2043,-2.1275,-2.0261,-1.9024,-1.7795,-1.7814,-1.908,-1.9066,-1.9035,-1.9082,-1.8304,-1.7279,-1.5996,-1.6829,-1.6963,-1.623,-1.6605,-1.6926,-1.7004,-1.7353,-1.739,-1.7033,-1.7831,-1.7697,-1.6482,-1.6341,-1.6347,-1.6389,-1.5306,-1.5626,-1.7855,-1.6443,-1.5071,-1.4096,-1.361,-1.3848,-1.4915,-1.5672,-1.6121,-1.6014,-1.4462,-1.2962,-1.1818,-1.0439,-0.9053,-0.7679,-0.7675,-0.7337,-0.6511,-0.5998,-0.5874,-0.6029,-0.606,-0.6029,-0.6052,-0.6106,-0.6168,-0.6329,-0.6413,-0.679,-0.7453,-0.8571,-0.9944,-1.1394,-1.1844,-1.2027,-1.2136,-1.2627,-1.322,-1.3682,-1.3715,-1.3749,-1.3881,-1.3927,-1.3927,-1.3947,-1.3811,-1.3377,-1.2775,-1.2801,-1.2193,-1.111,-1.2603,-1.4214,-1.47,-1.47,-1.4465,-2.1584,-2.0868,-2.1712,-2.1308,-2.0134,-1.9947,-2.1068,-2.2721,-2.0889,-1.9604,-1.9014,-1.9553,-1.8999,-1.7905,-1.9518,-1.9907,-1.9407,-2.066,-2.181,-2.2463,-2.1999,-2.2017,-2.2518,-2.2802,-2.3044,-2.3451,-2.4044,-2.3933,-2.3154,-2.2372,-2.1176,-1.962,-1.8354,-1.8815,-2.0821,-2.0211,-2.0108,-2.0489,-2.015,-1.9005,-1.7137,-1.8286,-1.8597,-1.7947,-1.8621,-1.927,-1.9757,-2.0151,-2.0277,-2.0126,-2.0596,-2.0746,-2.0339,-1.9199,-1.7904,-1.6588,-1.6413,-1.7047,-1.8278,-1.8069,-1.6885,-1.4908,-1.4686,-1.5343,-1.6783,-1.7049,-1.6613,-1.5958,-1.4349,-1.2626,-1.1052,-0.9667,-0.8417,-0.7143,-0.6668,-0.6437,-0.6183,-0.5967,-0.5787,-0.5787,-0.5787,-0.5819,-0.5787,-0.5787,-0.5811,-0.5842,-0.5787,-0.5787,-0.5966,-0.6964,-0.8515,-0.9988,-1.1201,-1.2118,-1.2704,-1.2808,-1.3297,-1.4164,-1.4176,-1.4144,-1.4287,-1.4415,-1.4465,-1.447,-1.4415,-1.4035,-1.2927,-1.29,-1.2877,-1.1993,-1.3422,-1.4727,-1.4768,-1.4895,-1.4825,-2.2409,-2.184,-2.2575,-2.2832,-2.252,-2.1822,-2.2097,-2.285,-2.2035,-2.1625,-2.1422,-2.0945,-2.0214,-1.9769,-2.1736,-2.2256,-2.1625,-2.2553,-2.3351,-2.3832,-2.1922,-2.2105,-2.3851,-2.2794,-2.2856,-2.4007,-2.4265,-2.3877,-2.3028,-2.2305,-2.1146,-1.975,-1.9505,-1.9935,-2.0769,-2.0755,-2.0406,-1.9764,-2.06,-2.0838,-2.0401,-2.0503,-2.0238,-1.9524,-2.0265,-2.0367,-1.9994,-2.124,-2.1703,-2.1153,-2.3018,-2.3562,-2.2178,-2.1087,-1.9429,-1.7142,-1.6762,-1.6617,-1.6689,-1.7645,-1.7805,-1.6463,-1.6006,-1.6098,-1.6955,-1.8915,-1.8926,-1.6098,-1.3951,-1.2166,-1.0658,-0.9149,-0.7984,-0.717,-0.6403,-0.5874,-0.5874,-0.5819,-0.5787,-0.5787,-0.5787,-0.5787,-0.5787,-0.5787,-0.5787,-0.5787,-0.5787,-0.5787,-0.585,-0.6269,-0.688,-0.771,-0.9064,-1.1161,-1.2723,-1.2615,-1.2922,-1.4351,-1.4547,-1.4497,-1.4686,-1.4828,-1.4907,-1.5002,-1.4702,-1.4443,-1.4311,-1.379,-1.3077,-1.3746,-1.4331,-1.467,-1.4234,-1.4475,-1.4752,-2.3254,-2.2593,-2.3382,-2.3713,-2.3548,-2.2335,-2.2519,-2.3566,-2.2421,-2.2159,-2.2565,-2.2335,-2.1513,-2.0418,-2.1866,-2.2293,-2.2033,-2.233,-2.2943,-2.3628,-2.2646,-2.2516,-2.2959,-2.3423,-2.3334,-2.297,-2.3432,-2.3229,-2.249,-2.2097,-2.164,-2.1133,-2.1125,-2.1778,-2.297,-2.2604,-2.2368,-2.2505,-2.292,-2.3087,-2.2936,-2.2309,-2.1708,-2.1278,-2.1942,-2.2499,-2.2689,-2.3374,-2.3543,-2.3262,-2.4182,-2.4407,-2.375,-2.2368,-2.109,-2.0015,-1.9954,-1.9249,-1.7713,-1.9081,-1.9924,-1.9733,-1.7618,-1.6517,-1.6846,-1.779,-1.6804,-1.35,-1.1797,-1.0621,-0.9573,-0.8803,-0.7973,-0.6889,-0.6131,-0.5787,-0.5787,-0.5787,-0.5787,-0.5787,-0.5787,-0.5787,-0.5787,-0.5787,-0.5787,-0.5787,-0.5787,-0.5787,-0.5811,-0.599,-0.6106,-0.6413,-0.7592,-0.9262,-1.1186,-1.1991,-1.2528,-1.3628,-1.4688,-1.5225,-1.5165,-1.5269,-1.5374,-1.5579,-1.5397,-1.5336,-1.5577,-1.548,-1.5099,-1.5505,-1.521,-1.5108,-1.4848,-1.4991,-1.5134,-2.3731,-2.3162,-2.3639,-2.4007,-2.4062,-2.2721,-2.2922,-2.3989,-2.3047,-2.2916,-2.3416,-2.3486,-2.2908,-2.198,-2.2423,-2.246,-2.207,-2.2237,-2.2646,-2.3128,-2.2998,-2.2776,-2.281,-2.3609,-2.363,-2.2839,-2.3265,-2.3098,-2.2337,-2.2099,-2.1988,-2.1873,-2.206,-2.2839,-2.3884,-2.3441,-2.3543,-2.4155,-2.4025,-2.3957,-2.411,-2.368,-2.3048,-2.2548,-2.3273,-2.3921,-2.4339,-2.4579,-2.4673,-2.4673,-2.4673,-2.4673,-2.4636,-2.3278,-2.2293,-2.1988,-2.2044,-2.1314,-1.944,-2.0498,-2.1391,-2.1601,-1.9353,-1.7522,-1.6367,-1.5025,-1.3198,-1.1244,-0.9864,-0.9037,-0.8579,-0.8349,-0.7731,-0.6662,-0.6117,-0.5841,-0.5936,-0.5853,-0.5787,-0.5787,-0.5787,-0.5787,-0.5787,-0.5787,-0.5787,-0.5787,-0.5787,-0.5787,-0.5787,-0.5811,-0.5819,-0.5811,-0.6488,-0.7376,-0.8903,-1.0458,-1.1708,-1.3439,-1.4775,-1.5593,-1.5476,-1.5475,-1.5826,-1.5994,-1.6203,-1.6421,-1.6485,-1.6638,-1.64,-1.6222,-1.5929,-1.5497,-1.4977,-1.5281,-1.5403,-2.3731,-2.307,-2.3052,-2.3566,-2.4135,-2.3309,-2.3419,-2.421,-2.4192,-2.4247,-2.421,-2.4264,-2.4282,-2.4116,-2.4166,-2.3479,-2.2274,-2.2776,-2.3073,-2.3073,-2.2479,-2.2903,-2.4276,-2.3648,-2.3594,-2.3818,-2.3836,-2.3633,-2.2982,-2.2484,-2.1806,-2.118,-2.2121,-2.2582,-2.281,-2.286,-2.305,-2.3727,-2.2993,-2.2761,-2.3725,-2.4452,-2.4218,-2.3393,-2.4043,-2.4204,-2.3733,-2.4286,-2.4673,-2.4673,-2.4692,-2.4673,-2.4617,-2.3824,-2.2914,-2.2053,-2.1789,-2.1643,-2.1438,-2.154,-2.1591,-2.15,-2.1181,-1.958,-1.5433,-1.1395,-0.9328,-0.9858,-0.8745,-0.7923,-0.784,-0.7623,-0.734,-0.7084,-0.6351,-0.6098,-0.6231,-0.6039,-0.5809,-0.5826,-0.587,-0.589,-0.5839,-0.5787,-0.5809,-0.5809,-0.5826,-0.5824,-0.5826,-0.5819,-0.5879,-0.6028,-0.6036,-0.5959,-0.6336,-0.8965,-1.152,-1.3384,-1.486,-1.5527,-1.5392,-1.5372,-1.5921,-1.6313,-1.6394,-1.6659,-1.7134,-1.7043,-1.6539,-1.6273,-1.6232,-1.582,-1.5324,-1.5518,-1.5637,-2.3566,-2.3768,-2.3768,-2.3933,-2.4154,-2.3879,-2.3952,-2.4248,-2.4321,-2.4339,-2.4393,-2.4532,-2.4549,-2.4465,-2.4582,-2.3931,-2.2868,-2.3091,-2.2943,-2.2516,-2.2646,-2.2813,-2.2866,-2.3073,-2.3063,-2.2918,-2.2454,-2.2121,-2.2082,-2.2709,-2.2754,-2.2348,-2.3396,-2.3869,-2.3522,-2.3885,-2.4293,-2.4448,-2.4044,-2.4068,-2.4416,-2.4915,-2.486,-2.4346,-2.4516,-2.4545,-2.4254,-2.4548,-2.4676,-2.4673,-2.4676,-2.4695,-2.4654,-2.4318,-2.3942,-2.3525,-2.3382,-2.329,-2.3232,-2.3202,-2.2709,-2.1717,-2.0646,-1.8749,-1.4977,-1.0651,-0.8043,-0.8626,-0.8271,-0.7713,-0.7634,-0.7413,-0.7102,-0.6913,-0.698,-0.6768,-0.6459,-0.6321,-0.6215,-0.5963,-0.6109,-0.6395,-0.6321,-0.6244,-0.608,-0.589,-0.6282,-0.6307,-0.5956,-0.598,-0.6465,-0.743,-0.6805,-0.5787,-0.5819,-0.8666,-1.1477,-1.3542,-1.4964,-1.4708,-1.4546,-1.5167,-1.5722,-1.6166,-1.6338,-1.6725,-1.7166,-1.7361,-1.6835,-1.6811,-1.6702,-1.6249,-1.5817,-1.603,-1.6011,-2.3474,-2.4135,-2.419,-2.4209,-2.4191,-2.419,-2.4266,-2.4356,-2.441,-2.4462,-2.4545,-2.467,-2.4689,-2.4626,-2.4685,-2.4223,-2.3393,-2.3496,-2.3165,-2.2516,-2.3238,-2.3347,-2.3023,-2.3449,-2.3487,-2.3032,-2.2222,-2.1897,-2.2097,-2.3182,-2.3305,-2.2653,-2.4274,-2.472,-2.4176,-2.4722,-2.5122,-2.5107,-2.5072,-2.5068,-2.508,-2.5212,-2.5212,-2.5,-2.4896,-2.4785,-2.4692,-2.4682,-2.4682,-2.466,-2.4682,-2.4535,-2.4254,-2.391,-2.383,-2.3967,-2.3951,-2.4063,-2.421,-2.4189,-2.3674,-2.2575,-2.0476,-1.8191,-1.6042,-1.1478,-0.9256,-0.9123,-0.8256,-0.7669,-0.751,-0.7336,-0.716,-0.7076,-0.7456,-0.736,-0.6548,-0.6409,-0.6263,-0.608,-0.6278,-0.6535,-0.6666,-0.6571,-0.6367,-0.6109,-0.6636,-0.6695,-0.6534,-0.6338,-0.6901,-0.8613,-0.8888,-0.8579,-0.9017,-1.1255,-1.2844,-1.469,-1.5334,-1.4766,-1.4362,-1.501,-1.5489,-1.593,-1.6386,-1.6808,-1.7134,-1.7417,-1.7465,-1.7415,-1.7113,-1.6651,-1.6499,-1.6534,-1.6475,-2.3474,-2.4172,-2.419,-2.4228,-2.4247,-2.4247,-2.4338,-2.4491,-2.4575,-2.4666,-2.4752,-2.479,-2.4809,-2.4795,-2.479,-2.4351,-2.3825,-2.4169,-2.3921,-2.3221,-2.3998,-2.4452,-2.4451,-2.4407,-2.4421,-2.4371,-2.3903,-2.3562,-2.3487,-2.382,-2.3609,-2.3151,-2.4513,-2.4951,-2.4208,-2.4921,-2.5376,-2.535,-2.5351,-2.536,-2.5379,-2.5332,-2.5264,-2.5122,-2.508,-2.4962,-2.4741,-2.4657,-2.4663,-2.4629,-2.4572,-2.4169,-2.3363,-2.2548,-2.2412,-2.3167,-2.326,-2.3597,-2.4192,-2.4247,-2.4171,-2.3621,-2.1253,-1.947,-1.7873,-1.4246,-1.1658,-1.1529,-0.9768,-0.7978,-0.7783,-0.7556,-0.7495,-0.7598,-0.758,-0.7302,-0.6746,-0.6168,-0.5926,-0.6245,-0.6429,-0.6446,-0.6637,-0.6797,-0.676,-0.676,-0.6811,-0.7008,-0.7265,-0.6856,-0.6991,-0.8358,-1.0075,-1.1266,-1.2605,-1.4109,-1.4993,-1.5847,-1.5895,-1.5645,-1.4918,-1.5082,-1.5314,-1.5735,-1.6466,-1.6896,-1.7256,-1.7498,-1.7498,-1.7415,-1.7176,-1.7044,-1.6969,-1.6889,-1.6928,-2.3668,-2.4391,-2.4493,-2.4495,-2.4409,-2.451,-2.454,-2.4522,-2.4663,-2.478,-2.4883,-2.4956,-2.4943,-2.4891,-2.4943,-2.4797,-2.4506,-2.4662,-2.4223,-2.3529,-2.4209,-2.466,-2.461,-2.4224,-2.379,-2.3587,-2.4353,-2.4471,-2.4128,-2.4562,-2.4495,-2.406,-2.4797,-2.4927,-2.4331,-2.4985,-2.5393,-2.5393,-2.5395,-2.5387,-2.5397,-2.5423,-2.5387,-2.5313,-2.5224,-2.5118,-2.5037,-2.493,-2.485,-2.4823,-2.4312,-2.3631,-2.2639,-2.1204,-2.1343,-2.3048,-2.3249,-2.3574,-2.428,-2.434,-2.4266,-2.4044,-2.3125,-2.156,-1.9963,-1.9646,-1.8022,-1.5621,-1.3049,-1.1468,-1.0844,-0.979,-0.876,-0.7467,-0.7152,-0.6979,-0.6709,-0.619,-0.6208,-0.6759,-0.6863,-0.6995,-0.728,-0.7328,-0.727,-0.7313,-0.7321,-0.7492,-0.7551,-0.7243,-0.6871,-0.7464,-1.0504,-1.3289,-1.415,-1.4237,-1.4347,-1.5195,-1.5593,-1.5878,-1.5327,-1.5397,-1.5543,-1.557,-1.6328,-1.6845,-1.7216,-1.7498,-1.7498,-1.7498,-1.7382,-1.7283,-1.7216,-1.7188,-1.7207,-2.3814,-2.457,-2.4697,-2.47,-2.4642,-2.4716,-2.4741,-2.4718,-2.4818,-2.4924,-2.5037,-2.5138,-2.5126,-2.5061,-2.5118,-2.5091,-2.5006,-2.5285,-2.4865,-2.4005,-2.4418,-2.479,-2.4823,-2.4499,-2.4091,-2.3783,-2.4438,-2.4601,-2.4149,-2.461,-2.4636,-2.4306,-2.496,-2.5178,-2.4749,-2.512,-2.5401,-2.5401,-2.5395,-2.5395,-2.5404,-2.5456,-2.563,-2.582,-2.5784,-2.5735,-2.5674,-2.5644,-2.5405,-2.4841,-2.3897,-2.3015,-2.2334,-2.0878,-2.074,-2.2389,-2.2936,-2.3252,-2.4295,-2.4375,-2.4266,-2.4209,-2.419,-2.3466,-2.1989,-2.3353,-2.2078,-1.8542,-1.7743,-1.6203,-1.3357,-1.1609,-1.0001,-0.8438,-0.7303,-0.6789,-0.6629,-0.6321,-0.6292,-0.6797,-0.6914,-0.7097,-0.7233,-0.7321,-0.7437,-0.7616,-0.7609,-0.7624,-0.7595,-0.7386,-0.7256,-0.7754,-0.9903,-1.2413,-1.463,-1.4519,-1.3744,-1.4309,-1.4993,-1.5339,-1.5304,-1.6104,-1.6548,-1.5753,-1.5987,-1.6134,-1.6495,-1.7229,-1.7498,-1.7498,-1.7545,-1.7486,-1.7402,-1.7436,-1.7441,-2.3844,-2.4766,-2.4832,-2.4832,-2.4799,-2.4847,-2.4891,-2.4974,-2.501,-2.513,-2.5253,-2.5274,-2.5274,-2.5293,-2.5264,-2.522,-2.5232,-2.576,-2.5634,-2.4985,-2.4947,-2.4994,-2.5065,-2.5107,-2.5062,-2.4995,-2.4591,-2.4312,-2.434,-2.4416,-2.4174,-2.4384,-2.5026,-2.5352,-2.5186,-2.5332,-2.5219,-2.5181,-2.5318,-2.5385,-2.5305,-2.5456,-2.5774,-2.6445,-2.6532,-2.6535,-2.6419,-2.6323,-2.5919,-2.4896,-2.3564,-2.2909,-2.2315,-2.1032,-2.1001,-2.2383,-2.2252,-2.3095,-2.4092,-2.4375,-2.4266,-2.4209,-2.419,-2.419,-2.3912,-2.3819,-2.3226,-2.0827,-2.1864,-2.0642,-1.5266,-1.2652,-1.1309,-0.982,-0.7892,-0.6937,-0.6702,-0.6491,-0.6506,-0.6658,-0.6717,-0.6717,-0.6811,-0.6826,-0.7059,-0.7372,-0.7419,-0.7448,-0.7587,-0.7646,-0.791,-0.8783,-0.9814,-1.0629,-1.2543,-1.329,-1.2559,-1.2602,-1.3479,-1.4181,-1.5177,-1.6265,-1.699,-1.6208,-1.553,-1.5623,-1.6028,-1.6837,-1.7442,-1.7622,-1.7629,-1.7612,-1.7589,-1.7606,-1.7559,-2.3524,-2.4911,-2.5111,-2.5061,-2.4981,-2.5091,-2.5084,-2.5022,-2.5163,-2.5234,-2.5303,-2.5313,-2.5293,-2.5302,-2.5293,-2.5243,-2.5286,-2.5508,-2.5518,-2.5225,-2.5187,-2.522,-2.5273,-2.5332,-2.536,-2.5303,-2.5081,-2.5041,-2.5069,-2.4982,-2.5029,-2.5059,-2.5266,-2.51,-2.4601,-2.4516,-2.445,-2.4546,-2.5144,-2.5095,-2.4706,-2.5232,-2.558,-2.5812,-2.6423,-2.6685,-2.6572,-2.6005,-2.5226,-2.4418,-2.463,-2.3967,-2.2729,-2.2007,-2.204,-2.2754,-2.2936,-2.331,-2.4185,-2.4338,-2.4247,-2.4209,-2.419,-2.419,-2.419,-2.419,-2.3819,-2.3027,-2.2923,-2.1095,-1.7403,-1.449,-1.1855,-0.8887,-0.7705,-0.7211,-0.6841,-0.6535,-0.6478,-0.6649,-0.6586,-0.6701,-0.69,-0.6893,-0.6856,-0.7112,-0.7236,-0.7338,-0.7551,-0.758,-0.7772,-0.8462,-0.9226,-0.9338,-1.0016,-1.1057,-1.1353,-1.1032,-1.1659,-1.2594,-1.4115,-1.5884,-1.6453,-1.6512,-1.5612,-1.5431,-1.6038,-1.6766,-1.717,-1.7721,-1.7721,-1.7721,-1.7635,-1.7589,-1.7582,-2.3819,-2.5122,-2.5243,-2.5233,-2.5141,-2.5243,-2.5233,-2.5182,-2.5234,-2.5313,-2.5313,-2.5313,-2.5293,-2.5292,-2.5302,-2.5262,-2.5239,-2.5625,-2.5617,-2.528,-2.5282,-2.5283,-2.5313,-2.5341,-2.5351,-2.5361,-2.5351,-2.5351,-2.5331,-2.5369,-2.5378,-2.5378,-2.5443,-2.4979,-2.4237,-2.448,-2.4229,-2.3987,-2.4711,-2.5018,-2.4339,-2.5058,-2.5677,-2.6072,-2.6768,-2.7127,-2.6646,-2.5409,-2.4685,-2.4956,-2.5197,-2.4629,-2.3252,-2.2527,-2.2512,-2.2933,-2.2507,-2.2808,-2.4092,-2.4116,-2.3971,-2.4154,-2.4209,-2.4209,-2.419,-2.419,-2.419,-2.4006,-2.3272,-2.1515,-1.8672,-1.5023,-1.1286,-0.8432,-0.7686,-0.7532,-0.7158,-0.7134,-0.7107,-0.7139,-0.7082,-0.7011,-0.7279,-0.7105,-0.6852,-0.6743,-0.7047,-0.7301,-0.7613,-0.7529,-0.7625,-0.8214,-0.8471,-0.8556,-0.8837,-0.9715,-1.077,-1.0498,-1.1788,-1.2371,-1.3821,-1.572,-1.5867,-1.6053,-1.5541,-1.5471,-1.6143,-1.6796,-1.74,-1.7766,-1.7789,-1.7766,-1.7704,-1.7658,-1.7629,-2.4324,-2.5274,-2.5303,-2.5313,-2.5303,-2.5313,-2.5284,-2.5303,-2.5284,-2.5313,-2.5264,-2.5187,-2.5148,-2.5292,-2.509,-2.5126,-2.5244,-2.5814,-2.5718,-2.5403,-2.5252,-2.5274,-2.5303,-2.5322,-2.5332,-2.5341,-2.5313,-2.5322,-2.5341,-2.5332,-2.5332,-2.5379,-2.5407,-2.4945,-2.4356,-2.4761,-2.4422,-2.3835,-2.4444,-2.5001,-2.4872,-2.5487,-2.6083,-2.6566,-2.7136,-2.7398,-2.6544,-2.5205,-2.4553,-2.6373,-2.5566,-2.4581,-2.3632,-2.2637,-2.2308,-2.2356,-2.2025,-2.2343,-2.3702,-2.3633,-2.3638,-2.41,-2.421,-2.4118,-2.4025,-2.3896,-2.3804,-2.3639,-2.3859,-2.1862,-1.8914,-1.4338,-1.1342,-0.9278,-0.854,-0.7814,-0.829,-0.8197,-0.7948,-0.7878,-0.785,-0.7622,-0.7565,-0.7351,-0.7113,-0.7059,-0.7162,-0.723,-0.7433,-0.737,-0.7477,-0.7792,-0.7874,-0.775,-0.8131,-0.8551,-0.963,-1.0363,-1.2472,-1.3666,-1.457,-1.5714,-1.5505,-1.5428,-1.5731,-1.5999,-1.635,-1.7008,-1.754,-1.7535,-1.7349,-1.7569,-1.7789,-1.7743,-1.7721,-2.4257,-2.516,-2.5273,-2.5313,-2.5313,-2.5313,-2.5313,-2.5313,-2.5313,-2.5303,-2.5149,-2.462,-2.4697,-2.5146,-2.4686,-2.4588,-2.5264,-2.5562,-2.5313,-2.5275,-2.5212,-2.5262,-2.5312,-2.5351,-2.536,-2.537,-2.5388,-2.5369,-2.5369,-2.536,-2.5388,-2.5398,-2.533,-2.4964,-2.4282,-2.4387,-2.4619,-2.4581,-2.436,-2.4878,-2.5781,-2.632,-2.6666,-2.676,-2.6904,-2.7254,-2.7113,-2.5184,-2.4667,-2.5564,-2.5225,-2.417,-2.3454,-2.2469,-2.217,-2.2539,-2.2638,-2.2569,-2.2757,-2.3521,-2.4154,-2.4211,-2.4137,-2.3915,-2.329,-2.3052,-2.2758,-2.2372,-2.1823,-2.0825,-1.8334,-1.4565,-1.2686,-1.1936,-1.0428,-0.9685,-1.1548,-0.9996,-0.8525,-0.8136,-0.7759,-0.7271,-0.7844,-0.7847,-0.771,-0.7543,-0.7432,-0.7286,-0.7237,-0.7253,-0.7461,-0.7769,-0.767,-0.7694,-0.7818,-0.8477,-0.9757,-1.0776,-1.2731,-1.4848,-1.5761,-1.5687,-1.5499,-1.5839,-1.6396,-1.6578,-1.6523,-1.6872,-1.7354,-1.7134,-1.6982,-1.7371,-1.7625,-1.7693,-1.7794,-2.4626,-2.5096,-2.5243,-2.5313,-2.5313,-2.5313,-2.5313,-2.5303,-2.5293,-2.5293,-2.5207,-2.4793,-2.462,-2.4534,-2.463,-2.512,-2.583,-2.6258,-2.6186,-2.5914,-2.5792,-2.5623,-2.5261,-2.5322,-2.5351,-2.537,-2.5341,-2.5351,-2.5351,-2.537,-2.5341,-2.5351,-2.5351,-2.4898,-2.4341,-2.4466,-2.4149,-2.3889,-2.4745,-2.5293,-2.5078,-2.6408,-2.6966,-2.6644,-2.6373,-2.6404,-2.6437,-2.4995,-2.4442,-2.4587,-2.4028,-2.3433,-2.3023,-2.1804,-2.138,-2.1848,-2.2017,-2.2296,-2.2537,-2.3225,-2.3951,-2.4229,-2.3934,-2.3474,-2.2868,-2.2336,-2.1896,-2.1821,-2.1605,-2.0825,-1.8624,-1.6287,-1.4997,-1.4503,-1.5034,-1.5037,-1.401,-1.2439,-1.1402,-1.1234,-1.0955,-1.099,-1.0857,-0.9821,-0.8834,-0.8923,-0.8787,-0.8581,-0.7679,-0.7706,-0.7748,-0.7891,-0.775,-0.7703,-0.771,-0.8603,-1.025,-1.1415,-1.2848,-1.5084,-1.6795,-1.6222,-1.5483,-1.5993,-1.6556,-1.6447,-1.6458,-1.6821,-1.6898,-1.6458,-1.6458,-1.7054,-1.741,-1.7427,-1.7618,-2.5063,-2.5126,-2.5243,-2.5313,-2.5303,-2.5303,-2.5303,-2.5322,-2.5426,-2.5484,-2.5303,-2.538,-2.4859,-2.4392,-2.496,-2.5848,-2.6708,-2.7054,-2.6894,-2.6692,-2.6404,-2.6194,-2.5841,-2.5732,-2.5609,-2.5495,-2.5601,-2.5601,-2.5582,-2.5524,-2.5803,-2.5678,-2.5341,-2.5178,-2.4822,-2.5024,-2.4812,-2.3755,-2.564,-2.6208,-2.4808,-2.6157,-2.6743,-2.6354,-2.5948,-2.5603,-2.5425,-2.4457,-2.3828,-2.3796,-2.2468,-2.2337,-2.2359,-2.1068,-1.981,-2.0541,-2.0785,-2.1525,-2.2414,-2.2895,-2.3248,-2.3805,-2.3325,-2.2792,-2.2317,-2.1639,-2.129,-2.1492,-2.1532,-2.1279,-1.9673,-1.7999,-1.6597,-1.6492,-2.0324,-1.9851,-1.6625,-1.5708,-1.5542,-1.4599,-1.3007,-1.2362,-1.2858,-1.2523,-1.1319,-1.0345,-1.027,-0.9916,-0.9128,-0.8993,-0.9547,-0.8867,-0.8754,-0.9133,-0.9205,-0.917,-1.0771,-1.1921,-1.3202,-1.5261,-1.7314,-1.7073,-1.6452,-1.6205,-1.6441,-1.6487,-1.6595,-1.6889,-1.6678,-1.595,-1.599,-1.6588,-1.691,-1.7114,-1.7386,-2.5077,-2.5096,-2.5243,-2.5313,-2.5303,-2.5302,-2.5302,-2.5426,-2.5943,-2.5894,-2.5397,-2.5303,-2.5271,-2.5213,-2.5247,-2.6234,-2.7132,-2.7354,-2.7227,-2.7201,-2.6921,-2.6619,-2.6787,-2.6197,-2.6181,-2.6299,-2.6331,-2.6341,-2.6217,-2.639,-2.6505,-2.6909,-2.612,-2.5582,-2.6043,-2.6313,-2.6063,-2.5274,-2.6622,-2.6786,-2.6621,-2.6532,-2.6522,-2.6036,-2.5812,-2.568,-2.5127,-2.3985,-2.3504,-2.44,-2.1712,-2.1559,-2.2102,-2.0792,-2.0026,-1.9845,-2.04,-2.1256,-2.2201,-2.2343,-2.1957,-2.1723,-2.1869,-2.1668,-2.116,-2.0776,-2.0703,-2.0796,-2.0853,-2.0604,-2.03,-1.8993,-1.9395,-1.9772,-1.9946,-2.0281,-1.9623,-1.87,-1.75,-1.6024,-1.4441,-1.3602,-1.4605,-1.5111,-1.421,-1.3487,-1.339,-1.2727,-1.1787,-1.2133,-1.2904,-1.1635,-1.0076,-1.0586,-1.1057,-1.0847,-1.1414,-1.2404,-1.3728,-1.5457,-1.7062,-1.7633,-1.7544,-1.7124,-1.6941,-1.7052,-1.7143,-1.711,-1.7165,-1.6935,-1.6632,-1.6291,-1.6853,-1.7394,-1.722,-2.513,-2.5115,-2.5262,-2.5303,-2.5302,-2.5292,-2.5282,-2.531,-2.5704,-2.6173,-2.6233,-2.5813,-2.5453,-2.5524,-2.5511,-2.6211,-2.705,-2.7989,-2.7672,-2.7363,-2.7176,-2.7017,-2.7067,-2.6263,-2.6562,-2.691,-2.7174,-2.6687,-2.6063,-2.639,-2.6928,-2.7024,-2.6697,-2.689,-2.7024,-2.6774,-2.6697,-2.6717,-2.6728,-2.6718,-2.6718,-2.6571,-2.6406,-2.6309,-2.6453,-2.6513,-2.5909,-2.5418,-2.461,-2.4315,-2.3248,-2.2291,-2.1796,-2.1778,-2.1179,-2.007,-2.0258,-2.0907,-2.1613,-2.1699,-2.1758,-2.1537,-2.1371,-2.1025,-2.0535,-2.0262,-2.0299,-2.0649,-1.9701,-1.9797,-2.0806,-1.9221,-1.9115,-2.0517,-2.1061,-2.1242,-2.0753,-1.9775,-1.8457,-1.719,-1.6836,-1.6724,-1.7363,-1.7494,-1.6927,-1.6622,-1.6475,-1.5694,-1.4653,-1.4795,-1.5457,-1.4877,-1.3227,-1.257,-1.3151,-1.3238,-1.2787,-1.346,-1.4633,-1.6363,-1.7101,-1.7832,-1.7983,-1.7752,-1.7687,-1.7569,-1.7325,-1.7181,-1.7544,-1.7873,-1.7534,-1.7298,-1.7496,-1.7629,-1.7283,-2.5288,-2.5409,-2.5522,-2.5562,-2.5571,-2.5561,-2.5416,-2.5301,-2.5494,-2.6167,-2.7042,-2.6271,-2.5725,-2.5667,-2.5861,-2.6301,-2.704,-2.8357,-2.7851,-2.7334,-2.7238,-2.7159,-2.671,-2.6124,-2.6189,-2.7079,-2.7316,-2.7061,-2.6813,-2.7044,-2.7236,-2.7621,-2.8044,-2.8044,-2.7948,-2.7621,-2.714,-2.6727,-2.6526,-2.6111,-2.5916,-2.6127,-2.6436,-2.6457,-2.7103,-2.6939,-2.6208,-2.5745,-2.5207,-2.4648,-2.4148,-2.3572,-2.1833,-2.2891,-2.2824,-2.0985,-2.068,-2.0686,-2.1039,-2.0894,-2.1152,-2.1299,-2.0765,-2.0439,-2.026,-1.9987,-2.006,-2.0684,-2.0104,-1.9251,-2.0276,-1.9059,-1.8846,-2.0119,-2.2129,-2.2962,-2.0934,-1.9721,-1.925,-1.8735,-1.9104,-1.8984,-1.8787,-1.8537,-1.7683,-1.8923,-1.8822,-1.9181,-1.8143,-1.7023,-1.7305,-1.7624,-1.6788,-1.5315,-1.5289,-1.5895,-1.5383,-1.5144,-1.6386,-1.7959,-1.8099,-1.8186,-1.8197,-1.8243,-1.8038,-1.7889,-1.7559,-1.7367,-1.7714,-1.7992,-1.8117,-1.8117,-1.7971,-1.735,-1.671,-2.5784,-2.6388,-2.6418,-2.6437,-2.636,-2.6299,-2.5917,-2.5457,-2.5974,-2.6024,-2.5947,-2.6289,-2.6133,-2.5842,-2.6282,-2.7039,-2.7498,-2.7426,-2.7423,-2.7279,-2.7099,-2.7171,-2.7377,-2.6811,-2.6469,-2.6983,-2.6941,-2.7599,-2.8005,-2.8448,-2.9044,-2.9313,-2.8525,-2.8266,-2.8909,-2.8582,-2.8429,-2.7997,-2.8347,-2.7914,-2.6717,-2.6088,-2.5944,-2.5897,-2.6081,-2.6188,-2.6015,-2.5572,-2.4956,-2.5034,-2.3803,-2.3717,-2.4098,-2.3282,-2.3657,-2.3074,-2.2237,-2.0848,-2.132,-2.0857,-2.0365,-2.0712,-2.0163,-1.9651,-1.9635,-1.9932,-1.9987,-1.9491,-1.9648,-1.9819,-2.0003,-1.9918,-2.0119,-2.0717,-2.1858,-2.1966,-2.0699,-1.9612,-1.9141,-1.8924,-1.887,-1.8922,-1.8839,-1.8639,-1.8582,-2.0065,-2.1221,-2.142,-2.1231,-1.9773,-1.7593,-1.7429,-1.8333,-1.7196,-1.8001,-1.8516,-1.7897,-1.7199,-1.8295,-1.9472,-1.9003,-1.881,-1.8655,-1.8627,-1.8374,-1.8138,-1.7927,-1.7859,-1.7962,-1.7914,-1.7828,-1.7983,-1.8172,-1.7342,-1.6409,-2.56,-2.5909,-2.589,-2.586,-2.584,-2.5808,-2.5587,-2.5407,-2.5688,-2.5707,-2.5528,-2.5873,-2.59,-2.5737,-2.6016,-2.6288,-2.6663,-2.6773,-2.6709,-2.683,-2.6711,-2.6878,-2.6834,-2.6399,-2.6154,-2.7033,-2.7351,-2.7961,-2.8802,-2.914,-2.9371,-2.9563,-2.9486,-2.9486,-2.9679,-2.9333,-2.9275,-2.9209,-2.9154,-2.855,-2.773,-2.746,-2.7489,-2.745,-2.7826,-2.7499,-2.6786,-2.6545,-2.5803,-2.5572,-2.4456,-2.4495,-2.4946,-2.457,-2.4457,-2.4686,-2.3314,-2.2238,-2.1906,-2.1226,-2.0883,-2.0475,-2.0184,-1.9892,-1.9546,-1.9565,-1.9748,-1.9396,-1.9573,-1.9723,-1.9727,-1.9808,-2.0009,-2.0517,-2.1261,-2.1007,-2.0445,-1.9721,-1.9014,-1.8833,-1.867,-1.8776,-1.8957,-1.9086,-1.9321,-2.0481,-2.1494,-2.1819,-2.187,-2.136,-1.878,-1.6165,-1.7453,-1.8466,-2.0157,-2.1412,-2.0422,-1.9911,-2.0435,-2.102,-1.9917,-1.9527,-1.9189,-1.8568,-1.7971,-1.7931,-1.8111,-1.8155,-1.8103,-1.7793,-1.7449,-1.7725,-1.7931,-1.7449,-1.6652,-2.5397,-2.5418,-2.5553,-2.562,-2.5629,-2.5559,-2.5454,-2.5284,-2.5388,-2.5432,-2.5461,-2.559,-2.5626,-2.5607,-2.5646,-2.5737,-2.5698,-2.6281,-2.6145,-2.601,-2.6112,-2.6334,-2.6168,-2.5717,-2.6077,-2.745,-2.7558,-2.8188,-2.8856,-2.9302,-2.9494,-2.9429,-2.9987,-3.0244,-3.0179,-2.989,-2.9737,-3.0094,-2.9501,-2.8876,-2.8375,-2.8529,-2.8615,-2.8854,-2.9182,-2.9077,-2.7836,-2.7422,-2.6641,-2.5687,-2.5245,-2.513,-2.5216,-2.5119,-2.5022,-2.5075,-2.4138,-2.3609,-2.298,-2.2316,-2.1726,-2.113,-2.0375,-1.9841,-1.9433,-1.9286,-1.9286,-1.9305,-1.9332,-1.9682,-1.9923,-1.9659,-1.9771,-1.9936,-2.0154,-2.0027,-1.9864,-1.9392,-1.9049,-1.8941,-1.883,-1.8717,-1.899,-1.9482,-2.01,-2.1043,-2.1696,-2.2182,-2.1958,-2.1678,-2.0112,-1.7168,-1.6853,-1.8348,-1.9974,-2.1499,-2.137,-2.191,-2.2412,-2.1966,-2.047,-1.9723,-1.9349,-1.861,-1.7879,-1.7925,-1.8225,-1.8218,-1.8172,-1.7966,-1.7776,-1.7656,-1.7587,-1.7156,-1.6622,-2.5387,-2.5464,-2.6179,-2.6428,-2.6399,-2.6512,-2.6073,-2.5461,-2.541,-2.5468,-2.5577,-2.5595,-2.5593,-2.5604,-2.5582,-2.5589,-2.5615,-2.5659,-2.5673,-2.5635,-2.5601,-2.5677,-2.556,-2.5582,-2.5721,-2.6515,-2.7163,-2.803,-2.8879,-2.9344,-2.9852,-3.0321,-3.0229,-3.0333,-3.0359,-3.0217,-3.0152,-3.0279,-2.9712,-2.9366,-2.8942,-2.8711,-2.8315,-2.8247,-2.8112,-2.7651,-2.6785,-2.693,-2.6477,-2.5495,-2.5341,-2.5293,-2.5293,-2.5274,-2.5264,-2.5126,-2.5037,-2.4624,-2.4195,-2.3248,-2.2323,-2.1667,-2.0723,-1.967,-1.9357,-1.9305,-1.9286,-1.9289,-1.9277,-1.9316,-1.963,-1.98,-1.9713,-1.9696,-1.977,-1.9844,-1.9717,-1.939,-1.9101,-1.9048,-1.8974,-1.8897,-1.9075,-1.9568,-2.008,-2.0953,-2.2131,-2.2634,-2.1267,-2.0827,-2.0588,-1.8927,-1.7329,-1.7699,-1.8628,-1.9697,-2.1007,-2.1669,-2.2078,-2.1454,-2.0342,-1.9832,-1.9503,-1.9009,-1.8415,-1.8371,-1.8168,-1.7884,-1.7772,-1.8056,-1.809,-1.7907,-1.7403,-1.6883,-1.6159,-2.5404,-2.5425,-2.5736,-2.5823,-2.5803,-2.5802,-2.5659,-2.5464,-2.539,-2.5476,-2.5601,-2.5601,-2.557,-2.5557,-2.5538,-2.551,-2.5495,-2.5517,-2.5505,-2.5524,-2.5503,-2.5464,-2.5406,-2.537,-2.5472,-2.5888,-2.6592,-2.711,-2.7527,-2.8618,-2.8849,-2.9148,-2.9899,-3.0314,-3.0398,-3.0371,-3.039,-3.0344,-3.0113,-2.994,-2.9863,-2.9709,-2.944,-2.9429,-2.9429,-2.8681,-2.7711,-2.747,-2.6631,-2.5811,-2.5483,-2.5475,-2.5515,-2.5495,-2.5303,-2.5253,-2.5262,-2.5209,-2.5072,-2.4164,-2.3404,-2.1853,-2.0616,-1.9504,-1.9353,-1.9341,-1.9305,-1.9289,-1.9344,-1.9402,-1.9405,-1.9538,-1.9525,-1.949,-1.9529,-1.9658,-1.9567,-1.9292,-1.9184,-1.9132,-1.9148,-1.9146,-1.9381,-1.9691,-2.0204,-2.0825,-2.2059,-2.2741,-2.1393,-2.0107,-1.9907,-1.9633,-1.8107,-1.7684,-1.8584,-1.9799,-2.1026,-2.1417,-2.1753,-2.109,-2.0354,-2.0032,-1.9651,-1.9241,-1.89,-1.8702,-1.8257,-1.7478,-1.7281,-1.747,-1.7818,-1.8064,-1.7433,-1.6661,-1.6003,-2.5393,-2.5395,-2.5388,-2.5361,-2.5322,-2.5581,-2.5553,-2.5459,-2.5735,-2.5691,-2.5613,-2.5607,-2.557,-2.5529,-2.5515,-2.5472,-2.5332,-2.5205,-2.5279,-2.5232,-2.5178,-2.523,-2.5283,-2.536,-2.5439,-2.5631,-2.6126,-2.6698,-2.7277,-2.7724,-2.8113,-2.8628,-2.9321,-2.9882,-3.0051,-3.0306,-3.0379,-3.0398,-3.0398,-3.0398,-3.0371,-3.0333,-3.0294,-3.0275,-3.0225,-2.9594,-2.8636,-2.8203,-2.7499,-2.6436,-2.5873,-2.6108,-2.6188,-2.6034,-2.5457,-2.5322,-2.5302,-2.5311,-2.5163,-2.4442,-2.3644,-2.2227,-2.0591,-1.9704,-1.9435,-1.969,-2.0241,-1.9858,-1.9767,-1.9638,-1.962,-1.9588,-1.9426,-1.9355,-1.9355,-1.9449,-1.9429,-1.9246,-1.9248,-1.923,-1.9248,-1.9248,-1.9319,-1.9593,-2.0203,-2.0443,-2.0626,-2.1549,-2.158,-2.0365,-1.9354,-1.9063,-1.8454,-1.8425,-1.8748,-1.9648,-2.0479,-2.1107,-2.1321,-2.1084,-2.0544,-2.0165,-1.995,-1.9695,-1.9354,-1.8998,-1.8569,-1.8068,-1.7397,-1.6799,-1.7429,-1.8193,-1.7327,-1.6572,-1.6174,-2.5382,-2.5393,-2.5397,-2.5361,-2.538,-2.6197,-2.6073,-2.5522,-2.6153,-2.6172,-2.5618,-2.5582,-2.5557,-2.5515,-2.5464,-2.5432,-2.5234,-2.4722,-2.4711,-2.5127,-2.4869,-2.4784,-2.5051,-2.5335,-2.5463,-2.619,-2.6384,-2.6679,-2.7489,-2.7478,-2.7717,-2.8016,-2.8526,-2.9334,-2.9322,-3.0032,-3.039,-3.0398,-3.0398,-3.0398,-3.0379,-3.0379,-3.0398,-3.0379,-3.0398,-2.9863,-2.9145,-2.8704,-2.7962,-2.6983,-2.6122,-2.6799,-2.8336,-2.6602,-2.5678,-2.5322,-2.5389,-2.5339,-2.5135,-2.3686,-2.2958,-2.2412,-2.0947,-1.9862,-1.9815,-2.0407,-2.1161,-2.0556,-2.0684,-2.0519,-2.0225,-1.9858,-1.962,-1.9274,-1.9292,-1.9292,-1.9292,-1.9292,-1.9277,-1.9261,-1.928,-1.928,-1.9274,-1.9457,-2.0111,-2.0207,-1.9719,-2.0011,-2.0788,-2.0639,-1.9538,-1.9282,-1.9009,-1.8733,-1.8914,-1.9254,-1.992,-2.0608,-2.1005,-2.0914,-2.0623,-2.0208,-2.0045,-2.0043,-2.0136,-2.0065,-1.947,-1.8801,-1.834,-1.7985,-1.7923,-1.8141,-1.7255,-1.6467,-1.6002,-2.5448,-2.5395,-2.5387,-2.5351,-2.5351,-2.5591,-2.5591,-2.5464,-2.5727,-2.5723,-2.551,-2.5461,-2.5421,-2.5388,-2.537,-2.5341,-2.5205,-2.5187,-2.5216,-2.5216,-2.486,-2.5052,-2.5252,-2.5275,-2.5375,-2.5581,-2.5753,-2.5937,-2.6144,-2.654,-2.6515,-2.668,-2.7765,-2.8598,-2.9669,-3.0351,-3.0398,-3.0398,-3.0398,-3.0398,-3.0348,-3.0367,-3.0379,-3.0336,-3.0379,-3.0017,-2.9308,-2.8963,-2.8232,-2.7467,-2.6702,-2.7097,-2.7881,-2.6108,-2.6178,-2.5746,-2.5668,-2.585,-2.5262,-2.4234,-2.3569,-2.2718,-2.1468,-2.0502,-2.1042,-2.0249,-2.0662,-2.1363,-2.1639,-2.1345,-2.0613,-2.0537,-2.0225,-1.9436,-1.9289,-1.9289,-1.9289,-1.9289,-1.9289,-1.9289,-1.9274,-1.8962,-1.8849,-1.8831,-1.9392,-1.9873,-1.9477,-1.932,-1.9884,-2.0354,-1.9917,-1.9969,-1.9752,-1.9255,-1.9126,-1.9519,-1.9517,-1.9863,-2.0608,-2.1134,-2.0771,-2.0155,-2.0589,-2.0806,-2.1023,-2.1167,-2.1023,-2.0734,-1.9867,-1.9451,-1.885,-1.8286,-1.7626,-1.6611,-1.5622,-2.5476,-2.5432,-2.5415,-2.5369,-2.539,-2.562,-2.5783,-2.5817,-2.5584,-2.5422,-2.5444,-2.5445,-2.5388,-2.5332,-2.5312,-2.528,-2.5195,-2.4905,-2.5156,-2.5146,-2.4896,-2.4973,-2.5105,-2.5239,-2.5288,-2.5282,-2.5359,-2.5515,-2.5667,-2.5658,-2.6181,-2.6854,-2.711,-2.8699,-2.985,-3.025,-3.013,-3.0254,-3.0406,-3.0379,-3.0336,-3.0316,-3.0336,-3.0336,-3.0309,-3.014,-2.9644,-2.9049,-2.8453,-2.7981,-2.7497,-2.7127,-2.6721,-2.6511,-2.6737,-2.6497,-2.5919,-2.5937,-2.5225,-2.4898,-2.4396,-2.4151,-2.2114,-2.1498,-2.2056,-2.1742,-2.1756,-2.2222,-2.2554,-2.2169,-2.1545,-2.1452,-2.0473,-1.9696,-1.9438,-1.9457,-1.9419,-1.9434,-1.9316,-1.9316,-1.925,-1.8849,-1.8588,-1.8353,-1.854,-1.8932,-1.9248,-1.9186,-1.912,-1.9469,-1.9813,-1.9794,-1.9885,-1.9432,-1.9355,-1.9805,-1.9676,-1.9294,-2.0003,-2.0914,-2.0416,-1.9813,-2.0698,-2.1535,-2.1676,-2.202,-2.292,-2.2743,-2.1562,-2.0119,-1.8819,-1.8311,-1.7912,-1.6945,-1.5832,-2.5511,-2.5484,-2.5423,-2.5387,-2.5513,-2.6083,-2.6494,-2.6618,-2.5812,-2.5541,-2.5565,-2.548,-2.5388,-2.5313,-2.5351,-2.5321,-2.5149,-2.4541,-2.476,-2.4884,-2.4673,-2.4826,-2.5069,-2.5262,-2.5293,-2.5357,-2.5418,-2.5505,-2.56,-2.5648,-2.6493,-2.7571,-2.767,-2.8875,-2.9633,-2.9919,-2.9881,-3.0269,-3.0417,-3.0379,-3.0336,-3.0311,-3.0311,-3.0323,-3.0309,-3.034,-3.0083,-2.9855,-2.9511,-2.8954,-2.8271,-2.7941,-2.7544,-2.711,-2.7343,-2.7113,-2.6121,-2.5582,-2.5283,-2.5119,-2.5148,-2.483,-2.3677,-2.2923,-2.2855,-2.3244,-2.334,-2.3114,-2.3139,-2.3012,-2.2773,-2.168,-2.0596,-2.0148,-1.9777,-1.9704,-1.9649,-1.9559,-1.9419,-1.9346,-1.9301,-1.9103,-1.9037,-1.8783,-1.8977,-1.8999,-1.9426,-1.9413,-1.9257,-1.8717,-1.9013,-1.9031,-1.9139,-1.9348,-1.9525,-1.9799,-1.9707,-1.9271,-1.9778,-2.0451,-1.9871,-1.9697,-2.047,-2.1268,-2.2032,-2.2753,-2.364,-2.3606,-2.285,-2.1267,-1.9164,-1.8501,-1.8123,-1.7389,-1.6407,-2.5484,-2.5429,-2.5423,-2.5387,-2.5418,-2.5592,-2.5688,-2.5734,-2.6069,-2.6036,-2.5367,-2.5313,-2.5284,-2.5214,-2.5243,-2.5241,-2.5135,-2.5009,-2.5028,-2.4971,-2.4875,-2.5042,-2.5178,-2.5293,-2.5327,-2.5437,-2.5525,-2.5648,-2.5591,-2.5671,-2.6186,-2.7147,-2.7588,-2.8583,-2.925,-2.9543,-2.9926,-3.0239,-3.0362,-3.039,-3.0323,-3.0318,-3.0299,-3.0311,-3.0239,-3.0271,-3.0225,-2.9786,-2.9374,-2.9049,-2.7788,-2.6996,-2.618,-2.647,-2.6908,-2.6776,-2.5996,-2.5341,-2.5253,-2.5283,-2.5303,-2.5303,-2.4658,-2.4575,-2.4498,-2.4523,-2.4618,-2.4126,-2.3725,-2.3582,-2.3192,-2.2259,-2.1239,-2.0616,-2.0191,-1.9869,-1.9828,-1.9828,-1.9695,-1.9689,-1.9627,-1.987,-1.9754,-2.0089,-2.0207,-1.9858,-1.9659,-1.9717,-1.9353,-1.8797,-1.8648,-1.8721,-1.8653,-1.8953,-1.9209,-1.9499,-1.941,-1.9376,-1.9829,-2.0089,-1.9829,-1.9846,-2.0364,-2.1298,-2.2534,-2.3502,-2.4392,-2.4045,-2.3444,-2.131,-1.9323,-1.8817,-1.8289,-1.77,-1.732,-2.647,-2.6376,-2.603,-2.5751,-2.5451,-2.5429,-2.541,-2.5479,-2.5925,-2.5793,-2.5361,-2.5274,-2.5233,-2.5252,-2.5243,-2.5233,-2.5192,-2.5194,-2.5224,-2.5233,-2.5252,-2.5274,-2.5311,-2.541,-2.5665,-2.5803,-2.6053,-2.6221,-2.603,-2.5873,-2.6249,-2.7542,-2.7522,-2.8108,-2.884,-2.9277,-2.9613,-2.997,-3.0221,-3.0348,-3.0379,-3.0318,-3.0305,-3.0241,-3.01,-2.9951,-2.9886,-2.9264,-2.9055,-2.8884,-2.7634,-2.693,-2.6028,-2.5978,-2.6492,-2.6381,-2.5899,-2.5447,-2.5293,-2.5293,-2.5303,-2.5313,-2.5303,-2.5416,-2.5373,-2.5325,-2.5004,-2.458,-2.436,-2.4097,-2.3572,-2.2967,-2.2021,-2.1114,-2.0564,-2.0026,-2.003,-2.0089,-2.0104,-2.0124,-2.0326,-2.0661,-2.0947,-2.1327,-2.1327,-2.0776,-2.0496,-2.051,-1.9798,-1.8779,-1.8787,-1.8959,-1.8735,-1.865,-1.8992,-1.9383,-1.9398,-1.9457,-1.962,-1.9778,-1.9655,-1.997,-2.0457,-2.1803,-2.3364,-2.3894,-2.4024,-2.4281,-2.3661,-2.1485,-1.9931,-1.9662,-1.9144,-1.8396,-1.8142,-2.7909,-2.7716,-2.6983,-2.6102,-2.5553,-2.5544,-2.5543,-2.5492,-2.544,-2.5339,-2.5382,-2.5321,-2.5303,-2.5283,-2.5283,-2.5253,-2.5264,-2.5284,-2.5284,-2.5302,-2.5313,-2.5407,-2.5638,-2.5592,-2.621,-2.6753,-2.7051,-2.7039,-2.6871,-2.6778,-2.713,-2.8323,-2.8205,-2.8459,-2.8825,-2.9003,-2.9221,-2.9341,-3.0012,-3.0481,-3.0458,-3.039,-3.0292,-3.019,-2.9761,-2.9306,-2.9221,-2.8983,-2.8736,-2.8478,-2.8037,-2.7412,-2.6292,-2.5545,-2.6,-2.608,-2.5706,-2.5476,-2.5313,-2.5303,-2.5303,-2.5313,-2.5322,-2.5716,-2.583,-2.557,-2.5137,-2.5088,-2.4898,-2.4174,-2.359,-2.3011,-2.22,-2.1557,-2.1051,-2.0679,-2.0575,-2.0508,-2.0335,-2.0774,-2.2038,-2.2277,-2.209,-2.2447,-2.2537,-2.1828,-2.1549,-2.1538,-2.0775,-1.9508,-1.9263,-1.9462,-1.9091,-1.8985,-1.9271,-1.9572,-1.9572,-1.9625,-1.9699,-1.9722,-1.9788,-2.0127,-2.0551,-2.1907,-2.3196,-2.3086,-2.3192,-2.3712,-2.3593,-2.1761,-2.0588,-2.0585,-2.0016,-1.918,-1.8735,-2.76,-2.6942,-2.6118,-2.5631,-2.5456,-2.5479,-2.5502,-2.5493,-2.5473,-2.5427,-2.5414,-2.539,-2.5359,-2.5322,-2.5313,-2.5303,-2.5303,-2.533,-2.5321,-2.5331,-2.534,-2.5749,-2.628,-2.6277,-2.6922,-2.7576,-2.7905,-2.7963,-2.7981,-2.791,-2.8049,-2.9045,-2.881,-2.8615,-2.885,-2.8895,-2.8691,-2.8638,-2.9391,-3.0128,-3.0366,-3.0378,-3.0336,-3.0253,-2.9927,-2.9454,-2.9274,-2.8998,-2.8579,-2.814,-2.7391,-2.6545,-2.5509,-2.5495,-2.5553,-2.5625,-2.555,-2.5407,-2.5322,-2.5313,-2.5313,-2.5313,-2.5409,-2.589,-2.5976,-2.5553,-2.5412,-2.5494,-2.5135,-2.4331,-2.3562,-2.2989,-2.2464,-2.1992,-2.1509,-2.1311,-2.112,-2.09,-2.0652,-2.1943,-2.3477,-2.3692,-2.3423,-2.338,-2.348,-2.3375,-2.3124,-2.2867,-2.2238,-2.1229,-2.0514,-2.0446,-1.9688,-1.9557,-1.9738,-1.9786,-1.9786,-1.9832,-1.9926,-1.9941,-1.9918,-2.0321,-2.079,-2.179,-2.2692,-2.3038,-2.3458,-2.3783,-2.3228,-2.1712,-2.0678,-2.0411,-2.0467,-1.9877,-1.9368,-2.8528,-2.8266,-2.7147,-2.6644,-2.645,-2.5517,-2.5407,-2.5933,-2.5356,-2.5219,-2.5471,-2.5447,-2.541,-2.5382,-2.5398,-2.5385,-2.5385,-2.5387,-2.5371,-2.5374,-2.5473,-2.5959,-2.637,-2.6831,-2.7678,-2.8326,-2.8661,-2.8848,-2.9104,-2.8552,-2.8596,-2.9416,-2.9064,-2.8752,-2.8793,-2.8244,-2.8106,-2.7803,-2.8571,-2.9113,-2.9801,-3.0142,-3.0321,-3.0311,-2.9876,-2.9378,-2.8821,-2.8468,-2.803,-2.7706,-2.7285,-2.6901,-2.616,-2.5738,-2.555,-2.5495,-2.5456,-2.5393,-2.5331,-2.5313,-2.5313,-2.5313,-2.5313,-2.5717,-2.7313,-2.7052,-2.6913,-2.6842,-2.5557,-2.4688,-2.372,-2.3032,-2.2676,-2.2242,-2.1664,-2.1254,-2.1436,-2.1579,-2.1914,-2.294,-2.4081,-2.4568,-2.4357,-2.4227,-2.4317,-2.427,-2.4124,-2.3575,-2.3012,-2.2823,-2.2154,-2.1543,-2.089,-2.0127,-1.9928,-1.999,-2.002,-2.0089,-2.0117,-2.006,-2.0058,-2.0498,-2.1081,-2.2073,-2.3034,-2.39,-2.4239,-2.4016,-2.3314,-2.2012,-2.0935,-2.0051,-2.0204,-2.0418,-2.0243,-2.9736,-3.0006,-2.8424,-2.7774,-2.7541,-2.5573,-2.5416,-2.6361,-2.527,-2.4991,-2.5537,-2.5546,-2.5535,-2.5517,-2.5517,-2.5512,-2.5499,-2.5473,-2.5446,-2.5379,-2.5357,-2.616,-2.6702,-2.705,-2.8117,-2.8965,-2.9467,-2.9941,-3.0364,-2.9608,-2.9269,-2.9647,-2.9357,-2.891,-2.7971,-2.7737,-2.7986,-2.7162,-2.7251,-2.7491,-2.8528,-2.9794,-2.9918,-2.9744,-2.9332,-2.8507,-2.7911,-2.752,-2.7206,-2.6937,-2.6872,-2.6659,-2.6377,-2.5823,-2.5651,-2.5525,-2.549,-2.5418,-2.534,-2.5293,-2.5293,-2.5313,-2.5313,-2.6063,-2.7621,-2.831,-2.8169,-2.7217,-2.5915,-2.4915,-2.3954,-2.3301,-2.2928,-2.2581,-2.1981,-2.179,-2.2182,-2.2507,-2.3226,-2.4033,-2.4455,-2.5069,-2.5102,-2.5008,-2.4967,-2.4917,-2.4626,-2.4014,-2.3594,-2.3678,-2.3427,-2.2879,-2.2312,-2.1526,-2.0461,-2.0126,-2.0173,-2.0126,-2.0126,-2.0117,-2.0174,-2.0432,-2.1101,-2.2352,-2.3316,-2.3934,-2.396,-2.3631,-2.2865,-2.2106,-2.0922,-1.9938,-2.0045,-2.034,-2.0923,-2.9655,-2.8443,-2.6829,-2.6185,-2.608,-2.5615,-2.566,-2.587,-2.5661,-2.5565,-2.5622,-2.5655,-2.5609,-2.5517,-2.5521,-2.5535,-2.5546,-2.5537,-2.548,-2.5422,-2.5584,-2.6521,-2.7398,-2.7914,-2.8811,-2.9582,-3.0164,-3.0438,-3.0656,-3.0341,-3.0267,-3.0462,-2.9806,-2.9435,-2.9181,-2.875,-2.7969,-2.7049,-2.6442,-2.6666,-2.7775,-2.869,-2.895,-2.8853,-2.8651,-2.7758,-2.7103,-2.6834,-2.6332,-2.5937,-2.5831,-2.5928,-2.5919,-2.5792,-2.5671,-2.5571,-2.5544,-2.5453,-2.5367,-2.5303,-2.5293,-2.5313,-2.539,-2.5736,-2.7236,-2.864,-2.8088,-2.6935,-2.5812,-2.5053,-2.4243,-2.3804,-2.3443,-2.315,-2.2661,-2.341,-2.4042,-2.4109,-2.4406,-2.4629,-2.4726,-2.5081,-2.5234,-2.5184,-2.5173,-2.5157,-2.5157,-2.4628,-2.4551,-2.4589,-2.4549,-2.4107,-2.3577,-2.2191,-2.0813,-2.0331,-2.0225,-2.019,-2.0183,-2.025,-2.0269,-2.0193,-2.0977,-2.2114,-2.2868,-2.3468,-2.337,-2.3822,-2.2601,-2.1787,-2.0633,-1.9845,-1.9951,-2.0239,-2.0816]},{"header":{"parameterUnit":"m.s-1","parameterCategory":1,"la1":31.0,"la2":29.5877,"lo1":-88.7671,"lo2":-86.6584,"dy":0.0162,"dx":0.0185,"nx":115,"ny":88,"refTime":"2023-05-08T12:00:00:Z","depth":0,"parameterNumber":3,"parameterNumberName":"V-component_of_WINDS"},"data":[0.0,0.0,0.0,0.0,0.0,0.0,0.0,0.0,0.0,0.0,0.0,0.0,0.0,0.0,0.0,0.0,0.0,0.0,0.0,0.0,0.0,0.0,0.0,0.0,0.0,0.0,0.0,0.0,0.0,0.0,0.0,0.0,0.0,0.0,0.0,0.0,0.0,0.0,0.0,0.0,0.0,0.0,0.0,0.0,0.0,0.0,0.0,0.0,0.0,0.0,0.0,0.0,0.0,0.0,0.0,0.0,0.0,0.0,0.0,0.0,0.0,0.0,0.0,0.0,0.0,0.0,0.0,0.0,0.0,0.0,0.0,0.0,0.0,0.0,0.0,0.0,0.0,0.0,0.0,0.0,0.0,0.0,0.0,0.0,0.0,0.0,0.0,0.0,0.0,0.0,0.0,0.0,0.0,0.0,0.0,0.0,0.0,0.0,0.0,0.0,0.0,0.0,0.0,0.0,0.0,0.0,0.0,0.0,0.0,0.0,0.0,0.0,0.0,0.0,0.0,0.0,0.0,0.0,0.0,0.0,0.0,0.0,0.0,0.0,0.0,0.0,0.0,0.0,0.0,0.0,0.0,0.0,0.0,0.0,0.0,0.0,0.0,0.0,0.0,0.0,0.0,0.0,0.0,0.0,0.0,0.0,0.0,0.0,0.0,0.0,0.0,0.0,0.0,0.0,0.0,0.0,0.0,0.0,0.0,0.0,0.0,0.0,0.0,0.0,0.0,0.0,0.0,0.0,0.0,0.0,0.0,0.0,0.0,0.0,0.0,0.0,0.0,0.0,0.0,0.0,0.0,0.0,0.0,0.0,0.0,0.0,0.0,0.0,0.0,0.0,0.0,0.0,0.0,0.0,0.0,0.0,0.0,0.0,0.0,0.0,0.0,0.0,0.0,0.0,0.0,0.0,0.0,0.0,0.0,0.0,0.0,0.0,0.0,0.0,0.0,0.0,0.0,0.0,0.0,0.0,0.0,0.0,0.0,0.0,0.0,0.0,0.0,0.0,0.0,0.0,0.0,0.0,0.0,0.0,0.0,0.0,0.0,0.0,0.0,0.0,0.0,0.0,0.0,0.0,0.0,0.0,0.0,0.0,0.0,0.0,0.0,0.0,0.0,0.0,0.0,0.0,0.0,0.0,0.0,0.0,0.0,0.0,0.0,0.0,0.0,0.0,0.0,0.0,0.0,0.0,0.0,0.0,0.0,0.0,0.0,0.0,0.0,0.0,0.0,0.0,0.0,0.0,0.0,0.0,0.0,0.0,0.0,0.0,0.0,0.0,0.0,0.0,0.0,0.0,0.0,0.0,0.0,0.0,0.0,0.0,0.0,0.0,0.0,0.0,0.0,0.0,0.0,0.0,0.0,0.0,0.0,0.0,0.0,0.0,0.0,0.0,0.0,0.0,0.0,0.0,0.0,0.0,0.0,0.0,0.0,0.0,0.0,0.0,0.0,0.0,0.0,0.0,0.0,0.0,0.0,0.0,0.0,0.0,0.0,0.0,0.0,0.0,0.0,0.0,0.0,0.0,0.0,0.0,0.0,0.0,0.0,0.0,0.0,0.0,0.0,0.0,0.0,0.0,0.0,0.0,0.0,0.0,0.0,0.0,0.0,0.0,0.0,0.0,0.0,0.0,0.0,0.0,0.0,0.0,0.0,0.0,0.0,0.0,0.0,0.0,0.0,0.0,0.0,0.0,0.0,0.0,0.0,0.0,0.0,0.0,0.0,0.0,0.0,0.0,0.0,0.0,0.0,0.0,0.0,0.0,0.0,0.0,0.0,0.0,0.0,0.0,0.0,0.0,0.0,0.0,0.0,0.0,0.0,0.0,0.0,0.0,0.0,0.0,0.0,0.0,0.0,0.0,0.0,0.0,0.0,0.0,0.0,0.0,0.0,0.0,0.0,0.0,0.0,0.0,0.0,0.0,0.0,0.0,0.0,0.0,0.0,0.0,0.0,0.0,0.0,0.0,0.0,0.0,0.0,0.0,0.0,0.0,0.0,0.0,0.0,0.0,0.0,0.0,0.0,0.0,0.0,0.0,0.0,0.0,0.0,0.0,0.0,0.0,0.0,0.0,0.0,0.0,0.0,0.0,0.0,0.0,0.0,0.0,0.0,0.0,0.0,0.0,0.0,0.0,0.0,0.0,0.0,0.0,0.0,0.0,0.0,0.0,0.0,0.0,0.0,0.0,0.0,0.0,0.0,0.0,0.0,0.0,0.0,0.0,0.0,0.0,0.0,0.0,0.0,0.0,0.0,0.0,0.0,0.0,0.0,0.0,0.0,0.0,0.0,0.0,0.0,0.0,0.0,0.0,0.0,0.0,0.0,0.0,0.0,0.0,0.0,0.0,0.0,0.0,0.0,0.0,0.0,0.0,0.0,0.0,0.0,0.0,0.0,0.0,0.0,0.0,0.0,0.0,0.0,0.0,0.0,0.0,0.0,0.0,0.0,0.0,0.0,0.0,0.0,0.0,0.0,0.0,0.0,0.0,0.0,0.0,0.0,0.0,0.0,0.0,0.0,0.0,0.0,0.0,0.0,0.0,0.0,0.0,0.0,0.0,0.0,0.0,0.0,0.0,0.0,0.0,0.0,0.0,0.0,0.0,0.0,0.0,0.0,0.0,0.0,0.0,0.0,0.0,0.0,0.0,0.0,0.0,0.0,0.0,0.0,0.0,0.0,0.0,0.0,0.0,0.0,0.0,0.0,0.0,0.0,0.0,0.0,0.0,0.0,0.0,0.0,0.0,0.0,0.0,0.0,0.0,0.0,0.0,0.0,0.0,0.0,0.0,0.0,0.0,0.0,0.0,0.0,0.0,0.0,0.0,0.0,0.0,0.0,0.0,0.0,0.0,0.0,0.0,0.0,0.0,0.0,0.0,0.0,0.0,0.0,0.0,0.0,0.0,0.0,0.0,0.0,0.0,0.0,0.0,0.0,0.0,0.0,0.0,0.0,0.0,0.0,0.0,0.0,0.0,0.0,0.0,0.0,0.0,0.0,0.0,0.0,0.0,0.0,0.0,0.0,0.0,0.0,0.0,0.0,0.0,0.0,0.0,0.0,0.0,0.0,0.0,0.0,0.0,0.0,0.0,0.0,0.0,0.0,0.0,0.0,0.0,0.0,0.0,0.0,0.0,0.0,0.0,0.0,0.0,0.0,0.0,0.0,0.0,0.0,0.0,0.0,0.0,0.0,0.0,0.0,0.0,0.0,0.0,0.0,0.0,0.0,0.0,0.0,0.0,0.0,0.0,0.0,0.0,0.0,0.0,0.0,0.0,0.0,0.0,0.0,0.0,0.0,0.0,0.0,0.0,0.0,0.0,0.0,0.0,0.0,0.0,0.0,0.0,0.0,0.0,0.0,0.0,0.0,0.0,0.0,0.0,0.0,0.0,0.0,0.0,0.0,0.0,0.0,0.0,0.0,0.0,0.0,0.0,0.0,0.0,0.0,0.0,0.0,0.0,0.0,0.0,0.0,0.0,0.0,0.0,0.0,0.0,0.0,0.0,0.0,0.0,0.0,0.0,0.0,0.0,0.0,0.0,0.0,0.0,0.0,0.0,0.0,0.0,0.0,0.0,0.0,0.0,0.0,0.0,0.0,0.0,0.0,0.0,0.0,0.0,0.0,0.0,0.0,0.0,0.0,0.0,0.0,0.0,0.0,0.0,0.0,0.0,0.0,0.0,0.0,0.0,0.0,0.0,0.0,0.0,0.0,0.0,0.0,0.0,0.0,0.0,0.0,0.0,0.0,0.0,0.0,0.0,0.0,0.0,0.0,0.0,0.0,0.0,0.0,0.0,0.0,0.0,0.0,0.0,0.0,0.0,0.0,0.0,0.0,0.0,0.0,0.0,0.0,0.0,0.0,0.0,0.0,0.0,0.0,0.0,0.0,0.0,0.0,0.0,0.0,0.0,0.0,0.0,0.0,0.0,0.0,0.0,0.0,0.0,0.0,0.0,0.0,0.0,0.0,0.0,0.0,0.0,0.0,0.0,0.0,0.0,0.0,0.0,0.0,0.0,0.0,0.0,0.0,0.0,0.0,0.0,0.0,0.0,0.0,0.0,0.0,0.0,0.0,0.0,0.0,0.0,0.0,0.0,0.0,0.0,0.0,0.0,0.0,0.0,0.0,0.0,0.0,0.0,0.0,0.0,0.0,0.0,0.0,0.0,0.0,0.0,0.0,0.0,0.0,0.0,0.0,0.0,0.0,0.0,0.0,0.0,0.0,0.0,0.0,0.0,0.0,0.0,0.0,0.0,0.0,0.0,-0.1097,0.0,0.0,0.0,0.0,0.0,0.0,0.0,0.0,0.0,0.0,0.0,0.0,0.0,0.0,0.0,0.0,0.0,0.0,0.0,0.0,0.0,0.0,0.0,0.0,0.0,0.0,0.0,0.0,0.0,0.0,0.0,0.0,0.0,0.0,0.0,0.0,0.0,0.0,0.0,0.0,0.0,0.0,0.0,0.0,0.0,0.0,0.0,0.0,0.0,0.0,0.0,0.0,0.0,0.0,0.0,0.0,0.0,0.0,0.0,0.0,0.0,0.0,0.0,0.0,0.0,0.0,0.0,0.0,0.0,0.0,0.0,0.0,0.0,0.0,0.0,0.0,0.0,0.0,0.0,0.0,0.0,0.0,0.0,0.0,0.0,0.0,0.0,0.0,0.0,0.0,0.0,0.0,0.0,0.0,0.0,0.0,0.0,0.0,0.0,0.0,0.0,0.0,0.0,0.0,0.0,0.0,0.0,0.0,0.0,0.0,-0.0829,-0.0888,-0.094,-0.0991,-0.1097,0.0,0.0,0.0,0.0,0.0,0.0,0.0,0.0,0.0,0.0,0.0,0.0,0.0,0.0,0.0,0.0,0.0,0.0,0.0,0.0,0.0,0.0,0.0,0.0,0.0,0.0,0.0,0.0,0.0,0.0,0.0,0.0,0.0,0.0,0.0,0.0,0.0,0.0,0.0,0.0,0.0,0.0,0.0,0.0,0.0,0.0,0.0,0.0,0.0,0.0,0.0,0.0,0.0,0.0,0.0,0.0,0.0,0.0,0.0,0.0,0.0,0.0,0.0,0.0,0.0,0.0,0.0,0.0,0.0,0.0,0.0,0.0,0.0,0.0,0.0,0.0,0.0,0.0,0.0,0.0,0.0,0.0,0.0,0.0,0.0,0.0,0.0,0.0,0.0,0.0,0.0,0.0,0.0,0.0,0.0,0.0,0.0,0.0,0.0,0.0,0.0,0.0,0.0,0.0,0.0,0.0,0.0,0.0,0.0,0.0,0.0,0.0,-0.0888,-0.0962,-0.1118,0.0,0.0,0.0,0.0,0.0,0.0,0.0,0.0,0.0,0.0,0.0,0.0,0.0,0.0,0.0,0.0,0.0,0.0,0.0,0.0,0.0,0.0,0.0,0.0,0.0,0.0,0.0,0.0,0.0,0.0,0.0,0.0,0.0,0.0,0.0,0.0,0.0,0.0,0.0,0.0,0.0,0.0,0.0,0.0,0.0,0.0,0.0,0.0,0.0,0.0,0.0,0.0,0.0,0.0,0.0,0.0,0.0,0.0,0.0,0.0,0.0,0.0,0.0,0.0,0.0,0.0,0.0,0.0,0.0,0.0,0.0,0.0,0.0,0.0,0.0,0.0,0.0,0.0,0.0,0.0,0.0,0.0,0.0,0.0,0.0,0.0,0.0,0.0,0.0,0.0,0.0,0.0,0.0,0.0,0.0,0.0,0.0,0.0,0.0,0.0,0.0,0.0,0.0,0.0,0.0,0.0,0.0,0.0,0.0,0.0,-0.074,-0.0796,-0.0877,0.0,-0.1153,0.0,0.0,0.0,0.0,0.0,0.0,0.0,0.0,0.0,0.0,0.0,0.0,0.0,0.0,0.0,0.0,0.0,0.0,0.0,0.0,0.0,0.0,0.0,0.0,0.0,0.0,0.0,0.0,0.0,0.0,0.0,0.0,0.0,0.0,0.0,0.0,0.0,0.0,0.0,0.0,0.0,0.0,0.0,0.0,0.0,0.0,0.0,0.0,0.0,0.0,0.0,0.0,0.0,0.0,0.0,0.0,0.0,0.0,0.0,0.0,0.0,0.0,0.0,0.0,0.0,0.0,0.0,0.0,0.0,0.0,0.0,0.0,0.0,0.0,0.0,0.0,0.0,0.0,0.0,0.0,0.0,0.0,0.0,0.0,0.0,0.0,0.0,0.0,0.0,0.0,0.0,0.0,0.0,0.0,0.0,0.0,0.0,0.0,0.0,0.0,0.0,0.0,0.0,0.0,0.0,0.0,0.0,0.0,0.0,0.0,-0.0729,-0.0796,-0.1056,-0.123,0.0,0.0,0.0,0.0,0.0,0.0,0.0,0.0,0.0,0.0,0.0,0.0,0.0,0.0,0.0,0.0,0.0,0.0,0.0,0.0,0.0,0.0,0.0,0.0,0.0,0.0,0.0,0.0,0.0,0.0,0.0,0.0,0.0,0.0,0.0,0.0,0.0,0.0,0.0,0.0,0.0,0.0,0.0,0.0,0.0,0.0,0.0,0.0,0.0,0.0,0.0,0.0,0.0,0.0,0.0,0.0,0.0,0.0,0.0,0.0,0.0,0.0,0.0,0.0,0.0,0.0,0.0,0.0,0.0,0.0,0.0,0.0,0.0,0.0,0.0,0.0,0.0,0.0,0.0,0.0,0.0,0.0,0.0,0.0,0.0,0.0,0.0,0.0,0.0,0.0,0.0,0.0,0.0,0.0,0.0,0.0,0.0,0.0,0.0,0.0,0.0,0.0,0.0,0.0,0.0,0.0,0.0,0.0,0.0,0.0,-0.0776,-0.0853,-0.0996,-0.1317,-0.1509,-0.1561,0.0,0.0,0.0,0.0,0.0,0.0,0.0,0.0,0.0,0.0,0.0,0.0,0.0,0.0,0.0,0.0,0.0,0.0,0.0,0.0,0.0,0.0,0.0,0.0,0.0,0.0,0.0,0.0,0.0,0.0,0.0,0.0,0.0,0.0,0.0,0.0,0.0,0.0,0.0,0.0,0.0,0.0,0.0,0.0,0.0,0.0,0.0,0.0,0.0,0.0,0.0,0.0,0.0,0.0,0.0,0.0,0.0,0.0,0.0,0.0,0.0,0.0,0.0,0.0,0.0,0.0,0.0,0.0,0.0,0.0,0.0,0.0,0.0,0.0,0.0,0.0,0.0,0.0,0.0,0.0,0.0,0.0,0.0,0.0,0.0,0.0,0.0,0.0,0.0,0.0,0.0,0.0,0.0,0.0,0.0,0.0,0.0,0.0,0.0,0.0,0.0,0.0,0.0,0.0,0.0,0.0,0.0,0.0,-0.0886,-0.0966,-0.1141,-0.1455,-0.1616,-0.1771,0.0,0.0,0.0,0.0,0.0,0.0,0.0,0.0,0.0,0.0,0.0,0.0,0.0,0.0,0.0,0.0,0.0,0.0,0.0,0.0,0.0,0.0,0.0,0.0,0.0,0.0,0.0,0.0,0.0,0.0,0.0,0.0,0.0,0.0,0.0,0.0,0.0,0.0,0.0,0.0,0.0,0.0,0.0,0.0,0.0,0.0,0.0,0.0,0.0,0.0,0.0,0.0,0.0,0.0,0.0,0.0,0.0,0.0,0.0,0.0,0.0,0.0,0.0,0.0,0.0,0.0,0.0,0.0,0.0,0.0,0.0,0.0,0.0,0.0,0.0,0.0,0.0,0.0,0.0,0.0,0.0,0.0,0.0,0.0,0.0,0.0,0.0,0.0,0.0,0.0,0.0,0.0,0.0,0.0,0.0,0.0,0.0,0.0,0.0,0.0,0.0,0.0,0.0,0.0,0.0,0.0,0.0,0.0,0.0,-0.0952,-0.1071,-0.1224,-0.1419,-0.1532,-0.1638,0.0,0.0,0.0,0.0,0.0,0.0,0.0,0.0,0.0,0.0,0.0,0.0,0.0,0.0,0.0,0.0,0.0,0.0,0.0,0.0,0.0,0.0,0.0,0.0,0.0,0.0,0.0,0.0,0.0,0.0,0.0,0.0,0.0,0.0,0.0,0.0,0.0,0.0,0.0,0.0,0.0,0.0,0.0,0.0,0.0,0.0,0.0,0.0,0.0,0.0,0.0,0.0,0.0,0.0,0.0,0.0,0.0,0.0,0.0,0.0,0.0,0.0,0.0,0.0,0.0,0.0,0.0,0.0,0.0,0.0,0.0,0.0,0.0,0.0,0.0,0.0,0.0,0.0,0.0,0.0,0.0,0.0,0.0,0.0,0.0,0.0,0.0,0.0,0.0,0.0,0.0,0.0,0.0,0.0,0.0,0.0,0.0,0.0,0.0,0.0,0.0,0.0,0.0,0.0,0.0,0.0,0.0,0.0,0.0,-0.1092,0.0,-0.1482,0.0,-0.1625,-0.1697,0.0,0.0,0.0,0.0,0.0,0.0,0.0,0.0,0.0,0.0,0.0,0.0,0.0,0.0,0.0,0.0,0.0,0.0,0.0,0.0,0.0,0.0,0.0,0.0,0.0,0.0,0.0,0.0,0.0,0.0,0.0,0.0,0.0,0.0,0.0,0.0,0.0,0.0,0.0,0.0,0.0,0.0,0.0,0.0,0.0,0.0,0.0,0.0,0.0,0.0,0.0,0.0,0.0,0.0,0.0,0.0,0.0,0.0,0.0,0.0,0.0,0.0,0.0,0.0,0.0,0.0,0.0,0.0,0.0,0.0,0.0,0.0,0.0,0.0,0.0,0.0,0.0,0.0,0.0,0.0,0.0,0.0,0.0,0.0,0.0,0.0,0.0,0.0,0.0,0.0,0.0,0.0,0.0,0.0,0.0,0.0,0.0,0.0,0.0,0.0,0.0,0.0,0.0,0.0,0.0,0.0,0.0,0.0,-0.0853,-0.1303,-0.1754,-0.1916,-0.1806,-0.1917,-0.1959,0.0,0.0,0.0,0.0,0.0,0.0,0.0,0.0,0.0,0.0,0.0,0.0,0.0,0.0,0.0,0.0,0.0,0.0,0.0,0.0,0.0,0.0,0.0,0.0,0.0,0.0,0.0,0.0,0.0,0.0,0.0,0.0,0.0,0.0,0.0,0.0,0.0,0.0,0.0,0.0,0.0,0.0,0.0,0.0,0.0,0.0,0.0,0.0,0.0,0.0,0.0,0.0,0.0,0.0,0.0,0.0,0.0,0.0,0.0,0.0,0.0,0.0,0.0,0.0,0.0,0.0,0.0,0.0,0.0,0.0,0.0,0.0,0.0,0.0,0.0,0.0,0.0,0.0,0.0,0.0,0.0,0.0,0.0,0.0,0.0,0.0,0.0,0.0,0.0,0.0,0.0,0.0,0.0,0.0,0.0,0.0,0.0,0.0,0.0,0.0,0.0,0.0,0.0,0.0,0.0,0.0,0.0,0.0,0.0,-0.1714,-0.2036,-0.217,-0.2088,-0.203,-0.1961,0.0,0.0,0.0,0.0,0.0,0.0,0.0,0.0,0.0,0.0,0.0,0.0,0.0,0.0,0.0,0.0,0.0,0.0,0.0,0.0,0.0,0.0,0.0,0.0,0.0,0.0,0.0,0.0,0.0,0.0,0.0,0.0,0.0,0.0,0.0,0.0,0.0,0.0,0.0,0.0,0.0,0.0,0.0,0.0,0.0,0.0,0.0,0.0,0.0,0.0,0.0,0.0,0.0,0.0,0.0,0.0,0.0,0.0,0.0,0.0,0.0,0.0,0.0,0.0,0.0,0.0,0.0,0.0,0.0,0.0,0.0,0.0,0.0,0.0,0.0,0.0,0.0,0.0,0.0,0.0,0.0,0.0,0.0,0.0,0.0,0.0,0.0,0.0,0.0,0.0,0.0,0.0,0.0,0.0,0.0,0.0,0.0,0.0,0.0,0.0,0.0,0.0,0.0,0.0,0.0,0.0,0.0,0.0,0.0,-0.2403,-0.2426,-0.2467,-0.2501,-0.2231,-0.2045,-0.1971,0.0,0.0,0.0,0.0,0.0,0.0,0.0,0.0,0.0,0.0,0.0,0.0,0.0,0.0,0.0,0.0,0.0,0.0,0.0,0.0,0.0,0.0,0.0,0.0,0.0,0.0,0.0,0.0,0.0,0.0,0.0,0.0,0.0,0.0,0.0,0.0,0.0,0.0,0.0,0.0,0.0,0.0,0.0,0.0,0.0,0.0,0.0,0.0,0.0,0.0,0.0,0.0,0.0,0.0,0.0,0.0,0.0,0.0,0.0,0.0,0.0,0.0,0.0,0.0,0.0,0.0,0.0,0.0,0.0,0.0,0.0,0.0,0.0,0.0,0.0,0.0,0.0,0.0,0.0,0.0,0.0,0.0,0.0,0.0,0.0,0.0,0.0,0.0,0.0,0.0,0.0,0.0,0.0,0.0,0.0,0.0,0.0,0.0,0.0,0.0,0.0,0.0,0.0,0.0,0.0,0.0,0.0,0.0,-0.3311,-0.3017,-0.2931,-0.3058,-0.2563,-0.2231,0.0,0.0,0.0,0.0,0.0,0.0,0.0,0.0,0.0,0.0,0.0,0.0,0.0,0.0,0.0,0.0,0.0,0.0,0.0,0.0,0.0,0.0,0.0,0.0,0.0,0.0,0.0,0.0,0.0,0.0,0.0,0.0,0.0,0.0,0.0,0.0,0.0,0.0,0.0,0.0,0.0,0.0,0.0,0.0,0.0,0.0,0.0,0.0,0.0,0.0,0.0,0.0,0.0,0.0,0.0,0.0,0.0,0.0,0.0,0.0,0.0,0.0,0.0,0.0,0.0,0.0,0.0,0.0,0.0,0.0,0.0,0.0,0.0,0.0,0.0,0.0,0.0,0.0,0.0,0.0,0.0,0.0,0.0,0.0,0.0,0.0,0.0,0.0,0.0,0.0,0.0,0.0,0.0,0.0,0.0,0.0,0.0,0.0,0.0,0.0,0.0,0.0,0.0,0.0,0.0,0.0,0.0,0.0,0.0,-0.3584,-0.4275,-0.434,-0.3765,-0.342,-0.2876,0.0,0.0,0.0,0.0,0.0,0.0,0.0,0.0,0.0,0.0,0.0,0.0,0.0,0.0,0.0,0.0,0.0,0.0,0.0,0.0,0.0,0.0,0.0,0.0,0.0,0.0,0.0,0.0,0.0,0.0,0.0,0.0,0.0,0.0,0.0,0.0,0.0,0.0,0.0,0.0,0.0,0.0,0.0,0.0,0.0,0.0,0.0,0.0,0.0,0.0,0.0,0.0,0.0,0.0,0.0,0.0,0.0,0.0,0.0,0.0,0.0,0.0,0.0,0.0,0.0,0.0,0.0,0.0,0.0,0.0,0.0,0.0,0.0,0.0,0.0,0.0,0.0,0.0,0.0,0.0,0.0,0.0,0.0,0.0,0.0,0.0,0.0,0.0,0.0,0.0,0.0,0.0,0.0,0.0,0.0,0.0,0.0,0.0,0.0,0.0,0.0,0.0,0.0,0.0,0.0,0.0,0.0,0.0,-0.3258,-0.4068,-0.5347,-0.5716,-0.5144,-0.426,-0.3379,0.0,0.0,0.0,0.0,0.0,0.0,0.0,0.0,0.0,0.0,0.0,0.0,0.0,0.0,0.0,0.0,0.0,0.0,0.0,0.0,0.0,0.0,0.0,0.0,0.0,0.0,0.0,0.0,0.0,0.0,0.0,0.0,0.0,0.0,0.0,0.0,0.0,0.0,0.0,0.0,0.0,0.0,0.0,0.0,0.0,0.0,0.0,0.0,0.0,0.0,0.0,0.0,0.0,0.0,0.0,0.0,0.0,0.0,0.0,0.0,0.0,0.0,0.0,0.0,0.0,0.0,0.0,0.0,0.0,0.0,0.0,0.0,0.0,0.0,0.0,0.0,0.0,0.0,0.0,0.0,0.0,0.0,0.0,0.0,0.0,0.0,0.0,0.0,0.0,0.0,0.0,0.0,0.0,0.0,0.0,0.0,0.0,0.0,0.0,0.0,0.0,0.0,0.0,0.0,0.0,0.0,0.0,0.0,-0.3293,-0.4649,-0.6237,-0.6948,-0.6678,-0.5143,-0.3882,0.0,0.0,0.0,0.0,0.0,0.0,0.0,0.0,0.0,0.0,0.0,0.0,0.0,0.0,0.0,0.0,0.0,0.0,0.0,0.0,0.0,0.0,0.0,0.0,0.0,0.0,0.0,0.0,0.0,0.0,0.0,0.0,0.0,0.0,0.0,0.0,0.0,0.0,0.0,0.0,0.0,0.0,0.0,0.0,0.0,0.0,0.0,0.0,0.0,0.0,0.0,0.0,0.0,0.0,0.0,0.0,0.0,0.0,0.0,0.0,0.0,0.0,0.0,0.0,0.0,0.0,0.0,0.0,0.0,0.0,0.0,0.0,0.0,0.0,0.0,0.0,0.0,0.0,0.0,0.0,0.0,0.0,0.0,0.0,0.0,0.0,0.0,0.0,0.0,0.0,0.0,0.0,0.0,0.0,0.0,0.0,0.0,0.0,0.0,0.0,0.0,0.0,0.0,0.0,0.0,0.0,0.0,0.0,-0.3995,-0.515,-0.672,-0.7271,-0.6702,-0.5984,-0.5046,0.0,0.0,0.0,0.0,0.0,0.0,0.0,0.0,0.0,0.0,0.0,0.0,0.0,0.0,0.0,0.0,0.0,0.0,0.0,0.0,0.0,0.0,0.0,0.0,0.0,0.0,0.0,0.0,0.0,0.0,0.0,0.0,0.0,0.0,0.0,0.0,0.0,0.0,0.0,0.0,0.0,0.0,0.0,0.0,0.0,0.0,0.0,0.0,-0.4481,0.0,0.0,0.0,0.0,0.0,0.0,0.0,0.0,0.0,0.0,0.0,0.0,0.0,0.0,0.0,0.0,0.0,0.0,0.0,0.0,0.0,0.0,0.0,0.0,0.0,0.0,0.0,0.0,0.0,0.0,0.0,0.0,0.0,0.0,0.0,0.0,0.0,0.0,0.0,0.0,0.0,0.0,0.0,0.0,0.0,0.0,0.0,0.0,0.0,0.0,0.0,0.0,0.0,0.0,0.0,0.0,0.0,0.0,0.0,-0.504,-0.7392,-0.7974,-0.8239,-0.8271,-0.7611,-0.6241,0.0,0.0,0.0,0.0,0.0,0.0,0.0,0.0,0.0,0.0,0.0,0.0,0.0,0.0,0.0,0.0,0.0,0.0,0.0,0.0,0.0,0.0,0.0,0.0,0.0,0.0,0.0,0.0,0.0,0.0,0.0,0.0,0.0,0.0,0.0,0.0,0.0,0.0,0.0,0.0,0.0,0.0,0.0,0.0,0.0,0.0,0.0,0.0,0.0,0.0,0.0,0.0,0.0,0.0,0.0,0.0,0.0,0.0,0.0,0.0,0.0,0.0,0.0,0.0,0.0,0.0,0.0,0.0,0.0,0.0,0.0,0.0,0.0,0.0,0.0,0.0,0.0,0.0,0.0,0.0,0.0,0.0,0.0,0.0,0.0,0.0,0.0,0.0,0.0,0.0,0.0,0.0,0.0,0.0,0.0,0.0,0.0,0.0,0.0,0.0,0.0,0.0,0.0,0.0,0.0,0.0,0.0,-0.4629,-0.6349,-0.9484,-0.9718,-0.987,-1.0073,-0.9262,-0.7326,-0.4182,0.0,0.0,0.0,0.0,0.0,0.0,0.0,0.0,0.0,0.0,0.0,0.0,0.0,0.0,0.0,0.0,0.0,0.0,0.0,0.0,0.0,0.0,0.0,0.0,0.0,0.0,0.0,0.0,0.0,0.0,0.0,0.0,0.0,0.0,0.0,0.0,0.0,0.0,-0.4302,-0.5099,0.0,0.0,0.0,0.0,0.0,0.0,0.0,0.0,-0.4772,0.0,0.0,0.0,0.0,0.0,0.0,0.0,0.0,0.0,0.0,0.0,0.0,0.0,0.0,0.0,0.0,0.0,0.0,0.0,0.0,0.0,0.0,0.0,0.0,0.0,0.0,0.0,0.0,0.0,0.0,0.0,0.0,0.0,0.0,0.0,0.0,0.0,0.0,0.0,0.0,0.0,0.0,0.0,0.0,0.0,0.0,0.0,0.0,0.0,0.0,0.0,0.0,0.0,0.0,0.0,0.0,-0.3096,-0.6224,-0.8095,-0.8596,-1.2126,-1.2715,-1.0158,-0.9599,-0.788,-0.4843,0.0,0.0,0.0,0.0,0.0,0.0,0.0,0.0,0.0,0.0,0.0,0.0,0.0,0.0,0.0,0.0,0.0,0.0,0.0,0.0,0.0,0.0,0.0,0.0,0.0,0.0,0.0,0.0,0.0,0.0,0.0,0.0,0.0,0.0,0.0,0.0,0.0,0.0,0.0,-0.5575,-0.7046,0.0,0.0,0.0,0.0,0.0,0.0,0.0,0.0,-0.4425,0.0,0.0,0.0,0.0,0.0,0.0,0.0,0.0,0.0,0.0,0.0,0.0,0.0,0.0,0.0,0.0,0.0,0.0,0.0,0.0,0.0,0.0,0.0,0.0,0.0,0.0,0.0,0.0,0.0,0.0,0.0,0.0,0.0,0.0,0.0,0.0,0.0,0.0,0.0,0.0,0.0,0.0,0.0,0.0,0.0,0.0,0.0,0.0,0.0,0.0,0.0,0.0,0.0,0.0,0.0,-0.394,-0.5127,-0.7057,-0.9781,-1.2314,-1.2834,-1.1252,-1.0221,-0.8399,0.0,0.0,0.0,0.0,0.0,0.0,0.0,0.0,0.0,0.0,0.0,0.0,0.0,0.0,0.0,0.0,0.0,0.0,0.0,0.0,0.0,0.0,0.0,0.0,0.0,0.0,0.0,0.0,0.0,0.0,0.0,0.0,0.0,0.0,0.0,0.0,0.0,0.0,0.0,0.0,-0.6066,-0.7412,-0.7808,0.0,0.0,0.0,0.0,0.0,0.0,-0.64,-0.621,0.0,0.0,0.0,0.0,0.0,0.0,0.0,0.0,0.0,0.0,0.0,0.0,0.0,0.0,0.0,0.0,0.0,0.0,0.0,0.0,0.0,0.0,0.0,0.0,0.0,0.0,0.0,0.0,0.0,0.0,0.0,0.0,0.0,0.0,0.0,0.0,0.0,0.0,0.0,0.0,0.0,0.0,0.0,0.0,0.0,0.0,0.0,0.0,0.0,0.0,0.0,0.0,0.0,0.0,0.0,-0.4879,-0.367,-0.5751,-1.1212,-1.1986,-1.234,-1.2468,-1.1131,-0.9073,0.0,0.0,0.0,0.0,0.0,0.0,0.0,0.0,0.0,0.0,0.0,0.0,0.0,0.0,0.0,0.0,0.0,0.0,0.0,0.0,0.0,0.0,0.0,0.0,0.0,0.0,0.0,0.0,0.0,0.0,0.0,0.0,0.0,0.0,0.0,0.0,0.0,0.0,0.0,0.0,0.0,-0.7828,-0.7929,-0.8358,0.0,0.0,0.0,0.0,-0.7715,-0.7802,0.0,0.0,0.0,0.0,0.0,0.0,0.0,0.0,0.0,0.0,0.0,0.0,0.0,0.0,0.0,0.0,0.0,0.0,0.0,0.0,0.0,0.0,0.0,0.0,0.0,0.0,0.0,0.0,0.0,0.0,0.0,0.0,0.0,0.0,0.0,0.0,0.0,0.0,0.0,0.0,0.0,0.0,0.0,0.0,0.0,0.0,0.0,0.0,0.0,0.0,0.0,0.0,0.0,0.0,0.0,0.0,-0.4643,-0.3566,-0.5901,-1.1738,-1.2123,-1.2456,-1.3156,-1.2424,-1.0112,0.0,0.0,0.0,0.0,0.0,0.0,0.0,0.0,0.0,0.0,0.0,0.0,0.0,0.0,0.0,0.0,0.0,0.0,0.0,0.0,0.0,0.0,0.0,0.0,0.0,0.0,0.0,0.0,0.0,0.0,0.0,0.0,0.0,0.0,0.0,0.0,0.0,0.0,0.0,0.0,0.0,-0.885,-1.1711,-0.9663,-0.7935,0.0,0.0,-0.9196,-1.0397,-1.0128,0.0,0.0,0.0,0.0,0.0,0.0,0.0,0.0,0.0,0.0,0.0,0.0,0.0,0.0,0.0,0.0,0.0,0.0,0.0,0.0,0.0,0.0,0.0,0.0,0.0,0.0,0.0,0.0,0.0,0.0,0.0,0.0,0.0,0.0,0.0,0.0,0.0,0.0,0.0,0.0,0.0,0.0,0.0,0.0,0.0,0.0,0.0,0.0,0.0,0.0,0.0,0.0,0.0,0.0,0.0,-0.1205,-0.3503,-0.4949,-0.7166,-1.016,-1.0646,-1.1394,-1.2542,-1.2354,-1.0164,0.0,0.0,0.0,0.0,0.0,0.0,0.0,0.0,0.0,0.0,0.0,0.0,0.0,0.0,0.0,0.0,0.0,0.0,0.0,0.0,0.0,0.0,0.0,0.0,0.0,0.0,0.0,0.0,0.0,0.0,0.0,0.0,0.0,0.0,0.0,0.0,0.0,0.0,0.0,0.0,0.0,0.0,-1.2391,-1.0564,0.0,0.0,0.0,-0.9623,-1.075,0.0,0.0,0.0,0.0,0.0,0.0,0.0,0.0,0.0,0.0,0.0,0.0,0.0,0.0,0.0,0.0,0.0,0.0,0.0,0.0,0.0,0.0,0.0,0.0,0.0,0.0,0.0,0.0,0.0,0.0,0.0,0.0,0.0,0.0,0.0,0.0,0.0,0.0,0.0,0.0,0.0,0.0,0.0,0.0,0.0,0.0,0.0,0.0,0.0,0.0,0.0,0.0,0.0,0.0,0.0,0.0,0.0,-0.3071,-0.5375,-0.7531,-0.9438,-0.9648,-1.0524,-1.2204,-1.2206,0.0,0.0,0.0,0.0,0.0,0.0,0.0,0.0,0.0,0.0,0.0,0.0,0.0,0.0,0.0,0.0,0.0,0.0,0.0,0.0,0.0,0.0,0.0,0.0,0.0,0.0,0.0,-0.113,0.0,0.0,0.0,0.0,0.0,0.0,0.0,0.0,0.0,0.0,0.0,0.0,0.0,0.0,-0.9765,-1.244,-1.1205,-0.9539,0.0,0.0,-0.9764,-1.0103,-1.0013,-0.9364,0.0,0.0,0.0,0.0,0.0,0.0,0.0,0.0,0.0,0.0,0.0,0.0,0.0,0.0,0.0,0.0,0.0,0.0,0.0,0.0,0.0,0.0,0.0,0.0,0.0,0.0,0.0,0.0,0.0,0.0,0.0,0.0,0.0,0.0,0.0,0.0,0.0,0.0,0.0,0.0,0.0,0.0,0.0,0.0,0.0,0.0,0.0,0.0,0.0,0.0,0.0,0.0,0.0,0.0,0.0,-0.4219,-0.3625,-0.5955,-1.1196,-1.0015,-1.046,-1.2907,-1.2378,-0.9943,0.0,0.0,0.0,0.0,0.0,0.0,0.0,0.0,0.0,0.0,0.0,0.0,0.0,0.0,0.0,0.0,0.0,0.0,0.0,0.0,0.0,0.0,0.0,0.0,0.0,0.0,0.0,0.0,0.0,0.0,0.0,0.0,0.0,0.0,0.0,0.0,0.0,0.0,0.0,0.0,0.0,-0.9708,-1.2423,-1.1512,-1.0318,0.0,0.0,-0.9476,-0.8525,-0.9797,-0.9718,-0.6193,0.0,0.0,0.0,0.0,0.0,0.0,0.0,0.0,0.0,0.0,0.0,0.0,0.0,0.0,0.0,0.0,0.0,0.0,0.0,0.0,0.0,0.0,0.0,0.0,0.0,0.0,0.0,0.0,0.0,0.0,0.0,0.0,0.0,0.0,0.0,0.0,0.0,0.0,0.0,0.0,0.0,0.0,0.0,0.0,0.0,0.0,0.0,0.0,0.0,0.0,0.0,0.0,0.0,-0.1266,-0.4019,-0.3755,-0.5839,-1.0302,-1.0378,-1.0964,-1.2321,-1.26,-1.0359,0.0,0.0,0.0,0.0,0.0,0.0,0.0,0.0,0.0,0.0,0.0,0.0,0.0,0.0,0.0,0.0,0.0,0.0,0.0,0.0,0.0,0.0,0.0,0.0,0.0,0.0,0.0,0.0,-0.4477,-0.4554,-0.4679,0.0,0.0,0.0,0.0,0.0,0.0,0.0,0.0,0.0,0.0,-1.0244,-1.2488,-1.1578,0.0,0.0,-1.0543,-0.937,-0.8305,-0.8695,-0.828,-0.5758,-0.6276,0.0,0.0,0.0,0.0,0.0,0.0,0.0,0.0,0.0,0.0,0.0,0.0,0.0,0.0,0.0,0.0,0.0,0.0,0.0,0.0,0.0,0.0,0.0,0.0,0.0,0.0,0.0,0.0,0.0,0.0,0.0,0.0,0.0,0.0,0.0,0.0,0.0,0.0,0.0,0.0,0.0,0.0,0.0,0.0,0.0,0.0,0.0,0.0,0.0,0.0,0.0,0.0,-0.1422,-0.3666,-0.4126,-0.6176,-0.9931,-1.0553,-1.1301,-1.222,-1.2851,-1.088,0.0,0.0,0.0,0.0,0.0,0.0,0.0,0.0,0.0,0.0,0.0,0.0,0.0,0.0,0.0,0.0,0.0,0.0,0.0,0.0,0.0,0.0,0.0,0.0,0.0,0.0,0.0,0.0,-0.5606,-0.4565,-0.4696,0.0,0.0,0.0,0.0,0.0,0.0,0.0,0.0,0.0,0.0,-1.1113,-1.2642,-1.2131,-1.1832,-1.2489,-1.1448,-1.0112,-0.8835,-0.8213,-0.7477,-0.6262,0.0,0.0,0.0,0.0,0.0,0.0,0.0,0.0,0.0,0.0,0.0,0.0,0.0,0.0,0.0,0.0,0.0,0.0,0.0,0.0,0.0,0.0,0.0,0.0,0.0,0.0,0.0,0.0,0.0,0.0,0.0142,0.0,0.0,0.0,0.0,0.0,0.0,0.0,0.0,0.0,0.0,0.0,0.0,0.0,0.0,0.0,0.0,0.0,0.0,0.0,0.0,0.0,0.0,-0.1637,-0.349,-0.4601,-0.686,-1.0355,-1.0518,-1.1365,-1.2943,-1.3093,-1.1435,-0.7924,0.0,0.0,0.0,0.0,0.0,0.0,0.0,0.0,0.0,0.0,0.0,0.0,0.0,0.0,0.0,0.0,0.0,0.0,0.0,0.0,0.0,0.0,0.0,0.0,0.0,0.0,-1.2603,-0.8019,-0.4561,0.0,0.0,0.0,0.0,0.0,0.0,0.0,0.0,0.0,0.0,-0.979,-1.2224,-1.3052,-1.3385,-1.3195,-1.2426,-1.242,-1.1895,-1.0109,-0.8595,-0.7679,0.0,0.0,0.0,0.0,0.0,0.0,0.0,0.0,0.0,0.0,0.0,0.0,0.0,0.0,0.0,0.0,0.0,0.0,0.0,0.0,0.0,0.0,0.0,0.0,0.0,0.0,0.0,-0.3643,-0.3466,0.0,0.0,0.0,0.0,0.0,0.0,0.0,0.0,0.0,0.0,0.0,-0.2428,-0.3042,0.0,0.0,0.0,0.0,0.0,0.0,0.0,0.0,0.0,0.0,0.0,0.0,-0.259,-0.5243,-0.6101,-0.8099,-1.1318,-1.1949,-1.2246,-1.2314,-1.2821,-1.1741,-0.8925,0.0,0.0,0.0,0.0,0.0,0.0,0.0,0.0,0.0,0.0,0.0,0.0,0.0,0.0,0.0,0.0,0.0,0.0,0.0,0.0,0.0,0.0,0.0,0.0,0.0,-0.7831,0.0,0.0,0.0,0.0,0.0,0.0,0.0,0.0,0.0,0.0,0.0,-0.8385,-0.8288,-0.963,-1.1925,-1.5524,-1.3495,-1.1825,0.0,0.0,0.0,0.0,0.0,0.0,0.0,0.0,0.0,0.0,0.0,0.0,0.0,0.0,-0.5929,-0.4157,-0.5227,-0.7065,-0.9165,0.0,0.0,0.0,0.0,0.0,0.0,0.0,0.0,0.0,0.0,0.0,0.0,0.0,0.0,-0.42,0.0,-0.33,0.0,0.0,0.0,0.0,0.0,0.0,0.0,0.0,-0.2402,-0.2791,-0.2893,-0.3501,-0.3734,0.0,-0.3803,-0.337,0.0,0.0,0.0,0.0,0.0,0.0,0.0,0.0,-0.3289,-0.5603,-0.6776,-0.8665,-1.1352,-1.2266,-1.2705,-1.2737,-1.292,-1.1895,-0.9546,-0.57,-0.3584,0.0,0.0,0.0,0.0,0.0,0.0,0.0,0.0,0.0,0.0,0.0,0.0,0.0,0.0,0.0,0.0,0.0,0.0,0.0,0.0,0.0,0.0,0.0,-0.6907,0.0,0.0,0.0,0.0,0.0,0.0,0.0,0.0,0.0,-0.7821,-0.8765,-0.9348,-0.8976,-1.0149,-1.1843,-1.4054,0.0,0.0,0.0,0.0,0.0,0.0,0.0,-0.9618,-0.886,-0.8471,-0.8685,-0.9967,-0.9797,-0.9352,-0.9043,0.0,0.0,-0.5426,-0.6547,-0.8921,-1.1929,-1.2837,-1.2469,-1.0305,-0.9816,-0.9678,0.0,0.0,0.0,0.0,0.0,0.0,0.0,0.0,-0.5077,-0.4726,0.0,-0.4426,0.0,0.0,0.0,0.0,0.0,-0.1949,0.0,0.0,-0.3331,-0.3423,-0.3425,-0.3633,-0.3906,-0.4176,-0.3816,-0.3921,-0.436,-0.4205,0.0,0.0,0.0,0.0,0.0,0.0,-0.3672,-0.466,-0.6589,-0.8595,-1.0618,-1.1428,-1.2569,-1.4067,-1.326,-1.1906,-1.0013,-0.8433,-0.71,-0.6007,-0.0579,0.0,0.0,0.0,0.0,0.0,0.0,0.0,0.0,0.0,0.0,0.0,0.0,0.0,0.0,0.0,0.0,0.0,0.0,0.0,0.0,-0.5241,0.0,0.0,0.0,0.0,0.0,0.0,0.0,0.0,0.0,0.0,-0.9242,-0.9694,-0.979,-0.9012,0.0,0.0,0.0,0.0,-1.2695,-1.0513,-1.1443,-1.1982,-1.0869,-1.0964,-1.1151,-1.1108,0.0,0.0,-1.3693,-1.236,-1.0889,-1.1027,-1.0791,-0.9854,-0.7757,-0.8144,-1.0022,-1.3864,-1.467,-1.4113,-1.2408,-1.1437,-1.1097,-0.6601,0.0,0.0,0.0,0.0,-0.5388,-0.6008,-0.6958,-0.6661,-0.6565,-0.658,-0.621,0.0,0.0,0.0,0.0,0.0,0.0,-0.3466,-0.341,-0.3885,-0.4039,-0.3902,-0.4291,-0.44,-0.4204,-0.4533,-0.4687,-0.4728,-0.5299,-0.4803,-0.3307,0.0,0.0,0.0,0.0,-0.4503,-0.6345,-0.7209,-0.845,-1.0146,-1.0249,-1.0896,-1.2267,-1.1498,-1.1542,-1.2599,-1.0081,-0.8559,-0.8273,-0.5543,0.0,0.0,0.0,0.0,0.0,0.0,0.0,0.0,0.0,0.0,0.0,0.0,0.0,0.0,0.0,0.0,0.0,0.0,0.0,-0.7332,-0.77,-0.7718,0.0,0.0,0.0,0.0,0.0,0.0,0.0,0.0,0.0,-1.1321,-1.1554,-1.1408,0.0,0.0,-1.145,-1.1546,-1.1746,-1.2097,-1.2644,-1.1586,0.0,0.0,-1.242,-1.243,-1.1964,-1.2116,-1.2858,-1.4387,-1.3885,-1.3149,-1.28,-1.2957,-1.2877,-1.2047,-1.0703,-1.1094,-1.3972,-1.4808,-1.4492,-1.3573,-1.3363,-1.3253,-0.7168,-0.6793,-0.6482,-0.6288,-0.6204,-0.6348,-0.6928,-0.7716,-0.7357,-0.7476,-0.7916,-0.7222,-0.6713,-0.6351,-0.5367,0.0,0.0,0.0,-0.47,-0.461,-0.4424,-0.4188,-0.3906,-0.4158,-0.4194,-0.4017,-0.4317,-0.4593,-0.4779,-0.5372,-0.5076,-0.3953,0.0,0.0,-0.3499,-0.4128,-0.5135,-0.6439,-0.694,-0.7772,-0.8994,-0.9423,-0.9946,-1.059,-1.0766,-1.1465,-1.274,-1.127,-1.0557,-1.0887,-0.9451,-0.8582,0.0,0.0,0.0,0.0,0.0,0.0,0.0,0.0,0.0,0.0,0.0,-0.365,0.0,0.0,0.0,0.0,-0.666,-0.7509,-0.7926,-0.872,0.0,0.0,0.0,0.0,0.0,0.0,0.0,-1.074,-1.1675,-1.277,-1.3447,-1.3565,-1.331,-1.2569,-1.2144,-1.2126,-1.2617,0.0,-1.293,-1.4401,-1.2839,-1.1878,-1.2954,-1.366,-1.3964,-1.3494,-1.3756,-1.4242,-1.4788,-1.4669,-1.4355,-1.408,-1.4137,-1.4268,-1.4203,-1.2914,-1.2382,-1.4379,-1.4808,-1.4718,-1.4486,-1.4413,-1.4222,-0.7714,-0.7608,-0.7121,-0.6832,-0.6694,-0.7041,-0.7433,-0.7748,-0.7415,-0.7721,-0.8424,-0.7666,-0.7197,-0.7028,-0.6236,0.0,-0.7024,-0.5987,-0.5757,-0.6194,-0.497,-0.4136,-0.3694,-0.3617,-0.3613,-0.3712,-0.3581,-0.394,-0.4718,-0.4771,-0.4683,-0.4564,-0.5107,-0.5082,-0.4582,-0.5199,-0.5517,-0.5456,-0.6089,-0.6723,-0.7359,-0.8608,-0.9206,-0.91,-1.0573,-1.1322,-1.1232,-1.1842,-1.2548,-1.3227,-1.225,-1.2192,-1.2992,0.0,0.0,0.0,0.0,0.0,0.0,0.0,0.0,0.0,0.0,0.0,0.0,0.0,0.0,0.0,-0.7562,0.0,-0.8249,-0.8881,0.0,0.0,0.0,-1.0254,-1.226,-1.3225,-1.3887,-1.4243,0.0,0.0,-1.5285,-1.5365,-1.5201,-1.4706,-1.4149,-1.3533,-1.2772,-1.3571,-1.4633,-1.5613,-1.4749,-1.3908,-1.389,-1.4739,-1.5286,-1.5154,-1.5056,-1.4921,-1.5043,-1.4918,-1.4777,-1.4766,-1.4574,-1.4429,-1.4732,-1.4414,-1.4415,-1.4704,-1.4808,-1.4902,-1.5075,-1.4673,-1.4414,-0.8257,-0.791,-0.8094,-0.7791,-0.7212,-0.7189,-0.7433,-0.7775,-0.7684,-0.7996,-0.8445,-0.8185,-0.7968,-0.7842,-0.7615,-0.7365,-0.7019,-0.6677,-0.6238,-0.5682,-0.5246,-0.4873,-0.4499,-0.419,-0.3963,-0.3859,-0.3881,-0.4009,-0.4285,-0.4475,-0.4655,-0.4838,-0.5209,-0.5136,-0.4613,-0.5004,-0.5371,-0.5712,-0.573,-0.5564,-0.5268,-0.5943,-0.6654,-0.7377,-0.8213,-0.9243,-1.047,-1.0559,-1.1175,-1.2485,-1.28,-1.3105,-1.3278,-0.4786,0.0,0.0,0.0,0.0,0.0,0.0,0.0,0.0,0.0,-0.4929,-0.6124,0.0,-0.6732,0.0,-0.7475,-0.8819,-1.1149,-1.0142,0.0,0.0,-1.2241,-1.2579,-1.3122,-1.5295,-1.568,-1.2821,-1.4137,-1.516,-1.49,-1.5141,-1.5657,-1.6508,-1.5005,-1.3849,-1.3984,-1.4109,-1.4658,-1.5774,-1.5654,-1.5334,-1.5276,-1.5416,-1.5536,-1.5448,-1.5329,-1.5254,-1.5268,-1.5178,-1.5056,-1.4966,-1.4904,-1.4842,-1.4808,-1.4714,-1.47,-1.4777,-1.4808,-1.4808,-1.4887,-1.476,-1.4687,-0.853,-0.83,-0.8524,-0.8332,-0.7899,-0.7753,-0.7748,-0.7784,-0.7752,-0.8045,-0.8516,-0.8676,-0.8518,-0.8086,-0.8086,-0.7811,-0.7293,-0.6852,-0.6373,-0.577,-0.5245,-0.4873,-0.4611,-0.4357,-0.413,-0.392,-0.3941,-0.3952,-0.3928,-0.4165,-0.4382,-0.4549,-0.4841,-0.4867,-0.4648,-0.503,-0.5383,-0.5739,-0.5514,-0.5198,-0.4744,-0.5025,-0.5286,-0.5494,-0.6546,-0.7435,-0.8129,-0.8528,-0.9053,-0.971,-1.2057,-1.3091,-1.2331,-0.7409,-0.274,0.0,0.0,0.0,0.0,0.0,0.0,0.0,0.0,0.0,0.0,0.0,-0.7001,-0.9479,-0.9767,-1.0645,-1.2673,-1.1885,-1.1838,-1.3299,-1.4586,-1.5107,-1.4464,-1.639,-1.6779,-1.4173,-1.5115,-1.598,-1.5988,-1.5887,-1.6204,-1.7276,-1.5795,-1.4593,-1.4599,-1.4874,-1.5469,-1.6056,-1.6083,-1.5985,-1.597,-1.5841,-1.5711,-1.5639,-1.5507,-1.5418,-1.5388,-1.5314,-1.5254,-1.5133,-1.5088,-1.5072,-1.4904,-1.4811,-1.4808,-1.4808,-1.4856,-1.4842,-1.4808,-1.4808,-1.4808,-0.8618,-0.8509,-0.8472,-0.8348,-0.8243,-0.8193,-0.8049,-0.789,-0.7825,-0.8075,-0.8592,-0.897,-0.8779,-0.8183,-0.8081,-0.7858,-0.7539,-0.6744,-0.6321,-0.6112,-0.5233,-0.472,-0.4587,-0.4521,-0.4306,-0.4094,-0.4064,-0.3957,-0.3858,-0.402,-0.412,-0.4166,-0.4389,-0.4545,-0.4634,-0.5074,-0.5391,-0.555,-0.5312,-0.5101,-0.4894,-0.4879,-0.4541,-0.3948,-0.5268,-0.583,-0.5459,-0.6329,-0.6716,-0.6568,-1.0053,-1.1858,-1.1381,-0.8981,-0.5344,0.0,0.0812,0.0,0.0,0.0,0.0,0.0,0.0,0.0,0.0,-0.6841,-0.7173,-1.3251,-1.3009,-1.284,-1.3666,-1.3887,-1.4142,-1.4654,-1.6401,-1.708,-1.5838,-1.6614,-1.6999,-1.6356,-1.6399,-1.6689,-1.6965,-1.6631,-1.6542,-1.7011,-1.6216,-1.5376,-1.5183,-1.5706,-1.6144,-1.6285,-1.6262,-1.625,-1.6166,-1.6039,-1.5883,-1.5799,-1.5683,-1.5536,-1.5522,-1.5448,-1.5403,-1.5268,-1.5238,-1.5163,-1.5058,-1.4949,-1.4871,-1.4887,-1.4966,-1.4996,-1.4856,-1.4839,-1.4825,-0.8351,-0.8015,-0.7673,-0.7351,-0.708,-0.7225,-0.7737,-0.8388,-0.8344,-0.8529,-0.8783,-0.835,-0.8309,-0.8544,-0.7847,-0.733,-0.6946,-0.6568,-0.6259,-0.603,-0.5847,-0.5728,-0.5677,-0.5331,-0.5218,-0.5174,-0.4919,-0.4754,-0.4684,-0.4614,-0.4529,-0.4404,-0.4543,-0.4571,-0.4614,0.0,0.0,0.0,-0.4676,-0.4565,-0.4422,-0.4327,-0.4229,-0.413,-0.4102,0.0,-0.4892,-0.4947,-0.5451,-0.6463,-0.5552,0.0,0.0,0.0,0.0,0.0,0.0,0.0,0.0,0.0,0.0,0.0,-1.093,-1.0882,-0.983,-1.0518,-1.2687,-1.6303,-1.4833,-1.4314,-1.5957,-1.5627,-1.5376,-1.555,-1.6075,-1.6232,-1.5774,-1.4893,-1.4717,-1.6136,-1.6064,-1.5702,-1.5335,-1.5436,-1.5837,-1.6188,-1.5654,-1.5725,-1.6673,-1.5951,-1.5833,-1.6661,-1.6691,-1.6452,-1.625,-1.6095,-1.594,-1.5827,-1.577,-1.5697,-1.561,-1.5595,-1.5551,-1.5433,-1.5403,-1.5344,-1.5268,-1.5222,-1.5178,-1.5192,-1.5222,-1.5147,-1.4871,-1.4887,-1.4935,-0.8254,0.0,-0.7866,-0.7684,0.0,-0.7819,-0.8101,-0.8379,-0.8156,-0.8131,-0.8222,-0.7944,-0.7799,-0.7784,-0.7507,-0.7073,-0.6435,-0.63,-0.6172,-0.6031,-0.5902,-0.5841,-0.5841,-0.5841,-0.5785,-0.5665,-0.5665,-0.5562,-0.5286,-0.5136,-0.4979,-0.4717,-0.4875,-0.4842,-0.4614,-0.4874,-0.4906,-0.4767,-0.4791,-0.4722,-0.4571,-0.4544,-0.4374,-0.4009,-0.3781,0.0,0.0,0.0,0.0,0.0,0.0,0.0,0.0,0.0,0.0,-0.6008,-0.4137,-0.4205,-0.7088,-0.7608,-0.9029,-1.2009,-1.3615,-1.3939,-1.2649,-1.4024,-1.5905,-1.8119,-1.6257,-1.5457,-1.678,-1.611,-1.5542,-1.5658,-1.5772,-1.5691,-1.5261,-1.4427,-1.4146,-1.483,-1.5192,-1.521,-1.5018,-1.5014,-1.5235,-1.5499,-1.5245,-1.4957,-1.4976,-1.5471,-1.6184,-1.6952,-1.6821,-1.6639,-1.6612,-1.6316,-1.6011,-1.5856,-1.5827,-1.5814,-1.5712,-1.5697,-1.5668,-1.558,-1.5522,-1.5463,-1.5328,-1.5298,-1.5298,-1.5298,-1.5298,-1.5253,-1.5086,-1.5027,-1.5013,-0.8165,-0.8118,-0.807,-0.8062,-0.8093,-0.8376,-0.8373,-0.8113,0.0,0.0,0.0,-0.7569,-0.7339,-0.7013,-0.7231,-0.6897,-0.6272,-0.6227,-0.6251,-0.6286,-0.6021,-0.5923,-0.6018,-0.6259,-0.6318,-0.6133,-0.6395,-0.6328,-0.5923,-0.5741,-0.5437,-0.5118,-0.5259,-0.5162,-0.481,-0.5138,-0.5246,-0.5098,-0.508,-0.499,-0.4795,-0.4912,-0.4598,-0.3882,-0.3801,-0.3604,-0.3276,-0.305,-0.2697,-0.2225,-0.187,-0.135,-0.0663,-0.3839,-0.6326,-0.7568,-0.6052,-0.6293,-0.9152,-0.9047,-1.0311,-1.3684,-1.5201,-1.6034,-1.6117,-1.6962,-1.8023,-1.9311,-1.742,-1.6442,-1.7198,-1.6192,-1.5428,-1.5314,-1.5474,-1.5335,-1.4709,-1.4431,-1.4154,-1.3906,-1.4385,-1.4853,-1.5027,-1.479,-1.4607,-1.4774,-1.4697,-1.4105,-1.2989,-1.4617,-1.6384,-1.685,-1.6821,-1.6795,-1.6914,-1.6532,-1.6111,-1.5856,-1.5842,-1.5827,-1.577,-1.5741,-1.5697,-1.558,-1.5506,-1.5404,-1.5374,-1.5111,-1.4906,-1.4689,-1.5007,-1.5268,-1.5222,-1.5088,-1.5058,-0.7572,-0.7335,-0.7238,-0.7189,-0.7196,-0.723,-0.7391,-0.7592,-0.7546,-0.7673,-0.7883,-0.7168,-0.7021,-0.7321,-0.71,-0.6886,-0.6785,-0.6927,-0.7036,-0.7024,-0.6756,-0.6808,-0.7068,-0.6832,-0.692,-0.7261,-0.7132,-0.7016,-0.6828,-0.644,-0.6073,-0.5703,-0.5585,-0.5522,-0.5474,-0.5748,-0.5772,-0.5504,-0.5198,-0.4952,-0.4783,-0.4811,-0.462,-0.4172,-0.4087,-0.3878,-0.3541,-0.3677,-0.362,-0.3393,-0.3774,-0.3756,-0.3244,-0.4667,-0.5944,-0.6746,-0.6036,-0.6996,-1.0259,-1.0068,-1.1266,-1.4472,-1.5749,-1.6738,-1.7786,-1.8733,-1.9489,-1.9798,-1.8007,-1.7099,-1.7507,-1.666,-1.5608,-1.4765,-1.5172,-1.5223,-1.4329,-1.4266,-1.4216,-1.3995,-1.4097,-1.4222,-1.4278,-1.4164,-1.4079,-1.3965,-1.4041,-1.3461,-1.2971,-1.4113,-1.5742,-1.6521,-1.6889,-1.7016,-1.6965,-1.6463,-1.5983,-1.5827,-1.5668,-1.561,-1.5522,-1.5522,-1.5477,-1.5507,-1.5067,-1.4963,-1.5417,-1.4551,-1.3595,-1.2802,-1.3734,-1.5075,-1.4902,-1.4873,-1.4968,-0.7587,-0.7396,-0.7448,-0.7277,-0.6972,-0.6972,-0.7345,-0.7813,-0.7271,-0.7183,-0.7287,-0.6835,-0.653,-0.6494,-0.6605,-0.6625,-0.6465,-0.6838,-0.7066,-0.7242,-0.7132,-0.7138,-0.7302,-0.7375,-0.7498,-0.7678,-0.7823,-0.7691,-0.7429,-0.7016,-0.6534,-0.6044,-0.5654,-0.5659,-0.6062,-0.6103,-0.6139,-0.6246,-0.5859,-0.5407,-0.4929,-0.5145,-0.5105,-0.4692,-0.4801,-0.4814,-0.4756,-0.4812,-0.4823,-0.4724,-0.4987,-0.5033,-0.4804,-0.5389,-0.6193,-0.7126,-0.6775,-0.7748,-1.0518,-1.1143,-1.1988,-1.3435,-1.4788,-1.586,-1.6637,-1.7636,-1.8464,-1.8917,-1.7389,-1.6368,-1.6568,-1.5622,-1.4702,-1.4143,-1.4434,-1.4477,-1.4204,-1.4216,-1.4268,-1.4203,-1.419,-1.4203,-1.4172,-1.4127,-1.4101,-1.405,-1.3991,-1.3768,-1.3376,-1.4195,-1.5386,-1.6579,-1.6837,-1.6707,-1.6628,-1.6234,-1.5755,-1.5329,-1.5299,-1.5269,-1.5149,-1.5133,-1.5133,-1.5088,-1.4681,-1.4471,-1.4696,-1.4596,-1.3542,-1.1966,-1.3108,-1.4401,-1.4383,-1.4383,-1.4592,-0.7856,-0.7595,-0.7903,-0.7756,-0.7328,-0.7211,-0.7616,-0.8158,-0.7244,-0.6894,-0.6921,-0.6685,-0.6311,-0.5948,-0.6483,-0.6613,-0.6446,-0.6763,-0.7139,-0.7407,-0.7254,-0.726,-0.7425,-0.7685,-0.7823,-0.7961,-0.822,-0.8182,-0.7803,-0.7431,-0.688,-0.6233,-0.5699,-0.5797,-0.6515,-0.6372,-0.6437,-0.6657,-0.6499,-0.6038,-0.5403,-0.5722,-0.5774,-0.5359,-0.556,-0.5708,-0.5712,-0.5826,-0.5814,-0.5771,-0.5906,-0.5949,-0.588,-0.6007,-0.6428,-0.7256,-0.7265,-0.8085,-1.0132,-1.1622,-1.2381,-1.2344,-1.3576,-1.456,-1.5045,-1.5968,-1.7054,-1.7879,-1.7025,-1.616,-1.608,-1.5101,-1.4219,-1.4094,-1.3979,-1.4044,-1.4136,-1.4229,-1.4324,-1.4324,-1.4324,-1.4312,-1.4324,-1.4324,-1.4293,-1.4281,-1.4324,-1.4324,-1.4314,-1.4357,-1.4975,-1.5753,-1.6071,-1.5936,-1.59,-1.5538,-1.5096,-1.4668,-1.4873,-1.4904,-1.4794,-1.4669,-1.4592,-1.4533,-1.4228,-1.3973,-1.3742,-1.414,-1.387,-1.2583,-1.3481,-1.416,-1.3832,-1.4011,-1.4254,-0.8156,-0.7949,-0.8216,-0.831,-0.8196,-0.7943,-0.7988,-0.826,-0.7695,-0.7446,-0.7376,-0.6957,-0.6617,-0.6471,-0.7115,-0.7285,-0.7079,-0.7382,-0.7644,-0.7744,-0.7176,-0.7182,-0.775,-0.7461,-0.7648,-0.8208,-0.8237,-0.8105,-0.7929,-0.7571,-0.6973,-0.6275,-0.601,-0.6142,-0.6549,-0.6594,-0.6532,-0.6422,-0.6693,-0.672,-0.6481,-0.6612,-0.6478,-0.6016,-0.6196,-0.613,-0.5875,-0.6141,-0.6223,-0.6016,-0.66,-0.6756,-0.6412,-0.6447,-0.6501,-0.6409,-0.6687,-0.7573,-0.9251,-1.0866,-1.1953,-1.2294,-1.2789,-1.3388,-1.3976,-1.4778,-1.6093,-1.7568,-1.7777,-1.7375,-1.7223,-1.6254,-1.5419,-1.4865,-1.4467,-1.4268,-1.4268,-1.4312,-1.4324,-1.4324,-1.4324,-1.4324,-1.4324,-1.4324,-1.4324,-1.4324,-1.4324,-1.4324,-1.4299,-1.4163,-1.4029,-1.4127,-1.4025,-1.4479,-1.4896,-1.4448,-1.4041,-1.4042,-1.4483,-1.456,-1.4369,-1.4195,-1.4084,-1.3868,-1.3472,-1.3293,-1.3463,-1.361,-1.36,-1.3627,-1.3839,-1.4105,-1.3686,-1.3857,-1.4246,-0.8464,-0.8223,-0.851,-0.8572,-0.8454,-0.8074,-0.8141,-0.8461,-0.7775,-0.7576,-0.7715,-0.7419,-0.7042,-0.6684,-0.7158,-0.7297,-0.7212,-0.7309,-0.751,-0.7677,-0.7413,-0.737,-0.746,-0.7611,-0.7695,-0.7797,-0.7897,-0.7885,-0.7634,-0.7393,-0.7031,-0.6562,-0.6458,-0.6658,-0.6968,-0.6965,-0.6999,-0.715,-0.7392,-0.7446,-0.7342,-0.7249,-0.6949,-0.6556,-0.6656,-0.6771,-0.6613,-0.6702,-0.6751,-0.667,-0.6934,-0.6999,-0.681,-0.6732,-0.67,-0.6843,-0.791,-0.8722,-0.9074,-1.0577,-1.1854,-1.2754,-1.2567,-1.2963,-1.4198,-1.3775,-1.4608,-1.7435,-1.7909,-1.7589,-1.7181,-1.6732,-1.6168,-1.5383,-1.4711,-1.4324,-1.4324,-1.4324,-1.4324,-1.4324,-1.4324,-1.4324,-1.4324,-1.4324,-1.4324,-1.4324,-1.4324,-1.4324,-1.4293,-1.4198,-1.4127,-1.3991,-1.3768,-1.3352,-1.3331,-1.3435,-1.326,-1.316,-1.3459,-1.3769,-1.3835,-1.3749,-1.3602,-1.3306,-1.2977,-1.2868,-1.3128,-1.2817,-1.2725,-1.3243,-1.3756,-1.3723,-1.3487,-1.3677,-1.3868,-0.8637,-0.843,-0.8604,-0.8678,-0.8639,-0.8158,-0.8174,-0.8495,-0.7936,-0.7835,-0.8063,-0.7858,-0.7554,-0.7248,-0.734,-0.7352,-0.7224,-0.7279,-0.7413,-0.7571,-0.7528,-0.7455,-0.7412,-0.7671,-0.7735,-0.7697,-0.7841,-0.7785,-0.7474,-0.7074,-0.6775,-0.6479,-0.6326,-0.6441,-0.6624,-0.6611,-0.6751,-0.7098,-0.746,-0.7611,-0.7314,-0.7183,-0.7047,-0.6947,-0.7115,-0.7199,-0.7094,-0.7106,-0.7133,-0.7133,-0.7133,-0.7133,-0.7122,-0.6895,-0.6976,-0.741,-0.8628,-0.9268,-0.8962,-1.0276,-1.1314,-1.1912,-1.2152,-1.2965,-1.3917,-1.4072,-1.5183,-1.7314,-1.798,-1.7929,-1.759,-1.731,-1.6867,-1.6182,-1.5139,-1.4366,-1.4601,-1.4487,-1.4324,-1.4324,-1.4324,-1.4324,-1.4324,-1.4324,-1.4324,-1.4324,-1.4324,-1.4324,-1.4324,-1.4293,-1.4312,-1.4293,-1.3913,-1.3375,-1.2482,-1.2463,-1.261,-1.2423,-1.2564,-1.3259,-1.3276,-1.3217,-1.3104,-1.2836,-1.2603,-1.2318,-1.2198,-1.1923,-1.1752,-1.1732,-1.2223,-1.2889,-1.2567,-1.2994,-1.3272,-0.8637,-0.8397,-0.839,-0.8577,-0.8725,-0.8311,-0.8293,-0.8573,-0.8271,-0.8231,-0.8336,-0.8178,-0.8125,-0.8069,-0.7852,-0.7629,-0.7291,-0.7455,-0.7552,-0.7552,-0.7358,-0.7442,-0.7829,-0.7741,-0.778,-0.7912,-0.7918,-0.785,-0.7578,-0.6821,-0.615,-0.5774,-0.5413,-0.5162,-0.5214,-0.5173,-0.5216,-0.5916,-0.6756,-0.685,-0.6081,-0.6153,-0.6659,-0.732,-0.7466,-0.7342,-0.7143,-0.7136,-0.7133,-0.7133,-0.7139,-0.7133,-0.7117,-0.7114,-0.728,-0.7701,-0.8201,-0.858,-0.8825,-0.9817,-1.0126,-0.9573,-1.15,-1.3269,-1.3357,-1.6198,-1.7824,-1.7424,-1.8334,-1.8894,-1.8696,-1.8067,-1.772,-1.7424,-1.5719,-1.4999,-1.5325,-1.4854,-1.4379,-1.433,-1.4438,-1.4578,-1.4451,-1.4324,-1.4379,-1.4379,-1.433,-1.4415,-1.433,-1.4312,-1.4371,-1.4288,-1.4221,-1.4211,-1.3983,-1.3106,-1.1981,-1.1635,-1.2249,-1.2914,-1.2801,-1.2672,-1.2551,-1.2461,-1.2354,-1.1993,-1.1341,-1.1015,-1.0895,-1.0976,-1.1313,-1.1653,-1.1919,-1.2399,-1.2719,-0.8577,-0.8651,-0.8651,-0.8652,-0.8672,-0.8573,-0.8541,-0.8468,-0.8374,-0.8321,-0.8162,-0.7735,-0.7681,-0.8008,-0.7574,-0.7431,-0.7486,-0.7559,-0.751,-0.737,-0.7413,-0.7467,-0.743,-0.7552,-0.7327,-0.7007,-0.6919,-0.6605,-0.6176,-0.6032,-0.5779,-0.5469,-0.5455,-0.5401,-0.5161,-0.5241,-0.5386,-0.5757,-0.633,-0.6393,-0.5975,-0.5467,-0.5625,-0.6637,-0.6972,-0.7154,-0.7242,-0.7213,-0.7192,-0.7133,-0.7192,-0.7198,-0.7128,-0.7435,-0.7721,-0.7986,-0.828,-0.8535,-0.8802,-0.9257,-0.9175,-0.8391,-0.9138,-1.1155,-1.3664,-1.6881,-1.861,-1.7784,-1.836,-1.8854,-1.8317,-1.8007,-1.769,-1.7219,-1.7276,-1.6751,-1.5886,-1.5646,-1.5479,-1.4759,-1.5121,-1.5827,-1.5646,-1.5551,-1.5049,-1.4578,-1.5451,-1.561,-1.4741,-1.471,-1.4781,-1.4122,-1.4109,-1.4324,-1.4312,-1.3538,-1.2636,-1.1929,-1.1903,-1.191,-1.1831,-1.2337,-1.2394,-1.1908,-1.187,-1.1766,-1.1148,-1.0954,-1.0725,-1.0762,-1.1108,-1.122,-1.1492,-1.2025,-1.2341,-0.8544,-0.8784,-0.8804,-0.8752,-0.8685,-0.8745,-0.8474,-0.815,-0.8049,-0.7889,-0.7563,-0.7074,-0.7079,-0.7295,-0.702,-0.7003,-0.732,-0.7578,-0.7583,-0.737,-0.755,-0.753,-0.7259,-0.7337,-0.7013,-0.6333,-0.6111,-0.5816,-0.5509,-0.5512,-0.5327,-0.5022,-0.5104,-0.4973,-0.4699,-0.4861,-0.5054,-0.5222,-0.5386,-0.55,-0.5445,-0.4901,-0.4901,-0.5714,-0.615,-0.6583,-0.7139,-0.7311,-0.7311,-0.7246,-0.7311,-0.7326,-0.7242,-0.7367,-0.7686,-0.8019,-0.813,-0.8285,-0.8633,-0.8864,-0.8792,-0.8216,-0.7809,-0.9169,-1.2932,-1.6545,-1.7685,-1.7159,-1.6834,-1.7024,-1.6967,-1.6872,-1.7075,-1.7405,-1.8453,-1.8218,-1.6208,-1.5863,-1.5501,-1.5049,-1.5538,-1.6276,-1.6602,-1.6367,-1.5859,-1.5121,-1.6425,-1.657,-1.6171,-1.5492,-1.5056,-1.3918,-1.3557,-1.3663,-1.3495,-1.2834,-1.2622,-1.2056,-1.2034,-1.1745,-1.1373,-1.194,-1.1993,-1.1468,-1.1262,-1.1231,-1.1127,-1.0937,-1.086,-1.0829,-1.0797,-1.0865,-1.1234,-1.1631,-1.1915,-0.8544,-0.8738,-0.8804,-0.8699,-0.8646,-0.8527,-0.8143,-0.7605,-0.7396,-0.7015,-0.6632,-0.6411,-0.6416,-0.647,-0.6411,-0.6468,-0.6832,-0.7389,-0.7657,-0.7601,-0.7739,-0.7534,-0.7127,-0.6999,-0.6658,-0.6076,-0.6015,-0.5929,-0.5747,-0.5172,-0.475,-0.4448,-0.4157,-0.3896,-0.3456,-0.3836,-0.3962,-0.4128,-0.4242,-0.4187,-0.419,-0.4353,-0.4625,-0.5054,-0.516,-0.5706,-0.6745,-0.7187,-0.7306,-0.7354,-0.7337,-0.7389,-0.7087,-0.6947,-0.712,-0.7639,-0.767,-0.7895,-0.833,-0.8646,-0.8798,-0.8597,-0.7736,-0.8466,-1.1386,-1.4752,-1.6419,-1.523,-1.4213,-1.3887,-1.4951,-1.5154,-1.6073,-1.8458,-1.8761,-1.8073,-1.6802,-1.5266,-1.4668,-1.5361,-1.5813,-1.5954,-1.653,-1.6929,-1.6838,-1.6838,-1.6965,-1.7454,-1.7982,-1.6968,-1.5251,-1.4049,-1.3071,-1.2458,-1.2279,-1.205,-1.2087,-1.2105,-1.2363,-1.2333,-1.1551,-1.1626,-1.1384,-1.0967,-1.0899,-1.092,-1.1046,-1.0881,-1.0881,-1.0829,-1.0733,-1.065,-1.0915,-1.1285,-1.1472,-0.7805,-0.7984,-0.7664,-0.7723,-0.799,-0.761,-0.7444,-0.7439,-0.6956,-0.6524,-0.6204,-0.5819,-0.5873,-0.6091,-0.5873,-0.5896,-0.6338,-0.6666,-0.7003,-0.7475,-0.7459,-0.7246,-0.6999,-0.6491,-0.5821,-0.5229,-0.501,-0.4923,-0.4745,-0.4552,-0.4264,-0.4026,-0.3872,-0.367,-0.342,-0.3678,-0.3852,-0.3852,-0.3965,-0.4021,-0.4079,-0.3913,-0.4021,-0.4349,-0.4732,-0.5167,-0.555,-0.5928,-0.6253,-0.6593,-0.6231,-0.6056,-0.6066,-0.6331,-0.6678,-0.7047,-0.7386,-0.7717,-0.8006,-0.8381,-0.8593,-0.8692,-0.8417,-0.9041,-1.0337,-1.1285,-1.2329,-1.2707,-1.201,-1.2085,-1.4132,-1.4245,-1.4946,-1.7071,-1.7374,-1.7382,-1.6711,-1.532,-1.5271,-1.6522,-1.6881,-1.7312,-1.8018,-1.8252,-1.8107,-1.8216,-1.8234,-1.8544,-1.8689,-1.7928,-1.6899,-1.5915,-1.3752,-1.1654,-1.1821,-1.1684,-1.1361,-1.1607,-1.2019,-1.2129,-1.1497,-1.1238,-1.0934,-1.0552,-1.0502,-1.0526,-1.0706,-1.0881,-1.0881,-1.0881,-1.0809,-1.0747,-1.0706,-1.0897,-1.1121,-0.7281,-0.7278,-0.6907,-0.6966,-0.7241,-0.6912,-0.6745,-0.6681,-0.6303,-0.5869,-0.555,-0.5171,-0.5226,-0.5441,-0.5167,-0.5391,-0.5946,-0.5954,-0.6431,-0.7054,-0.6887,-0.6642,-0.6362,-0.5712,-0.5121,-0.4677,-0.4474,-0.4338,-0.4204,-0.4173,-0.4012,-0.385,-0.3842,-0.3707,-0.3533,-0.3698,-0.3796,-0.3796,-0.3965,-0.3965,-0.391,-0.3691,-0.3716,-0.4032,-0.4373,-0.4654,-0.4874,-0.4927,-0.5227,-0.5792,-0.5627,-0.5366,-0.5362,-0.5545,-0.5898,-0.6526,-0.7012,-0.7443,-0.7835,-0.8215,-0.8533,-0.8752,-0.8804,-0.9066,-0.9675,-0.914,-0.9715,-1.0813,-1.04,-1.0623,-1.251,-1.3121,-1.364,-1.4839,-1.6118,-1.6595,-1.6512,-1.5646,-1.5574,-1.6718,-1.7113,-1.7566,-1.8016,-1.8234,-1.8524,-1.8851,-1.8833,-1.887,-1.8797,-1.8397,-1.7627,-1.6534,-1.4476,-1.2911,-1.2006,-1.1395,-1.0738,-1.1029,-1.1453,-1.135,-1.0967,-1.112,-1.1057,-1.0133,-0.9797,-0.9742,-0.9862,-1.061,-1.0881,-1.0881,-1.0805,-1.0715,-1.0664,-1.0685,-1.0899,-0.6837,-0.6578,-0.648,-0.648,-0.6529,-0.6426,-0.6091,-0.5651,-0.5487,-0.5113,-0.468,-0.457,-0.457,-0.4574,-0.4625,-0.4959,-0.5478,-0.5534,-0.5742,-0.6114,-0.6105,-0.5828,-0.5328,-0.4824,-0.4532,-0.4464,-0.4281,-0.4177,-0.4128,-0.4031,-0.3937,-0.3862,-0.3796,-0.3732,-0.3652,-0.3729,-0.3825,-0.3819,-0.3953,-0.3907,-0.3782,-0.3691,-0.368,-0.3952,-0.4024,-0.4262,-0.4599,-0.4346,-0.4512,-0.5462,-0.5332,-0.5131,-0.5101,-0.4663,-0.5139,-0.626,-0.6644,-0.7226,-0.7828,-0.8215,-0.8533,-0.8752,-0.8804,-0.8804,-0.8881,-0.8906,-0.909,-0.9823,-0.9225,-0.9244,-1.0443,-1.1342,-1.2234,-1.2972,-1.5488,-1.6851,-1.6693,-1.6167,-1.6204,-1.6584,-1.6729,-1.6729,-1.6965,-1.7001,-1.7581,-1.8361,-1.8363,-1.8435,-1.8779,-1.846,-1.7559,-1.6433,-1.5331,-1.497,-1.4303,-1.2667,-1.2075,-1.217,-1.203,-1.113,-1.0776,-1.0919,-1.0772,-0.9884,-0.9193,-0.9111,-0.9347,-1.0166,-1.0636,-1.0641,-1.0592,-1.0582,-1.0621,-1.0631,-1.0708,-0.592,-0.5751,-0.5395,-0.5441,-0.571,-0.5391,-0.5332,-0.5433,-0.4948,-0.4677,-0.4519,-0.4463,-0.4574,-0.4632,-0.4574,-0.4736,-0.503,-0.5016,-0.496,-0.5132,-0.5124,-0.4959,-0.4684,-0.4353,-0.4187,-0.4291,-0.4197,-0.4078,-0.4027,-0.3957,-0.3908,-0.3969,-0.3776,-0.3695,-0.3732,-0.3773,-0.3818,-0.3833,-0.3926,-0.3862,-0.3692,-0.3602,-0.3652,-0.3685,-0.3831,-0.3929,-0.4149,-0.4235,-0.4391,-0.4581,-0.4287,-0.4442,-0.5039,-0.5131,-0.5495,-0.631,-0.7012,-0.7518,-0.7858,-0.8203,-0.8527,-0.8752,-0.8804,-0.8804,-0.8804,-0.8804,-0.8906,-0.8955,-0.8514,-0.8684,-0.9896,-1.0527,-1.1398,-1.33,-1.5973,-1.7625,-1.6827,-1.6276,-1.6236,-1.6987,-1.6403,-1.6483,-1.6866,-1.6953,-1.6968,-1.7602,-1.791,-1.8163,-1.8689,-1.8761,-1.7982,-1.7841,-1.717,-1.711,-1.6425,-1.4607,-1.365,-1.3685,-1.2893,-1.129,-1.0929,-1.0714,-1.0231,-0.9485,-0.9014,-0.8819,-0.9213,-0.9827,-1.0064,-1.0438,-1.0438,-1.0438,-1.0544,-1.0621,-1.0669,-0.5444,-0.5054,-0.4736,-0.4791,-0.5058,-0.4736,-0.4791,-0.4952,-0.4677,-0.4463,-0.4463,-0.4463,-0.4574,-0.4688,-0.4632,-0.4739,-0.4963,-0.4923,-0.4863,-0.4857,-0.4743,-0.4629,-0.4463,-0.4298,-0.4242,-0.4301,-0.4242,-0.4242,-0.4239,-0.4132,-0.4076,-0.4076,-0.3916,-0.3845,-0.3785,-0.3877,-0.3838,-0.3745,-0.3914,-0.3851,-0.3637,-0.3577,-0.3666,-0.3664,-0.3762,-0.3873,-0.3923,-0.448,-0.4742,-0.4569,-0.4443,-0.462,-0.5208,-0.5721,-0.6085,-0.6468,-0.6881,-0.7356,-0.7828,-0.8069,-0.8371,-0.8672,-0.8752,-0.8752,-0.8804,-0.8804,-0.8804,-0.8738,-0.8413,-0.8529,-0.8806,-0.9387,-1.0946,-1.3108,-1.5417,-1.6529,-1.6076,-1.6023,-1.6248,-1.6617,-1.6684,-1.6417,-1.7046,-1.6738,-1.6442,-1.6381,-1.6805,-1.7736,-1.8726,-1.8634,-1.8637,-1.8449,-1.8376,-1.8142,-1.792,-1.6492,-1.4163,-1.4123,-1.2642,-1.1188,-1.051,-1.0112,-0.9581,-0.899,-0.8704,-0.8709,-0.9227,-0.9697,-1.0097,-1.0361,-1.0322,-1.0361,-1.0428,-1.0505,-1.0592,-0.5337,-0.457,-0.4519,-0.4463,-0.4519,-0.4463,-0.4515,-0.4519,-0.4515,-0.4463,-0.4512,-0.4498,-0.4604,-0.4688,-0.4707,-0.4827,-0.5136,-0.5076,-0.5057,-0.4938,-0.4794,-0.457,-0.4519,-0.4408,-0.4353,-0.4411,-0.4463,-0.4408,-0.4298,-0.4353,-0.4353,-0.419,-0.4138,-0.4063,-0.3912,-0.3977,-0.3868,-0.3828,-0.3981,-0.396,-0.3773,-0.3752,-0.3724,-0.3793,-0.3814,-0.3911,-0.4204,-0.4728,-0.5107,-0.5067,-0.5318,-0.5618,-0.5892,-0.6438,-0.6661,-0.6569,-0.6786,-0.7206,-0.7701,-0.785,-0.8139,-0.8593,-0.8633,-0.8659,-0.8685,-0.8697,-0.8664,-0.8604,-0.8684,-0.8283,-0.8126,-0.8787,-1.0576,-1.2596,-1.3341,-1.4025,-1.4653,-1.5417,-1.5854,-1.6063,-1.6834,-1.6724,-1.66,-1.6225,-1.5882,-1.5949,-1.6181,-1.6727,-1.7617,-1.7792,-1.8276,-1.8928,-1.8893,-1.8945,-1.8699,-1.8339,-1.5792,-1.4005,-1.1939,-1.0392,-0.9552,-0.9072,-0.8728,-0.8464,-0.8765,-0.9006,-0.9297,-0.9721,-1.0127,-1.0175,-1.0067,-1.0195,-1.0322,-1.04,-1.0438,-0.5544,-0.5062,-0.4684,-0.4463,-0.4463,-0.4463,-0.4463,-0.4463,-0.4463,-0.4519,-0.4491,-0.4452,-0.4577,-0.4831,-0.4631,-0.4835,-0.514,-0.5143,-0.5093,-0.5085,-0.4901,-0.4739,-0.4577,-0.4356,-0.4187,-0.4245,-0.4135,-0.4132,-0.4132,-0.4187,-0.4135,-0.4193,-0.4125,-0.4066,-0.4118,-0.4081,-0.412,-0.4224,-0.4241,-0.4107,-0.4026,-0.3992,-0.3926,-0.382,-0.3781,-0.3952,-0.4234,-0.4838,-0.5412,-0.5961,-0.6524,-0.676,-0.6781,-0.687,-0.7043,-0.7107,-0.7246,-0.7333,-0.7449,-0.7813,-0.8199,-0.8455,-0.8547,-0.8586,-0.8477,-0.839,-0.8283,-0.8088,-0.7997,-0.8151,-0.8745,-1.0151,-1.0979,-1.1679,-1.2539,-1.2853,-1.2438,-1.3206,-1.4473,-1.5383,-1.5227,-1.499,-1.5905,-1.5401,-1.5296,-1.5552,-1.567,-1.5804,-1.6255,-1.6781,-1.7902,-1.8873,-1.9104,-1.8925,-1.8196,-1.7574,-1.539,-1.3189,-1.1165,-1.0015,-0.9146,-0.8562,-0.8415,-0.869,-0.9135,-0.9331,-0.9348,-0.9643,-1.002,-0.9893,-0.9805,-1.0029,-1.0176,-1.0215,-1.0273,-0.5685,-0.5277,-0.4736,-0.4463,-0.4463,-0.4463,-0.4463,-0.4519,-0.4574,-0.4574,-0.4501,-0.4372,-0.4341,-0.4381,-0.4287,-0.4429,-0.4787,-0.5045,-0.5209,-0.5272,-0.5189,-0.5039,-0.4853,-0.4522,-0.4356,-0.4359,-0.4298,-0.4242,-0.4242,-0.4245,-0.4298,-0.4356,-0.4242,-0.4222,-0.4237,-0.4204,-0.4204,-0.4212,-0.4419,-0.4346,-0.3972,-0.4065,-0.403,-0.3804,-0.3765,-0.3828,-0.4128,-0.4576,-0.5251,-0.6016,-0.6833,-0.7388,-0.7259,-0.7032,-0.6947,-0.7151,-0.726,-0.7352,-0.7432,-0.7715,-0.813,-0.8402,-0.8358,-0.837,-0.8267,-0.813,-0.7969,-0.7888,-0.8024,-0.8414,-0.9695,-0.8889,-0.9647,-1.1129,-1.1432,-1.1331,-1.1094,-1.1804,-1.2887,-1.3873,-1.3772,-1.4067,-1.4342,-1.4224,-1.5378,-1.5933,-1.42,-1.4281,-1.5071,-1.5799,-1.7609,-1.859,-1.8945,-1.8711,-1.7732,-1.6351,-1.4304,-1.2242,-1.0265,-0.9656,-0.9262,-0.8762,-0.8363,-0.8774,-0.913,-0.9164,-0.9264,-0.9614,-0.9756,-0.9502,-0.9502,-0.9797,-1.0001,-1.0011,-1.007,-0.5614,-0.5226,-0.4736,-0.4463,-0.4519,-0.4519,-0.4519,-0.4522,-0.4712,-0.4723,-0.4519,-0.4304,-0.4104,-0.3809,-0.3842,-0.3978,-0.429,-0.471,-0.5045,-0.537,-0.5312,-0.527,-0.514,-0.4885,-0.4689,-0.4553,-0.4514,-0.4514,-0.4511,-0.4501,-0.4492,-0.4528,-0.4525,-0.444,-0.4321,-0.4412,-0.4375,-0.4189,-0.4521,-0.4444,-0.3929,-0.4026,-0.3937,-0.3762,-0.3704,-0.3769,-0.4027,-0.4367,-0.4848,-0.5713,-0.6602,-0.7097,-0.7157,-0.6896,-0.6532,-0.6873,-0.7005,-0.7254,-0.7554,-0.7716,-0.7892,-0.8313,-0.8088,-0.8015,-0.8068,-0.7876,-0.7749,-0.7822,-0.7997,-0.849,-0.9916,-0.8585,-0.864,-1.0057,-0.9968,-0.9735,-1.0138,-1.0695,-1.1138,-1.2196,-1.2397,-1.2579,-1.2858,-1.2968,-1.4751,-1.5778,-1.3879,-1.2923,-1.3726,-1.4532,-1.6047,-1.7687,-1.8048,-1.6821,-1.5704,-1.5111,-1.3066,-1.2026,-0.9903,-0.9261,-0.9206,-0.9078,-0.8748,-0.8753,-0.8973,-0.9092,-0.9341,-0.9653,-0.9629,-0.9209,-0.9139,-0.9433,-0.9616,-0.9732,-0.9886,-0.5273,-0.5277,-0.4736,-0.4463,-0.4519,-0.4632,-0.4632,-0.4712,-0.4925,-0.4975,-0.4764,-0.4519,-0.4003,-0.36,-0.3773,-0.4038,-0.4237,-0.4455,-0.474,-0.5103,-0.5111,-0.5235,-0.5389,-0.5152,-0.503,-0.4934,-0.4761,-0.4704,-0.4623,-0.4653,-0.4674,-0.4745,-0.4606,-0.4511,-0.4592,-0.464,-0.4596,-0.4457,-0.4574,-0.4422,-0.4216,-0.4024,-0.3964,-0.3775,-0.3685,-0.3781,-0.4036,-0.4229,-0.4675,-0.5354,-0.6123,-0.6437,-0.6599,-0.6606,-0.6749,-0.6736,-0.6925,-0.7319,-0.7753,-0.7639,-0.7561,-0.7639,-0.7637,-0.762,-0.7649,-0.7562,-0.7535,-0.7621,-0.7693,-0.7909,-0.8202,-0.7578,-0.7836,-0.87,-0.8933,-0.8505,-0.8891,-0.902,-0.9601,-1.1064,-1.1081,-1.0917,-1.1157,-1.1232,-1.1871,-1.2799,-1.2216,-1.1868,-1.2696,-1.3068,-1.3657,-1.537,-1.6936,-1.5119,-1.3235,-1.2927,-1.2028,-1.1926,-1.0439,-0.8969,-0.8929,-0.9228,-0.923,-0.9105,-0.9198,-0.9403,-0.9601,-0.9779,-0.9761,-0.9533,-0.9314,-0.9123,-0.9438,-0.9791,-0.9743,-0.5113,-0.5281,-0.4739,-0.4519,-0.4632,-0.4688,-0.4743,-0.4805,-0.4822,-0.4969,-0.4862,-0.432,-0.3577,-0.319,-0.3132,-0.3509,-0.3862,-0.4058,-0.4321,-0.464,-0.4914,-0.5129,-0.5384,-0.5224,-0.5223,-0.517,-0.5036,-0.4766,-0.4596,-0.4653,-0.4748,-0.4765,-0.4707,-0.4741,-0.4765,-0.4721,-0.4707,-0.4711,-0.4533,-0.4351,-0.4232,-0.403,-0.3946,-0.3932,-0.3894,-0.4022,-0.4219,-0.4196,-0.4506,-0.5002,-0.5314,-0.5455,-0.5891,-0.6658,-0.7241,-0.6862,-0.6976,-0.725,-0.76,-0.7472,-0.7598,-0.7521,-0.7463,-0.7445,-0.7424,-0.7375,-0.7388,-0.7567,-0.7317,-0.7451,-0.8039,-0.7426,-0.7482,-0.8238,-0.8509,-0.8582,-0.8385,-0.799,-0.8804,-0.9875,-0.9429,-0.927,-0.9526,-0.9449,-0.9143,-0.9452,-1.0047,-1.0786,-1.1604,-1.1927,-1.2131,-1.3162,-1.4819,-1.446,-1.2755,-1.2237,-1.1514,-1.1245,-1.0828,-0.9352,-0.8855,-0.9184,-0.9361,-0.934,-0.9503,-0.9639,-0.9554,-0.9573,-0.9725,-0.9856,-0.962,-0.9441,-0.9649,-0.9772,-0.963,-0.4916,-0.5112,-0.473,-0.4622,-0.4682,-0.4737,-0.4768,-0.4746,-0.4668,-0.4791,-0.489,-0.3926,-0.3159,-0.2811,-0.2832,-0.3113,-0.35,-0.367,-0.3914,-0.4207,-0.4558,-0.4789,-0.5071,-0.5019,-0.5091,-0.5325,-0.5124,-0.4893,-0.4728,-0.4769,-0.4802,-0.487,-0.4945,-0.4945,-0.4928,-0.487,-0.4785,-0.4653,-0.4439,-0.4194,-0.4047,-0.3963,-0.401,-0.4131,-0.4171,-0.4207,-0.4327,-0.4251,-0.4388,-0.4624,-0.4639,-0.4635,-0.5191,-0.6618,-0.7306,-0.7022,-0.707,-0.7173,-0.7347,-0.7348,-0.7438,-0.749,-0.7302,-0.7288,-0.7324,-0.7275,-0.7301,-0.7528,-0.7466,-0.7293,-0.7783,-0.7412,-0.7471,-0.8077,-0.8941,-0.9277,-0.8458,-0.7968,-0.7777,-0.8098,-0.767,-0.7961,-0.8463,-0.8399,-0.8293,-0.8824,-0.9436,-0.9459,-1.0213,-1.0793,-1.1078,-1.1555,-1.2479,-1.3254,-1.2772,-1.2363,-1.1487,-1.0653,-1.0339,-0.9449,-0.9222,-0.9266,-0.9372,-0.9496,-0.9591,-0.9663,-0.9534,-0.9479,-0.9618,-0.9718,-0.9734,-0.9734,-0.9758,-0.9469,-0.9215,-0.4373,-0.4772,-0.4718,-0.4721,-0.4707,-0.4934,-0.4745,-0.4432,-0.4755,-0.4589,-0.4226,-0.3519,-0.3035,-0.283,-0.2936,-0.3021,-0.3133,-0.3246,-0.3428,-0.3773,-0.3929,-0.4364,-0.5012,-0.4848,-0.5085,-0.5306,-0.5115,-0.4991,-0.4938,-0.5016,-0.5121,-0.5169,-0.503,-0.4921,-0.5098,-0.504,-0.5013,-0.4874,-0.468,-0.4421,-0.4112,-0.3957,-0.3993,-0.4044,-0.4131,-0.4206,-0.4295,-0.4222,-0.4232,-0.447,-0.4251,-0.4396,-0.4793,-0.479,-0.5789,-0.6616,-0.7279,-0.7536,-0.755,-0.7335,-0.7262,-0.7335,-0.719,-0.7055,-0.7098,-0.7255,-0.7275,-0.7094,-0.7346,-0.7558,-0.7678,-0.7896,-0.8077,-0.837,-0.8831,-0.8875,-0.8363,-0.7924,-0.7734,-0.7646,-0.7624,-0.7597,-0.7852,-0.7673,-0.7555,-0.8209,-0.8736,-0.8818,-0.9067,-0.9805,-0.9552,-0.981,-1.0745,-1.1599,-1.2429,-1.2082,-1.1347,-1.0283,-1.0141,-0.9708,-0.9423,-0.9327,-0.9505,-0.9645,-0.9667,-0.9695,-0.9633,-0.9596,-0.9651,-0.9575,-0.9529,-0.9612,-0.9713,-0.9318,-0.8909,-0.4169,-0.4452,-0.4565,-0.4618,-0.4731,-0.49,-0.4916,-0.4709,-0.4472,-0.4244,-0.3872,-0.3234,-0.2836,-0.2705,-0.2849,-0.2879,-0.2861,-0.2932,-0.2984,-0.3294,-0.3457,-0.3957,-0.449,-0.4714,-0.4965,-0.5255,-0.5255,-0.5182,-0.5143,-0.5138,-0.5179,-0.5213,-0.5199,-0.5199,-0.5233,-0.5172,-0.5162,-0.5085,-0.4944,-0.465,-0.4454,-0.4411,-0.4477,-0.4594,-0.4594,-0.454,-0.4422,-0.4323,-0.426,-0.4337,-0.4257,-0.4374,-0.4624,-0.472,-0.5087,-0.5416,-0.6411,-0.6958,-0.7224,-0.7102,-0.714,-0.7301,-0.7247,-0.7191,-0.7114,-0.7121,-0.7188,-0.7012,-0.7269,-0.7423,-0.7523,-0.7802,-0.7983,-0.8238,-0.8536,-0.8434,-0.8208,-0.7968,-0.7682,-0.7609,-0.7543,-0.7491,-0.7563,-0.7663,-0.7757,-0.8275,-0.8739,-0.8926,-0.9059,-0.9455,-0.8807,-0.7711,-0.8941,-1.0236,-1.1173,-1.1565,-1.0973,-1.031,-1.0866,-1.0366,-0.9553,-0.9419,-0.9619,-0.9461,-0.9256,-0.9334,-0.9579,-0.9704,-0.9677,-0.9511,-0.9327,-0.9474,-0.9584,-0.9327,-0.8994,-0.4079,-0.4196,-0.4448,-0.4633,-0.4692,-0.4853,-0.4775,-0.4515,-0.4135,-0.3858,-0.3522,-0.2972,-0.2637,-0.2635,-0.2639,-0.2705,-0.2701,-0.2762,-0.2748,-0.2906,-0.3206,-0.376,-0.4203,-0.4535,-0.4951,-0.546,-0.5419,-0.5352,-0.5283,-0.5233,-0.5267,-0.5189,-0.5287,-0.5401,-0.5321,-0.527,-0.5243,-0.5239,-0.5003,-0.4832,-0.4748,-0.4774,-0.4853,-0.4958,-0.5014,-0.4931,-0.4658,-0.4527,-0.4339,-0.4241,-0.4395,-0.4488,-0.456,-0.4656,-0.4751,-0.4988,-0.5628,-0.6216,-0.6589,-0.677,-0.6955,-0.7019,-0.7115,-0.6929,-0.7025,-0.6972,-0.6972,-0.6979,-0.7132,-0.731,-0.7449,-0.7645,-0.7788,-0.7903,-0.8041,-0.799,-0.7925,-0.7737,-0.7648,-0.7604,-0.7512,-0.7373,-0.748,-0.7723,-0.8019,-0.8395,-0.8711,-0.9018,-0.9152,-0.9313,-0.8849,-0.7824,-0.7993,-0.9248,-1.0013,-1.0544,-1.0136,-1.0275,-1.081,-1.0654,-0.9709,-0.946,-0.9647,-0.938,-0.8963,-0.9133,-0.9487,-0.9585,-0.9713,-0.9603,-0.9502,-0.9437,-0.94,-0.917,-0.8885,-0.4021,-0.4033,-0.4498,-0.466,-0.4714,-0.4854,-0.4305,-0.3522,-0.3741,-0.3466,-0.2914,-0.2747,-0.2577,-0.2465,-0.2689,-0.2802,-0.2749,-0.2697,-0.2755,-0.2921,-0.32,-0.3666,-0.4048,-0.4511,-0.4941,-0.5455,-0.5403,-0.5448,-0.5483,-0.5108,-0.5264,-0.5415,-0.5262,-0.5348,-0.5422,-0.5328,-0.5249,-0.5203,-0.5039,-0.498,-0.4908,-0.4869,-0.4865,-0.4917,-0.4894,-0.4813,-0.4542,-0.4507,-0.4371,-0.4209,-0.4298,-0.446,-0.446,-0.457,-0.4625,-0.4827,-0.498,-0.5515,-0.5976,-0.6284,-0.6401,-0.6418,-0.6435,-0.6582,-0.695,-0.6979,-0.6972,-0.7021,-0.7112,-0.7174,-0.7339,-0.7551,-0.7616,-0.7659,-0.7738,-0.7817,-0.7767,-0.7638,-0.7572,-0.7599,-0.7522,-0.7396,-0.737,-0.761,-0.791,-0.8253,-0.8885,-0.9202,-0.9082,-0.9164,-0.922,-0.8675,-0.8035,-0.8442,-0.9035,-0.929,-0.9574,-0.9818,-1.0237,-1.0004,-0.9432,-0.9459,-0.9512,-0.9323,-0.8981,-0.9159,-0.9257,-0.9211,-0.9301,-0.96,-0.9619,-0.9421,-0.9205,-0.8977,-0.8592,-0.391,-0.4027,-0.4307,-0.4495,-0.4608,-0.4724,-0.4294,-0.3635,-0.3738,-0.3411,-0.2691,-0.2691,-0.28,-0.2912,-0.3079,-0.3302,-0.3413,-0.3246,-0.3188,-0.319,-0.3357,-0.3635,-0.4024,-0.4473,-0.4894,-0.5208,-0.5169,-0.4841,-0.4606,-0.4597,-0.4247,-0.4226,-0.4869,-0.5345,-0.5428,-0.5355,-0.5359,-0.5282,-0.5242,-0.5212,-0.5199,-0.5172,-0.5125,-0.5189,-0.5189,-0.4928,-0.4575,-0.4474,-0.4278,-0.4088,-0.4036,-0.4206,-0.4442,-0.4438,-0.4519,-0.468,-0.4739,-0.5014,-0.5386,-0.5857,-0.6381,-0.6681,-0.6451,-0.6337,-0.6901,-0.6992,-0.6979,-0.7021,-0.7041,-0.711,-0.7159,-0.7305,-0.7397,-0.7433,-0.7496,-0.7595,-0.756,-0.7405,-0.7412,-0.744,-0.7398,-0.7349,-0.7391,-0.7509,-0.7806,-0.8151,-0.8801,-0.9303,-0.9136,-0.9005,-0.902,-0.9103,-0.854,-0.8199,-0.8765,-0.9023,-0.9197,-0.9424,-0.9628,-0.939,-0.9169,-0.9076,-0.9111,-0.8972,-0.8964,-0.8971,-0.8904,-0.8762,-0.8805,-0.8949,-0.9128,-0.9204,-0.8979,-0.8812,-0.8509,-0.3852,-0.3965,-0.4135,-0.4301,-0.4522,-0.4626,-0.4333,-0.3805,-0.3674,-0.3268,-0.2579,-0.2635,-0.297,-0.3304,-0.3416,-0.358,-0.3729,-0.3655,-0.3553,-0.3602,-0.3707,-0.3883,-0.4288,-0.4643,-0.506,-0.5098,-0.4901,-0.4588,-0.432,-0.3835,-0.3576,-0.3705,-0.4121,-0.4599,-0.5029,-0.5276,-0.5425,-0.5428,-0.5428,-0.5428,-0.5355,-0.5348,-0.5342,-0.5338,-0.5397,-0.5152,-0.4728,-0.4593,-0.4294,-0.401,-0.3809,-0.396,-0.4206,-0.4415,-0.4432,-0.4522,-0.4632,-0.4691,-0.4948,-0.5251,-0.6005,-0.6164,-0.6197,-0.6355,-0.6787,-0.7118,-0.7317,-0.7228,-0.7194,-0.7148,-0.7141,-0.7227,-0.7215,-0.7237,-0.7237,-0.732,-0.7264,-0.7196,-0.7245,-0.7238,-0.7245,-0.7245,-0.7223,-0.7326,-0.7755,-0.8001,-0.8229,-0.8761,-0.8994,-0.8855,-0.882,-0.894,-0.8901,-0.869,-0.8643,-0.8594,-0.864,-0.8959,-0.9105,-0.9113,-0.8933,-0.8873,-0.883,-0.8872,-0.882,-0.8708,-0.8659,-0.8666,-0.8438,-0.8239,-0.8595,-0.9121,-0.8972,-0.8812,-0.8645,-0.3793,-0.3852,-0.4079,-0.4301,-0.4532,-0.4619,-0.4305,-0.3644,-0.3501,-0.304,-0.2523,-0.2689,-0.3081,-0.3416,-0.3635,-0.3858,-0.411,-0.3971,-0.3914,-0.4036,-0.4162,-0.4426,-0.47,-0.4982,-0.5238,-0.5388,-0.5009,-0.4584,-0.4354,-0.3618,-0.328,-0.3068,-0.325,-0.3732,-0.4252,-0.5026,-0.5359,-0.5428,-0.5428,-0.5428,-0.5425,-0.5425,-0.5428,-0.5425,-0.5428,-0.5199,-0.4877,-0.4675,-0.4366,-0.3912,-0.3729,-0.3826,-0.4109,-0.4213,-0.4297,-0.4522,-0.4591,-0.4754,-0.4886,-0.4765,-0.509,-0.5536,-0.5662,-0.5978,-0.6823,-0.7377,-0.7702,-0.7482,-0.7528,-0.7468,-0.7361,-0.7228,-0.7141,-0.7063,-0.707,-0.707,-0.707,-0.707,-0.7112,-0.7154,-0.716,-0.716,-0.7063,-0.713,-0.7669,-0.7909,-0.7867,-0.8136,-0.8558,-0.8761,-0.8699,-0.8838,-0.8915,-0.8488,-0.8224,-0.8025,-0.8048,-0.8378,-0.8647,-0.8663,-0.8648,-0.8578,-0.8612,-0.8715,-0.8547,-0.8311,-0.8466,-0.8668,-0.8455,-0.8291,-0.8742,-0.9094,-0.8982,-0.8802,-0.8553,-0.3747,-0.3965,-0.4021,-0.4242,-0.447,-0.457,-0.4225,-0.3635,-0.3444,-0.3329,-0.3302,-0.3522,-0.3799,-0.4135,-0.4245,-0.4411,-0.4728,-0.4498,-0.4446,-0.4446,-0.4551,-0.4587,-0.4794,-0.5085,-0.5278,-0.5146,-0.4773,-0.4166,-0.3849,-0.3083,-0.2378,-0.2041,-0.2429,-0.3132,-0.417,-0.5011,-0.5428,-0.5428,-0.5428,-0.5428,-0.5488,-0.5491,-0.5425,-0.5554,-0.5425,-0.5225,-0.497,-0.4782,-0.4408,-0.3982,-0.3812,-0.3808,-0.3981,-0.396,-0.4263,-0.4482,-0.4584,-0.4674,-0.4739,-0.4711,-0.4849,-0.5089,-0.5204,-0.5589,-0.6786,-0.7121,-0.7418,-0.7776,-0.7876,-0.7769,-0.7553,-0.7475,-0.7361,-0.7074,-0.7021,-0.7021,-0.7021,-0.7021,-0.7021,-0.7021,-0.7063,-0.6949,-0.686,-0.6854,-0.725,-0.7579,-0.7574,-0.7708,-0.8084,-0.8483,-0.866,-0.8786,-0.8794,-0.8223,-0.7874,-0.7787,-0.7688,-0.7874,-0.817,-0.8325,-0.8287,-0.8143,-0.811,-0.8091,-0.8017,-0.7914,-0.8017,-0.8115,-0.8382,-0.8508,-0.884,-0.9067,-0.903,-0.8739,-0.8394,-0.3694,-0.3858,-0.3968,-0.4132,-0.4363,-0.4518,-0.4141,-0.3513,-0.3482,-0.3516,-0.335,-0.3633,-0.4135,-0.4467,-0.4577,-0.4857,-0.5183,-0.4841,-0.4776,-0.4831,-0.4783,-0.4798,-0.4937,-0.4963,-0.4916,-0.4743,-0.4073,-0.3416,-0.2981,-0.2076,-0.1601,-0.1466,-0.1777,-0.2511,-0.3533,-0.4251,-0.4907,-0.4995,-0.5156,-0.5425,-0.5554,-0.555,-0.5554,-0.5554,-0.5481,-0.5315,-0.5094,-0.4861,-0.4634,-0.4244,-0.4048,-0.3873,-0.3815,-0.3903,-0.4235,-0.4375,-0.4512,-0.4632,-0.4618,-0.4671,-0.4797,-0.5023,-0.465,-0.5161,-0.6481,-0.7222,-0.7544,-0.7869,-0.8042,-0.796,-0.7789,-0.7702,-0.725,-0.6927,-0.6836,-0.6842,-0.6592,-0.655,-0.6888,-0.6888,-0.6959,-0.686,-0.672,-0.668,-0.6794,-0.7031,-0.7245,-0.7461,-0.7628,-0.7965,-0.8308,-0.8402,-0.8389,-0.79,-0.7673,-0.7702,-0.7602,-0.7454,-0.7678,-0.7976,-0.7633,-0.7408,-0.7432,-0.7468,-0.7358,-0.7314,-0.7392,-0.7555,-0.7742,-0.818,-0.8676,-0.8882,-0.9028,-0.8774,-0.8374,-0.3585,-0.3638,-0.3913,-0.4021,-0.4098,-0.4482,-0.4019,-0.3092,-0.3685,-0.3363,-0.2462,-0.3524,-0.4135,-0.4463,-0.4356,-0.4636,-0.5117,-0.477,-0.4869,-0.495,-0.4908,-0.4938,-0.4816,-0.4739,-0.446,-0.3959,-0.3403,-0.285,-0.2071,-0.1681,-0.1273,-0.1204,-0.1571,-0.2019,-0.2593,-0.3277,-0.4067,-0.4524,-0.509,-0.5425,-0.5554,-0.5686,-0.5686,-0.562,-0.5481,-0.5418,-0.5304,-0.513,-0.4939,-0.4716,-0.4414,-0.4114,-0.3994,-0.3991,-0.4148,-0.4355,-0.4488,-0.4511,-0.4629,-0.4656,-0.4604,-0.4714,-0.471,-0.4977,-0.5698,-0.694,-0.7359,-0.7678,-0.7967,-0.8036,-0.8009,-0.7465,-0.6891,-0.6693,-0.6569,-0.6355,-0.6007,-0.6167,-0.6592,-0.6803,-0.693,-0.6906,-0.6741,-0.6698,-0.6907,-0.6962,-0.7215,-0.7306,-0.744,-0.7373,-0.7634,-0.7641,-0.7635,-0.7476,-0.7397,-0.7501,-0.7466,-0.7349,-0.7444,-0.7596,-0.7135,-0.6686,-0.6651,-0.6655,-0.6631,-0.674,-0.7115,-0.7161,-0.7095,-0.7583,-0.7987,-0.848,-0.8596,-0.8765,-0.8496,-0.3638,-0.3744,-0.3913,-0.4021,-0.4196,-0.4455,-0.4356,-0.4076,-0.3954,-0.3775,-0.4018,-0.4349,-0.4515,-0.4787,-0.4736,-0.4849,-0.4886,-0.4918,-0.4922,-0.491,-0.4892,-0.4641,-0.444,-0.4233,-0.3898,-0.3405,-0.2852,-0.2413,-0.2183,-0.1626,-0.1143,-0.1067,-0.1265,-0.131,-0.1661,-0.226,-0.3211,-0.4183,-0.4945,-0.5359,-0.562,-0.5756,-0.5752,-0.5686,-0.5536,-0.5474,-0.5397,-0.5185,-0.5047,-0.4861,-0.4463,-0.4095,-0.3738,-0.3779,-0.4021,-0.4361,-0.4409,-0.4411,-0.468,-0.4629,-0.4519,-0.4519,-0.457,-0.5,-0.5543,-0.6114,-0.6827,-0.7261,-0.7881,-0.8062,-0.7873,-0.734,-0.6748,-0.6451,-0.6173,-0.5604,-0.5313,-0.5313,-0.5787,-0.6588,-0.671,-0.66,-0.6514,-0.7163,-0.7355,-0.7228,-0.7204,-0.7274,-0.7188,-0.7168,-0.7065,-0.7093,-0.716,-0.7086,-0.7182,-0.7242,-0.7257,-0.7293,-0.7364,-0.7163,-0.6539,-0.6162,-0.5935,-0.6007,-0.6302,-0.6684,-0.7052,-0.7123,-0.7223,-0.6719,-0.6985,-0.765,-0.8191,-0.8395,-0.8683,-0.3779,-0.3883,-0.3948,-0.3964,-0.386,-0.3744,-0.3741,-0.3808,-0.399,-0.4201,-0.4301,-0.457,-0.4791,-0.4794,-0.4736,-0.4791,-0.4897,-0.4783,-0.4732,-0.4791,-0.4794,-0.4457,-0.4122,-0.3741,-0.3322,-0.2826,-0.2279,-0.1891,-0.182,-0.1526,-0.1031,-0.0962,-0.0961,-0.0982,-0.1259,-0.1855,-0.2591,-0.368,-0.4584,-0.5147,-0.5425,-0.5756,-0.5822,-0.5741,-0.5647,-0.5484,-0.5404,-0.5226,-0.5058,-0.4898,-0.4562,-0.4265,-0.3832,-0.3767,-0.39,-0.4237,-0.4276,-0.4373,-0.4574,-0.4574,-0.4519,-0.4463,-0.4519,-0.4768,-0.499,-0.5325,-0.6119,-0.6817,-0.7564,-0.8063,-0.7659,-0.7242,-0.6733,-0.6154,-0.551,-0.4854,-0.4578,-0.4408,-0.5106,-0.6057,-0.6263,-0.6169,-0.6504,-0.7291,-0.7762,-0.7562,-0.7359,-0.7263,-0.7108,-0.6881,-0.6745,-0.6667,-0.6773,-0.6834,-0.6866,-0.6816,-0.6774,-0.6842,-0.7141,-0.681,-0.6056,-0.5679,-0.5529,-0.5791,-0.6151,-0.6514,-0.6775,-0.7423,-0.7574,-0.6877,-0.6476,-0.7254,-0.7881,-0.8238,-0.8556,-0.3922,-0.3895,-0.3912,-0.3727,-0.3421,-0.2854,-0.2685,-0.2792,-0.3802,-0.407,-0.3793,-0.4181,-0.4519,-0.4629,-0.4629,-0.468,-0.4625,-0.4515,-0.4515,-0.4632,-0.4463,-0.4138,-0.366,-0.3426,-0.3044,-0.2341,-0.1773,-0.1654,-0.1114,-0.0994,-0.1007,-0.0989,-0.0985,-0.0994,-0.1133,-0.152,-0.2107,-0.2567,-0.3818,-0.4691,-0.496,-0.5359,-0.5888,-0.58,-0.565,-0.5431,-0.535,-0.5241,-0.5067,-0.4957,-0.4755,-0.4464,-0.4047,-0.3761,-0.3886,-0.4014,-0.4129,-0.432,-0.4463,-0.4519,-0.4519,-0.4463,-0.4522,-0.465,-0.4787,-0.4797,-0.5458,-0.643,-0.7198,-0.7506,-0.7212,-0.6762,-0.6261,-0.5726,-0.5102,-0.4632,-0.4373,-0.4312,-0.4648,-0.5324,-0.5342,-0.5348,-0.6074,-0.6809,-0.7432,-0.7516,-0.7367,-0.7154,-0.685,-0.6575,-0.6445,-0.6277,-0.6342,-0.6352,-0.6169,-0.6124,-0.6124,-0.6282,-0.6496,-0.6361,-0.5534,-0.5252,-0.5172,-0.5462,-0.5783,-0.6132,-0.6486,-0.708,-0.7269,-0.6446,-0.6343,-0.6988,-0.7533,-0.7847,-0.8146,-0.3879,-0.3786,-0.3323,-0.3431,-0.3691,-0.2734,-0.2512,-0.2961,-0.2959,-0.3178,-0.3572,-0.3738,-0.4073,-0.4408,-0.4349,-0.4405,-0.4405,-0.4125,-0.4181,-0.4239,-0.4184,-0.3848,-0.3285,-0.3459,-0.3008,-0.2352,-0.189,-0.1588,-0.1222,-0.1036,-0.098,-0.1014,-0.1006,-0.0999,-0.1007,-0.1325,-0.1504,-0.1752,-0.2442,-0.3833,-0.4538,-0.5084,-0.5554,-0.5675,-0.5614,-0.5592,-0.5492,-0.5375,-0.5168,-0.4962,-0.4707,-0.4323,-0.3869,-0.3697,-0.3705,-0.3887,-0.399,-0.4138,-0.4408,-0.4463,-0.4463,-0.4463,-0.448,-0.4565,-0.4639,-0.4563,-0.4997,-0.6003,-0.6559,-0.6691,-0.6756,-0.6268,-0.581,-0.528,-0.4768,-0.4481,-0.4249,-0.4347,-0.439,-0.4415,-0.4404,-0.4928,-0.5677,-0.6319,-0.6899,-0.6979,-0.6795,-0.6557,-0.6272,-0.6037,-0.5979,-0.5863,-0.5879,-0.5839,-0.5567,-0.5394,-0.5394,-0.5221,-0.5246,-0.5111,-0.4966,-0.4879,-0.4848,-0.5031,-0.5291,-0.5691,-0.6176,-0.6764,-0.6716,-0.6123,-0.5832,-0.6387,-0.6848,-0.7235,-0.7532,-0.4009,-0.391,-0.3273,-0.3036,-0.3014,-0.212,-0.1777,-0.1813,-0.1662,-0.1929,-0.2621,-0.3012,-0.3458,-0.3793,-0.3683,-0.3907,-0.3907,-0.3624,-0.3735,-0.3849,-0.3978,-0.3764,-0.3647,-0.3592,-0.3276,-0.2727,-0.2256,-0.1828,-0.1462,-0.1122,-0.0999,-0.1027,-0.1015,-0.1004,-0.0943,-0.0986,-0.1043,-0.1275,-0.156,-0.2483,-0.3923,-0.4707,-0.5415,-0.5686,-0.5672,-0.5577,-0.5472,-0.5341,-0.5132,-0.4948,-0.475,-0.4321,-0.3735,-0.3046,-0.3137,-0.3413,-0.3691,-0.3852,-0.4239,-0.4463,-0.4463,-0.4463,-0.4463,-0.4535,-0.4816,-0.4831,-0.5049,-0.5889,-0.5549,-0.5586,-0.6024,-0.5796,-0.5444,-0.4982,-0.4605,-0.4276,-0.4361,-0.4538,-0.4558,-0.4511,-0.4572,-0.4831,-0.5456,-0.576,-0.6289,-0.6617,-0.6408,-0.5878,-0.5631,-0.5585,-0.5524,-0.5471,-0.55,-0.5252,-0.4923,-0.4753,-0.4622,-0.4408,-0.4276,-0.4447,-0.4631,-0.4544,-0.4529,-0.4843,-0.5107,-0.5353,-0.5875,-0.6435,-0.663,-0.6208,-0.5855,-0.5608,-0.6129,-0.6684,-0.702,-0.4113,-0.4017,-0.3113,-0.2552,-0.2047,-0.1284,-0.0832,-0.0575,-0.0441,-0.0654,-0.1227,-0.2011,-0.2571,-0.2738,-0.2738,-0.2963,-0.3074,-0.2959,-0.3181,-0.368,-0.3959,-0.3735,-0.3812,-0.3862,-0.3702,-0.3364,-0.2902,-0.2422,-0.199,-0.1552,-0.1278,-0.11,-0.1025,-0.0946,-0.0977,-0.0969,-0.11,-0.1186,-0.1369,-0.1621,-0.2873,-0.4121,-0.4872,-0.5312,-0.5503,-0.5348,-0.5236,-0.51,-0.4858,-0.481,-0.4617,-0.4103,-0.3297,-0.243,-0.2583,-0.2852,-0.3299,-0.3685,-0.4184,-0.446,-0.446,-0.4463,-0.4463,-0.4596,-0.487,-0.5119,-0.5348,-0.5229,-0.4862,-0.4787,-0.5201,-0.5433,-0.5136,-0.48,-0.4422,-0.4285,-0.4513,-0.4681,-0.4673,-0.4617,-0.4698,-0.4816,-0.505,-0.5316,-0.5592,-0.5982,-0.5855,-0.5379,-0.5015,-0.5087,-0.514,-0.5177,-0.5202,-0.4871,-0.4442,-0.4232,-0.4104,-0.4232,-0.4232,-0.4276,-0.4288,-0.4296,-0.4437,-0.4751,-0.5009,-0.5197,-0.5531,-0.6056,-0.6127,-0.6235,-0.5901,-0.5576,-0.5701,-0.6219,-0.6647,-0.3838,-0.3115,-0.1876,-0.1544,-0.1652,-0.0727,-0.0448,-0.0677,-0.0392,-0.0279,-0.0391,-0.0672,-0.1342,-0.2345,-0.2514,-0.2571,-0.246,-0.2347,-0.2903,-0.3516,-0.3482,-0.355,-0.3911,-0.4421,-0.437,-0.4092,-0.3704,-0.3199,-0.2547,-0.2055,-0.1652,-0.1263,-0.1041,-0.1028,-0.1019,-0.1067,-0.1038,-0.1063,-0.1097,-0.1339,-0.2064,-0.3015,-0.3491,-0.3799,-0.3836,-0.4148,-0.4293,-0.437,-0.4171,-0.4166,-0.4207,-0.3702,-0.2839,-0.186,-0.1908,-0.2406,-0.2854,-0.3577,-0.4018,-0.4405,-0.446,-0.4463,-0.4477,-0.4538,-0.4802,-0.505,-0.5142,-0.4931,-0.4668,-0.4474,-0.4767,-0.506,-0.4876,-0.4552,-0.42,-0.4445,-0.4673,-0.4741,-0.4744,-0.462,-0.4527,-0.4648,-0.4677,-0.4838,-0.4893,-0.5175,-0.5175,-0.4731,-0.4717,-0.4724,-0.4828,-0.485,-0.4904,-0.4565,-0.4187,-0.3906,-0.384,-0.4016,-0.4152,-0.4212,-0.4216,-0.42,-0.4363,-0.465,-0.4861,-0.5042,-0.5395,-0.5774,-0.6056,-0.6145,-0.5916,-0.569,-0.5674,-0.5803,-0.6265]}]]